[[{"header":{"parameterUnit":"m.s-1","parameterCategory":1,"la1":30.6,"la2":28.766,"lo1":-90.7593,"lo2":-88.6598,"dy":0.0162,"dx":0.0183,"nx":116,"ny":114,"refTime":"2024-05-06T12:00:00:Z","depth":0,"parameterNumber":2,"parameterNumberName":"U-component_of_WINDS"},"data":[0.0,0.0,0.0,0.0,0.0,0.0,0.0,0.0,0.0,0.0,0.0,0.0,0.0,0.0,0.0,0.0,0.0,0.0,0.0,0.0,0.0,0.0,0.0,0.0,0.0,0.0,0.0,0.0,0.0,0.0,0.0,0.0,0.0,0.0,0.0,0.0,0.0,0.0,0.0,0.0,0.0,0.0,0.0,0.0,0.0,0.0,0.0,0.0,0.0,0.0,0.0,0.0,0.0,0.0,0.0,0.0,0.0,0.0,0.0,0.0,0.0,0.0,0.0,0.0,0.0,0.0,0.0,0.0,0.0,0.0,0.0,0.0,0.0,0.0,0.0,0.0,0.0,0.0,0.0,0.0,0.0,0.0,0.0,0.0,0.0,0.0,0.0,0.0,0.0,0.0,0.0,0.0,0.0,0.0,0.0,0.0,0.0,0.0,0.0,0.0,0.0,0.0,0.0,0.0,0.0,0.0,0.0,0.0,0.0,0.0,0.0,0.0,0.0,0.0,0.0,0.0,0.0,0.0,0.0,0.0,0.0,0.0,0.0,0.0,0.0,0.0,0.0,0.0,0.0,0.0,0.0,0.0,0.0,0.0,0.0,0.0,0.0,0.0,0.0,0.0,0.0,0.0,0.0,0.0,0.0,0.0,0.0,0.0,0.0,0.0,0.0,0.0,0.0,0.0,0.0,0.0,0.0,0.0,0.0,0.0,0.0,0.0,0.0,0.0,0.0,0.0,0.0,0.0,0.0,0.0,0.0,0.0,0.0,0.0,0.0,0.0,0.0,0.0,0.0,0.0,0.0,0.0,0.0,0.0,0.0,0.0,0.0,0.0,0.0,0.0,0.0,0.0,0.0,0.0,0.0,0.0,0.0,0.0,0.0,0.0,0.0,0.0,0.0,0.0,0.0,0.0,0.0,0.0,0.0,0.0,0.0,0.0,0.0,0.0,0.0,0.0,0.0,0.0,0.0,0.0,0.0,0.0,0.0,0.0,0.0,0.0,0.0,0.0,0.0,0.0,0.0,0.0,0.0,0.0,0.0,0.0,0.0,0.0,0.0,0.0,0.0,0.0,0.0,0.0,0.0,0.0,0.0,0.0,0.0,0.0,0.0,0.0,0.0,0.0,0.0,0.0,0.0,0.0,0.0,0.0,0.0,0.0,0.0,0.0,0.0,0.0,0.0,0.0,0.0,0.0,0.0,0.0,0.0,0.0,0.0,0.0,0.0,0.0,0.0,0.0,0.0,0.0,0.0,0.0,0.0,0.0,0.0,0.0,0.0,0.0,0.0,0.0,0.0,0.0,0.0,0.0,0.0,0.0,0.0,0.0,0.0,0.0,0.0,0.0,0.0,0.0,0.0,0.0,0.0,0.0,0.0,0.0,0.0,0.0,0.0,0.0,0.0,0.0,0.0,0.0,0.0,0.0,0.0,0.0,0.0,0.0,0.0,0.0,0.0,0.0,0.0,0.0,0.0,0.0,0.0,0.0,0.0,0.0,0.0,0.0,0.0,0.0,0.0,0.0,0.0,0.0,0.0,0.0,0.0,0.0,0.0,0.0,0.0,0.0,0.0,0.0,0.0,0.0,0.0,0.0,0.0,0.0,0.0,0.0,0.0,0.0,0.0,0.0,0.0,0.0,0.0,0.0,0.0,0.0,0.0,0.0,0.0,0.0,0.0,0.0,0.0,0.0,0.0,0.0,0.0,0.0,0.0,0.0,0.0,0.0,0.0,0.0,0.0,0.0,0.0,0.0,0.0,0.0,0.0,0.0,0.0,0.0,0.0,0.0,0.0,0.0,0.0,0.0,0.0,0.0,0.0,0.0,0.0,0.0,0.0,0.0,0.0,0.0,0.0,0.0,0.0,0.0,0.0,0.0,0.0,0.0,0.0,0.0,0.0,0.0,0.0,0.0,0.0,0.0,0.0,0.0,0.0,0.0,0.0,0.0,0.0,0.0,0.0,0.0,0.0,0.0,0.0,0.0,0.0,0.0,0.0,0.0,0.0,0.0,0.0,0.0,0.0,0.0,0.0,0.0,0.0,0.0,0.0,0.0,0.0,0.0,0.0,0.0,0.0,0.0,0.0,0.0,0.0,0.0,0.0,0.0,0.0,0.0,0.0,0.0,0.0,0.0,0.0,0.0,0.0,0.0,0.0,0.0,0.0,0.0,0.0,0.0,0.0,0.0,0.0,0.0,0.0,0.0,0.0,0.0,0.0,0.0,0.0,0.0,0.0,0.0,0.0,0.0,0.0,0.0,0.0,0.0,0.0,0.0,0.0,0.0,0.0,0.0,0.0,0.0,0.0,0.0,0.0,0.0,0.0,0.0,0.0,0.0,0.0,0.0,0.0,0.0,0.0,0.0,0.0,0.0,0.0,0.0,0.0,0.0,0.0,0.0,0.0,0.0,0.0,0.0,0.0,0.0,0.0,0.0,0.0,0.0,0.0,0.0,0.0,0.0,0.0,0.0,0.0,0.0,0.0,0.0,0.0,0.0,0.0,0.0,0.0,0.0,0.0,0.0,0.0,0.0,0.0,0.0,0.0,0.0,0.0,0.0,0.0,0.0,0.0,0.0,0.0,0.0,0.0,0.0,0.0,0.0,0.0,0.0,0.0,0.0,0.0,0.0,0.0,0.0,0.0,0.0,0.0,0.0,0.0,0.0,0.0,0.0,0.0,0.0,0.0,0.0,0.0,0.0,0.0,0.0,0.0,0.0,0.0,0.0,0.0,0.0,0.0,0.0,0.0,0.0,0.0,0.0,0.0,0.0,0.0,0.0,0.0,0.0,0.0,0.0,0.0,0.0,0.0,0.0,0.0,0.0,0.0,0.0,0.0,0.0,0.0,0.0,0.0,0.0,0.0,0.0,0.0,0.0,0.0,0.0,0.0,0.0,0.0,0.0,0.0,0.0,0.0,0.0,0.0,0.0,0.0,0.0,0.0,0.0,0.0,0.0,0.0,0.0,0.0,0.0,0.0,0.0,0.0,0.0,0.0,0.0,0.0,0.0,0.0,0.0,0.0,0.0,0.0,0.0,0.0,0.0,0.0,0.0,0.0,0.0,0.0,0.0,0.0,0.0,0.0,0.0,0.0,0.0,0.0,0.0,0.0,0.0,0.0,0.0,0.0,0.0,0.0,0.0,0.0,0.0,0.0,0.0,0.0,0.0,0.0,0.0,0.0,0.0,0.0,0.0,0.0,0.0,0.0,0.0,0.0,0.0,0.0,0.0,0.0,0.0,0.0,0.0,0.0,0.0,0.0,0.0,0.0,0.0,0.0,0.0,0.0,0.0,0.0,0.0,0.0,0.0,0.0,0.0,0.0,0.0,0.0,0.0,0.0,0.0,0.0,0.0,0.0,0.0,0.0,0.0,0.0,0.0,0.0,0.0,0.0,0.0,0.0,0.0,0.0,0.0,0.0,0.0,0.0,0.0,0.0,0.0,0.0,0.0,0.0,0.0,0.0,0.0,0.0,0.0,0.0,0.0,0.0,0.0,0.0,0.0,0.0,0.0,0.0,0.0,0.0,0.0,0.0,0.0,0.0,0.0,0.0,0.0,0.0,0.0,0.0,0.0,0.0,0.0,0.0,0.0,0.0,0.0,0.0,0.0,0.0,0.0,0.0,0.0,0.0,0.0,0.0,0.0,0.0,0.0,0.0,0.0,0.0,0.0,0.0,0.0,0.0,0.0,0.0,0.0,0.0,0.0,0.0,0.0,0.0,0.0,0.0,0.0,0.0,0.0,0.0,0.0,0.0,0.0,0.0,0.0,0.0,0.0,0.0,0.0,0.0,0.0,0.0,0.0,0.0,0.0,0.0,0.0,0.0,0.0,0.0,0.0,0.0,0.0,0.0,0.0,0.0,0.0,0.0,0.0,0.0,0.0,0.0,0.0,0.0,0.0,0.0,0.0,0.0,0.0,0.0,0.0,0.0,0.0,0.0,0.0,0.0,0.0,0.0,0.0,0.0,0.0,0.0,0.0,0.0,0.0,0.0,0.0,0.0,0.0,0.0,0.0,0.0,0.0,0.0,0.0,0.0,0.0,0.0,0.0,0.0,0.0,0.0,0.0,0.0,0.0,0.0,0.0,0.0,0.0,0.0,0.0,0.0,0.0,0.0,0.0,0.0,0.0,0.0,0.0,0.0,0.0,0.0,0.0,0.0,0.0,0.0,0.0,0.0,0.0,0.0,0.0,0.0,0.0,0.0,0.0,0.0,0.0,0.0,0.0,0.0,0.0,0.0,0.0,0.0,0.0,0.0,0.0,0.0,0.0,0.0,0.0,0.0,0.0,0.0,0.0,0.0,0.0,0.0,0.0,0.0,0.0,0.0,0.0,0.0,0.0,0.0,0.0,0.0,0.0,0.0,0.0,0.0,0.0,0.0,0.0,0.0,0.0,0.0,0.0,0.0,0.0,0.0,0.0,0.0,0.0,0.0,0.0,0.0,0.0,0.0,0.0,0.0,0.0,0.0,0.0,0.0,0.0,0.0,0.0,0.0,0.0,0.0,0.0,0.0,0.0,0.0,0.0,0.0,0.0,0.0,0.0,0.0,0.0,0.0,0.0,0.0,0.0,0.0,0.0,0.0,0.0,0.0,0.0,0.0,0.0,0.0,0.0,0.0,0.0,0.0,0.0,0.0,0.0,0.0,0.0,0.0,0.0,0.0,0.0,0.0,0.0,0.0,0.0,0.0,0.0,0.0,0.0,0.0,0.0,0.0,0.0,0.0,0.0,0.0,0.0,0.0,0.0,0.0,0.0,0.0,0.0,0.0,0.0,0.0,0.0,0.0,0.0,0.0,0.0,0.0,0.0,0.0,0.0,0.0,0.0,0.0,0.0,0.0,0.0,0.0,0.0,0.0,0.0,0.0,0.0,0.0,0.0,0.0,0.0,0.0,0.0,0.0,0.0,0.0,0.0,0.0,0.0,0.0,0.0,0.0,0.0,0.0,0.0,0.0,0.0,0.0,0.0,0.0,0.0,0.0,0.0,0.0,0.0,0.0,0.0,0.0,0.0,0.0,0.0,0.0,0.0,0.0,0.0,0.0,0.0,0.0,0.0,0.0,0.0,0.0,0.0,0.0,0.0,0.0,0.0,0.0,0.0,0.0,0.0,0.0,0.0,0.0,0.0,0.0,0.0,0.0,0.0,0.0,0.0,0.0,0.0,0.0,0.0,0.0,0.0,0.0,0.0,0.0,0.0,0.0,0.0,0.0,0.0,0.0,0.0,0.0,0.0,0.0,0.0,0.0,0.0,0.0,0.0,0.0,0.0,0.0,0.0,0.0,0.0,0.0,0.0,0.0,0.0,0.0,0.0,0.0,0.0,0.0,0.0,0.0,0.0,0.0,0.0,0.0,0.0,0.0,0.0,0.0,0.0,0.0,0.0,0.0,0.0,0.0,0.0,0.0,0.0,0.0,0.0,0.0,0.0,0.0,0.0,0.0,0.0,0.0,0.0,0.0,0.0,0.0,0.0,0.0,0.0,0.0,0.0,0.0,0.0,0.0,0.0,0.0,0.0,0.0,0.0,0.0,0.0,0.0,0.0,0.0,0.0,0.0,0.0,0.0,0.0,0.0,0.0,0.0,0.0,0.0,0.0,0.0,0.0,0.0,0.0,0.0,0.0,0.0,0.0,0.0,0.0,0.0,0.0,0.0,0.0,0.0,0.0,0.0,0.0,0.0,0.0,0.0,0.0,0.0,0.0,0.0,0.0,0.0,0.0,0.0,0.0,0.0,0.0,0.0,0.0,0.0,0.0,0.0,0.0,0.0,0.0,0.0,0.0,0.0,0.0,0.0,0.0,0.0,0.0,0.0,0.0,0.0,0.0,0.0,0.0,0.0,0.0,0.0,0.0,0.0,0.0,0.0,0.0,0.0,0.0,0.0,0.0,0.0,0.0,0.0,0.0,0.0,0.0,0.0,0.0,0.0,0.0,0.0,0.0,0.0,0.0,0.0,0.0,0.0,0.0,0.0,0.0,0.0,0.0,0.0,0.0,0.0,0.0,0.0,0.0,0.0,0.0,0.0,0.0,0.0,0.0,0.0,0.0,0.0,0.0,0.0,0.0,0.0,0.0,0.0,0.0,0.0,0.0,0.0,0.0,2.7482,0.0,0.0,0.0,0.0,0.0,0.0,0.0,0.0,0.0,0.0,0.0,0.0,0.0,0.0,0.0,0.0,0.0,0.0,0.0,0.0,0.0,0.0,0.0,0.0,1.6024,1.6388,1.63,1.6901,1.7252,1.7197,0.0,0.0,0.0,0.0,0.0,1.9148,1.9746,2.0219,2.0557,2.0847,2.1174,2.148,2.0072,1.9262,1.8942,0.0,0.0,0.0,0.0,0.0,0.0,0.0,0.0,0.0,0.0,0.0,0.0,0.0,0.0,0.0,0.0,0.0,0.0,0.0,0.0,0.0,0.0,0.0,0.0,0.0,0.0,0.0,0.0,0.0,0.0,0.0,0.0,0.0,0.0,0.0,0.0,0.0,0.0,0.0,0.0,0.0,0.0,0.0,0.0,0.0,0.0,0.0,0.0,0.0,0.0,0.0,0.0,0.0,0.0,0.0,0.0,0.0,0.0,0.0,0.0,0.0,0.0,0.0,0.0,0.0,0.0,0.0,0.0,0.0,0.0,0.0,2.8024,0.0,0.0,0.0,0.0,0.0,0.0,0.0,0.0,0.0,0.0,0.0,0.0,0.0,0.0,0.0,0.0,0.0,0.0,0.0,0.0,0.0,1.5383,1.5968,1.6525,1.6871,1.6876,1.7496,1.787,1.787,1.8619,0.0,0.0,0.0,2.0829,2.081,2.1238,2.1574,2.1811,2.1929,2.197,2.1949,2.1949,2.1634,2.1061,2.0137,0.0,0.0,0.0,0.0,0.0,0.0,0.0,0.0,0.0,0.0,0.0,0.0,0.0,0.0,0.0,0.0,0.0,0.0,0.0,0.0,0.0,0.0,0.0,0.0,0.0,0.0,0.0,0.0,0.0,0.0,0.0,0.0,0.0,0.0,0.0,0.0,0.0,0.0,0.0,0.0,0.0,0.0,0.0,0.0,0.0,0.0,0.0,0.0,0.0,0.0,0.0,0.0,0.0,0.0,0.0,0.0,0.0,0.0,0.0,0.0,0.0,0.0,0.0,3.1277,3.1672,3.2333,3.2417,3.2573,3.2634,3.0747,2.9781,2.9557,0.0,0.0,0.0,0.0,0.0,0.0,0.0,0.0,0.0,0.0,0.0,0.0,0.0,0.0,0.0,0.0,0.0,0.0,0.0,0.0,1.5999,1.654,1.6674,1.6943,1.7526,1.8185,1.8568,1.8568,1.974,2.0372,2.0278,2.099,2.1336,2.1211,2.129,2.1894,2.3069,2.4155,2.464,2.4507,2.4507,2.4431,2.42,2.2028,2.1009,2.0877,0.0,0.0,0.0,0.0,0.0,0.0,0.0,0.0,0.0,0.0,0.0,0.0,0.0,0.0,0.0,0.0,0.0,0.0,0.0,0.0,0.0,0.0,0.0,0.0,0.0,0.0,0.0,0.0,0.0,0.0,0.0,0.0,0.0,0.0,0.0,0.0,0.0,0.0,0.0,0.0,0.0,2.2475,2.2624,0.0,0.0,0.0,0.0,0.0,0.0,0.0,0.0,0.0,0.0,0.0,0.0,0.0,3.0937,3.1532,3.1532,3.1618,3.1803,3.2364,3.2711,3.2828,3.3354,3.3596,3.3616,3.3307,0.0,3.1361,3.1542,0.0,0.0,0.0,0.0,0.0,0.0,0.0,0.0,0.0,0.0,0.0,0.0,0.0,0.0,0.0,0.0,0.0,0.0,0.0,0.0,0.0,1.7369,1.7938,1.8245,1.9155,1.9706,1.9706,2.055,2.1011,2.0961,2.1946,2.2486,2.2428,2.3047,2.365,2.4203,2.472,2.5133,2.5446,2.507,2.5074,2.534,2.3915,2.2859,2.2155,2.1528,0.0,0.0,0.0,0.0,0.0,0.0,0.0,0.0,0.0,0.0,0.0,0.0,0.0,0.0,0.0,0.0,0.0,0.0,0.0,0.0,0.0,0.0,0.0,0.0,0.0,0.0,0.0,0.0,0.0,0.0,0.0,0.0,0.0,0.0,0.0,0.0,0.0,0.0,0.0,2.2711,2.3945,2.422,2.5016,2.5807,0.0,0.0,0.0,0.0,0.0,0.0,0.0,0.0,0.0,3.1393,3.1732,3.2148,3.2684,3.302,3.3377,3.3765,3.4052,3.4232,3.4317,3.4569,3.475,3.4857,3.4857,3.4524,3.3869,3.3001,3.2254,3.1687,0.0,0.0,0.0,0.0,3.1691,3.1647,0.0,0.0,0.0,0.0,0.0,0.0,0.0,0.0,0.0,0.0,0.0,0.0,1.6943,1.7997,1.882,1.9128,1.9985,2.0556,2.07,2.1236,2.1617,2.1748,2.2885,2.3565,2.3681,2.4846,2.5504,2.5618,2.5736,2.6042,2.6451,2.5962,2.5965,2.6399,2.5896,2.4811,2.3363,2.2922,2.2338,2.1685,0.0,0.0,0.0,0.0,0.0,0.0,0.0,0.0,0.0,0.0,0.0,0.0,0.0,0.0,0.0,0.0,0.0,0.0,0.0,0.0,0.0,0.0,0.0,0.0,0.0,0.0,0.0,0.0,0.0,0.0,0.0,0.0,0.0,0.0,0.0,0.0,0.0,2.4324,2.5217,2.5729,2.6487,2.72,0.0,0.0,0.0,0.0,0.0,0.0,3.1547,3.2014,3.2361,3.2588,3.3023,3.342,3.3789,3.4221,3.4702,3.5189,3.5358,3.5568,3.5817,3.5972,3.6217,3.6504,3.6334,3.6178,3.5898,3.4377,3.3492,3.3121,3.3372,3.347,3.3474,3.3524,3.353,3.3532,0.0,0.0,0.0,0.0,0.0,0.0,0.0,0.0,0.0,0.0,0.0,1.6943,1.7586,1.8275,1.9158,2.0303,2.0457,2.072,2.1225,2.1883,2.2474,2.2999,2.3683,2.4268,2.4706,2.6037,2.6982,2.7565,2.8187,2.8422,2.8268,2.8239,2.8168,2.8083,2.804,2.6789,2.4696,2.4667,2.4314,2.3699,2.3041,0.0,0.0,0.0,0.0,0.0,0.0,0.0,0.0,0.0,0.0,0.0,0.0,0.0,0.0,0.0,0.0,0.0,0.0,0.0,0.0,0.0,0.0,0.0,0.0,0.0,0.0,0.0,0.0,0.0,0.0,0.0,0.0,0.0,0.0,0.0,0.0,0.0,0.0,2.7028,2.8081,0.0,0.0,0.0,0.0,3.1335,3.1406,3.1937,3.3115,3.3213,3.3779,3.4982,3.5053,3.5081,3.5091,3.5119,3.5179,3.5203,3.578,3.637,3.6928,3.7518,3.8143,3.8711,3.8072,3.7467,3.6854,3.5955,3.556,3.5532,3.555,3.555,3.55,3.5141,3.498,3.4929,0.0,0.0,0.0,0.0,0.0,1.3734,1.3874,1.4805,1.5701,1.6301,1.6936,1.7601,1.8267,1.9251,2.0035,2.0457,2.1128,2.1785,2.2428,2.3017,2.3588,2.4173,2.4837,2.5616,2.6519,2.7386,2.7892,2.8024,2.8642,2.9143,2.95,2.9441,2.9625,2.9966,2.9139,2.8326,2.7494,2.6275,2.5386,2.474,2.4121,2.3493,0.0,0.0,0.0,0.0,0.0,0.0,0.0,0.0,0.0,0.0,0.0,0.0,0.0,0.0,0.0,0.0,0.0,0.0,0.0,0.0,0.0,0.0,0.0,0.0,0.0,0.0,0.0,0.0,0.0,0.0,0.0,0.0,0.0,0.0,0.0,0.0,0.0,2.8685,2.9456,0.0,0.0,3.1389,3.1974,3.2606,3.2891,3.3407,3.4213,3.4145,3.4265,3.4747,3.5492,3.5909,3.5909,3.672,3.7123,3.7123,3.7345,3.7553,3.7776,3.7984,3.8289,3.8621,3.8398,3.8256,3.8199,3.7896,3.6868,3.5516,3.5644,3.5699,3.567,3.5547,3.5479,3.5468,0.0,0.0,0.0,1.2376,1.3266,1.402,1.4188,1.5108,1.6024,1.6614,1.7279,1.7959,1.86,1.9762,2.0552,2.073,2.157,2.2454,2.3311,2.3705,2.4244,2.5038,2.5866,2.6854,2.801,2.8641,2.9028,2.9139,2.9737,3.0249,3.0646,3.0586,3.0782,3.1132,3.028,2.9911,2.9812,2.8336,2.7158,2.62,2.5386,2.4788,2.436,0.0,0.0,0.0,0.0,0.0,0.0,0.0,0.0,0.0,0.0,0.0,0.0,0.0,0.0,0.0,0.0,0.0,0.0,0.0,0.0,0.0,0.0,0.0,0.0,0.0,0.0,0.0,0.0,0.0,0.0,0.0,0.0,0.0,0.0,0.0,2.9415,3.0136,3.0884,3.1523,3.196,3.2674,3.3264,3.3669,3.3946,3.4455,3.5273,3.5167,3.5303,3.5731,3.6517,3.6931,3.6931,3.7786,3.82,3.82,3.82,3.8311,3.8504,3.8504,3.8699,3.8984,3.8797,3.8797,3.8949,3.874,3.7792,3.646,3.6703,3.6779,3.6779,3.6855,3.6874,3.6893,0.0,1.2143,1.2284,1.2894,1.3494,1.4098,1.4706,1.5372,1.6024,1.6652,1.7294,1.7941,1.8594,1.9775,2.0715,2.1186,2.1804,2.2666,2.3845,2.3934,2.4457,2.5592,2.675,2.7911,2.911,2.9781,3.0423,3.1019,3.1616,3.1864,3.1719,3.1747,3.1679,3.1572,3.1544,3.1544,3.1471,3.0809,2.9659,2.8197,2.6899,2.6358,2.6201,0.0,0.0,0.0,0.0,0.0,0.0,0.0,0.0,0.0,0.0,0.0,0.0,0.0,0.0,0.0,0.0,0.0,0.0,0.0,0.0,0.0,0.0,0.0,0.0,0.0,0.0,0.0,0.0,0.0,0.0,0.0,0.0,0.0,2.9629,2.9671,3.0163,3.1384,3.2434,3.3046,3.3046,3.3965,3.4539,3.4539,3.4567,3.5091,3.6276,3.6345,3.6897,3.8138,3.8193,3.8207,3.8207,3.8221,3.8235,3.8235,3.8235,3.8538,3.9104,3.9104,3.9422,3.9968,3.9374,3.9126,3.9084,3.8504,3.838,3.8567,3.8793,3.8882,3.8922,3.912,3.9201,3.9222,1.2205,1.2143,1.2284,1.2894,1.3494,1.4098,1.4706,1.5372,1.6188,1.7287,1.7536,1.8229,1.9814,2.0588,2.1241,2.1804,2.2804,2.3725,2.4491,2.4912,2.5648,2.6779,2.7968,2.8923,2.9597,3.0252,3.0858,3.1364,3.1984,3.2233,3.2227,3.2646,3.284,3.2788,3.2356,3.2145,3.2117,3.1485,3.0972,3.0432,2.8725,2.778,2.7258,0.0,0.0,0.0,0.0,0.0,0.0,0.0,0.0,0.0,0.0,0.0,0.0,0.0,0.0,0.0,0.0,0.0,0.0,0.0,0.0,0.0,0.0,0.0,0.0,0.0,0.0,0.0,0.0,0.0,0.0,0.0,0.0,3.0599,3.0108,3.121,3.2152,3.2361,3.3398,3.4094,3.4094,3.4729,3.5325,3.5766,3.6088,3.6585,3.7353,3.7255,3.7335,3.7683,3.8119,3.8351,3.8351,3.8774,3.9014,3.9014,3.9014,3.9073,3.9259,3.9259,3.9442,3.976,3.9618,3.9623,3.9733,3.9568,3.9542,3.9523,3.886,3.8718,3.8902,3.8957,3.8977,3.8998,1.2205,1.2122,1.2359,1.3257,1.366,1.4163,1.5072,1.5762,1.6525,1.7524,1.7868,1.8622,2.0194,2.088,2.1432,2.2014,2.3139,2.4069,2.4681,2.5644,2.6727,2.7911,2.8834,2.9565,3.0076,3.0997,3.1599,3.1878,3.2718,3.3154,3.3168,3.3696,3.3922,3.3908,3.3473,3.3284,3.3242,3.2643,3.2225,3.1876,3.0541,2.9421,2.8423,2.7172,2.6694,2.654,2.5341,2.469,2.4267,2.3437,0.0,0.0,0.0,0.0,0.0,0.0,0.0,0.0,0.0,0.0,0.0,0.0,0.0,0.0,0.0,0.0,0.0,0.0,0.0,0.0,0.0,0.0,0.0,0.0,3.141,3.1837,3.1871,3.2439,3.301,3.3413,3.4216,3.4851,3.5113,3.5597,3.6141,3.6757,3.7023,3.7411,3.801,3.7937,3.7995,3.8252,3.8578,3.8768,3.8768,3.9129,3.9305,3.9305,3.9305,3.9305,3.9305,3.9305,3.9385,0.0,3.9532,3.9606,3.9711,3.9711,3.9769,0.0,0.0,0.0,0.0,0.0,3.9585,3.9655,1.2205,1.2096,1.2416,1.3773,1.3894,1.4259,1.5597,1.6308,1.6919,1.752,1.817,1.9016,2.0196,2.0829,2.143,2.2058,2.3138,2.411,2.4823,2.6276,2.764,2.8828,2.9411,2.998,3.0598,3.1761,3.2434,3.2557,3.3616,3.4158,3.4242,3.4604,3.478,3.4761,3.4592,3.4498,3.4456,3.3919,3.3339,3.2747,3.2147,3.1051,2.9655,2.842,2.7987,2.7847,2.6582,2.6118,2.5935,2.4711,0.0,0.0,0.0,0.0,0.0,0.0,0.0,0.0,0.0,0.0,0.0,0.0,0.0,0.0,0.0,0.0,0.0,0.0,0.0,0.0,0.0,0.0,0.0,0.0,3.2905,3.3207,3.414,3.3573,3.345,3.451,3.5016,3.55,3.6101,3.6491,3.6937,3.7561,3.7594,3.7873,3.8469,0.0,0.0,0.0,0.0,3.9305,3.9305,3.9373,3.94,3.94,3.9468,3.9509,3.9509,3.9509,3.9509,3.9509,3.9509,3.9509,3.9509,3.9509,3.9634,3.9856,3.9955,3.9996,4.0031,4.0277,4.0457,4.0637,1.2205,1.2096,1.2416,1.3773,1.3894,1.4259,1.5597,1.6308,1.6919,1.752,1.8089,1.9082,2.083,2.1041,2.1492,2.2635,2.3778,2.5031,2.6434,2.7329,2.8092,2.8706,2.9757,3.0626,3.1288,3.1881,3.2629,3.3605,3.3678,3.3979,3.4431,3.4518,3.4573,3.4573,3.4517,3.4498,3.4484,3.4374,3.3974,3.3367,3.2778,3.1865,3.075,2.9493,2.9112,2.9083,2.7875,2.7425,2.7242,2.5977,2.5555,2.5385,2.4287,2.396,0.0,0.0,0.0,0.0,0.0,0.0,0.0,0.0,0.0,0.0,0.0,0.0,0.0,0.0,0.0,0.0,0.0,0.0,0.0,3.2475,3.3303,3.4099,3.4615,3.4928,3.5212,3.5443,3.5981,3.6538,3.7142,3.7284,3.7574,3.8185,3.8225,3.8483,3.9102,3.9129,3.9183,3.9305,3.9305,3.9305,3.9305,3.978,4.0024,4.0024,0.0,0.0,4.0747,4.0747,4.0747,4.0747,4.0747,4.0747,4.0747,4.0747,4.077,4.0767,4.0219,3.9996,4.0009,4.0053,4.0097,4.0184,1.2205,1.2356,1.2826,1.3812,1.4171,1.4639,1.5649,1.66,1.7269,1.7474,1.8325,1.9457,2.0935,2.1033,2.1504,2.2733,2.3796,2.5252,2.7272,2.7709,2.8272,2.9111,3.0237,3.1014,3.1338,3.2045,3.2838,3.3748,3.3993,3.4392,3.4953,3.5193,3.5305,3.5286,3.5155,3.5102,3.5089,3.4788,3.4487,3.4112,3.3247,3.263,3.2092,3.0643,2.9979,2.9686,2.8858,2.8372,2.7982,2.7129,2.6849,2.675,2.6146,2.5949,2.5892,0.0,0.0,0.0,0.0,0.0,0.0,0.0,0.0,0.0,0.0,0.0,0.0,0.0,0.0,3.0843,0.0,0.0,3.3161,3.3666,3.4173,3.477,3.5588,3.5947,3.6157,3.6157,3.6666,3.729,3.79,3.7954,3.8198,3.8817,3.8857,3.8993,3.9278,3.9305,3.9305,3.9305,3.959,3.9739,3.9739,4.035,4.0648,4.0648,4.0951,4.11,4.11,4.11,4.11,4.11,4.11,4.11,4.11,4.11,4.11,4.1055,4.0695,4.0607,4.0706,4.0706,4.0787,4.0935,1.2205,1.2733,1.3366,1.3909,1.4442,1.5035,1.5709,1.6876,1.7601,1.7421,1.8552,1.9786,2.0878,2.0978,2.1531,2.2956,2.3757,2.521,2.7636,2.7805,2.8324,2.9514,3.0615,3.1185,3.1138,3.2131,3.299,3.3711,3.4221,3.4821,3.547,3.5859,3.6012,3.6012,3.5804,3.569,3.5662,3.5188,3.4897,3.4713,3.3661,3.3258,3.3106,3.1687,3.0813,3.0289,2.9794,2.9218,2.8654,2.8219,2.8013,2.7901,2.7833,2.7805,2.7678,2.7144,2.7383,0.0,0.0,0.0,0.0,0.0,0.0,0.0,0.0,0.0,3.0516,3.1132,3.1619,3.215,3.2858,3.3316,3.3916,3.488,3.5097,3.5486,3.6456,3.6795,3.6958,3.6958,3.7385,3.7913,3.851,3.8564,3.8768,3.9264,3.9305,3.9305,3.9305,3.9305,3.9346,3.9468,3.9943,4.0264,4.0363,4.0964,4.1263,4.1276,4.1385,4.1439,4.1439,4.1439,4.1439,4.1439,4.1439,4.1439,4.1439,4.1439,4.1439,4.1439,4.1439,4.1542,4.1674,4.1442,4.1489,4.1663,1.2205,1.3107,1.3909,1.3994,1.4442,1.5035,1.5709,1.6837,1.7556,1.7413,1.8517,1.9738,2.0878,2.0885,2.1689,2.3852,2.4141,2.521,2.7636,2.7805,2.8294,2.9375,3.0566,3.1121,3.0942,3.1924,3.2978,3.4137,3.4034,3.4568,3.5675,3.5723,3.5743,3.5743,3.571,3.569,3.569,3.5622,3.5296,3.4734,3.407,3.3525,3.3043,3.2323,3.1852,3.1516,3.0925,3.0334,2.9755,2.9289,2.8781,2.827,2.7915,2.7805,2.7791,2.7706,0.0,2.7777,2.7706,2.8386,0.0,2.981,3.0296,3.0668,0.0,0.0,3.1146,3.2268,3.2415,3.2686,3.3822,3.4366,3.4679,3.4801,3.571,3.6456,3.6578,3.7528,3.8198,3.8198,3.8252,3.8537,3.9142,3.921,3.9237,3.9292,3.9305,3.9305,3.9305,3.9305,3.9549,4.0087,4.0169,4.0458,4.0978,4.1612,4.191,4.191,4.2439,4.2697,4.2697,4.2697,4.2697,4.2697,4.2697,4.2697,4.2697,4.2697,4.2697,4.2697,4.2697,4.2708,4.2596,4.1526,4.1156,4.1202,1.2708,1.3469,1.4162,1.4522,1.5027,1.5477,1.5769,1.6821,1.7548,1.7413,1.8508,1.9729,2.0878,2.151,2.2483,2.407,2.4151,2.5186,2.7636,2.7688,2.8159,2.9357,3.0339,3.0807,3.0725,3.1744,3.2704,3.3562,3.3802,3.4341,3.5188,3.554,3.569,3.569,3.569,3.569,3.569,3.569,3.5554,3.5242,3.4287,3.3758,3.3471,3.2553,3.2128,3.1957,3.1446,3.0863,0.0,3.0264,3.0067,2.982,2.9664,2.9597,2.9597,2.9597,2.9597,0.0,2.9597,0.0,0.0,0.0,3.1011,3.1495,3.1714,3.204,3.2516,3.3246,3.3331,3.3533,3.4376,3.4685,3.4897,0.0,3.6049,3.6727,3.7073,3.7859,3.8524,3.8884,3.8925,3.902,3.9278,3.9305,3.9305,3.9305,3.9305,3.9305,3.9305,3.9631,3.9929,4.0196,4.0879,4.1367,4.1625,4.2222,4.2521,4.2521,4.2765,4.2911,4.2911,4.2911,4.2911,4.2911,4.2911,4.2911,4.2911,4.2911,4.2911,4.2911,4.2911,4.2911,4.2833,4.2331,4.2154,4.2164,1.3103,1.3829,1.4511,1.4929,1.5463,1.5813,1.5799,1.6791,1.7515,1.7413,1.8481,1.9671,2.08,2.1919,2.3008,2.4076,2.4129,2.5063,2.7369,2.7517,2.7971,2.9028,2.9896,3.0422,3.0535,3.1466,3.2322,3.3101,3.3498,3.4057,3.4802,3.5256,3.554,3.569,3.569,3.569,3.569,3.569,3.569,3.5581,3.4395,3.3908,3.3786,3.263,3.22,3.2151,3.1827,3.1317,3.0815,3.1004,3.0948,3.0827,3.0878,3.0894,3.0894,3.0894,3.0894,3.0936,3.1102,0.0,0.0,3.1471,3.1863,3.2256,3.2705,3.315,3.3595,3.4035,3.4151,3.4328,3.4944,3.5052,0.0,3.5839,3.6435,3.7046,3.7669,3.8266,3.8817,3.9251,3.9305,3.9305,3.9305,3.9305,3.9305,3.9305,3.9305,3.9373,3.9536,3.9956,4.0359,4.0698,4.1544,4.2086,4.2249,4.267,4.2911,4.2911,4.2911,4.2911,4.2911,4.2911,4.2911,4.2911,4.2911,4.2911,4.2911,4.2911,4.2911,4.2911,4.2911,4.2911,4.2911,4.2911,4.2911,4.2911,1.3196,1.4203,1.5045,1.5005,1.5497,1.5885,1.5806,1.6707,1.7405,1.7405,1.8401,1.9517,2.0586,2.1845,2.3013,2.4018,2.4105,2.488,2.6708,2.7251,2.773,2.8217,2.9182,2.9932,3.0391,3.1015,3.1915,3.3101,3.3115,3.3707,3.4788,3.4816,3.5147,3.569,3.569,3.569,3.569,3.569,3.569,3.5581,3.4395,3.3908,3.3786,3.263,3.22,3.22,3.2173,3.1793,3.1295,3.1443,3.1086,3.0641,3.0827,3.0894,3.0894,3.0894,3.0894,3.1033,0.0,0.0,3.1756,3.2937,3.3136,3.3196,3.3737,3.3867,3.4043,3.4639,3.4761,3.4971,3.5554,3.5662,3.5866,3.6469,3.7073,3.7683,3.8293,3.8898,3.9278,3.9305,3.9305,3.9305,0.0,3.9305,3.9305,3.9305,3.9305,3.9563,4.0155,4.0196,4.073,4.191,4.1978,4.2276,4.286,4.2873,4.2911,4.2911,4.2911,4.2911,4.2911,4.2911,4.2911,4.2911,4.2911,4.2911,4.2911,4.2911,4.2911,4.2911,4.2911,4.2911,4.2911,4.2911,4.2911,4.2911,1.3781,1.4566,1.5266,1.5601,1.5824,1.6063,1.6346,1.6964,1.7552,1.8019,1.9394,0.0,0.0,0.0,0.0,0.0,2.4105,2.4827,2.6539,2.7077,2.7508,2.7992,2.901,2.9644,2.9798,3.0802,3.1508,3.1915,3.2721,3.3305,3.368,3.4035,3.4517,3.5106,3.5106,3.5337,3.5662,3.5269,3.5106,3.4998,3.3837,3.3363,3.3268,3.2499,3.22,3.22,0.0,3.2065,3.1902,3.196,3.1842,3.1665,3.1736,3.1754,3.1754,3.1754,3.204,3.2413,3.2618,0.0,3.3188,3.3615,3.3653,3.3791,3.4355,3.4504,3.4666,3.5269,3.5405,3.5459,3.5662,3.569,3.5771,3.5961,3.6856,3.7567,3.7778,3.8659,3.9305,3.9305,3.9305,0.0,0.0,0.0,0.0,3.9305,3.9305,3.9563,4.0183,4.058,4.1177,4.1978,4.2385,4.2683,4.2911,4.2911,4.2911,4.2911,4.2911,4.2911,4.2911,4.2911,4.2911,4.2911,4.2911,4.2911,4.2911,4.2911,4.2911,4.2911,4.2911,4.2911,4.2911,4.2911,4.2911,4.2911,0.0,1.5101,1.5645,1.5956,1.5996,0.0,0.0,0.0,0.0,0.0,0.0,0.0,0.0,0.0,0.0,0.0,0.0,2.4729,2.6176,2.6672,2.7103,2.7557,2.8398,2.9064,2.9485,3.0259,3.087,3.13,3.2078,3.268,3.3115,3.3444,3.3927,3.4477,3.4477,3.468,3.5039,3.4639,3.4477,3.4395,3.3476,3.3101,3.3033,3.2418,3.22,0.0,3.22,3.22,3.22,3.22,3.22,3.22,3.22,3.22,3.2241,3.2458,3.2803,3.3142,3.3341,3.3642,3.3962,3.4179,3.4219,3.4382,3.4984,3.512,3.5228,3.5622,3.569,3.569,3.569,3.569,3.5771,3.5974,3.6666,3.733,3.7764,3.8483,3.9061,3.9278,3.9305,0.0,0.0,0.0,0.0,3.9305,3.9305,3.9658,4.0472,4.0883,4.1466,4.2304,4.2697,4.2911,4.2911,4.2911,4.2911,4.2911,4.2911,4.2911,4.2911,4.2911,4.2911,4.2911,4.2911,4.2911,4.2911,4.2911,4.2911,4.2911,4.2911,4.2911,4.2911,4.2911,4.2911,4.2911,0.0,0.0,1.6166,0.0,0.0,0.0,0.0,0.0,0.0,0.0,0.0,0.0,0.0,0.0,0.0,0.0,0.0,0.0,2.5576,2.6118,2.6553,2.6926,2.7429,2.8234,2.9377,2.9458,3.0055,3.1223,3.126,3.1888,3.3006,3.3047,3.3335,3.3867,3.3867,3.3861,3.3908,3.388,3.3867,3.3813,3.3273,3.3047,3.2993,3.2418,3.22,3.22,3.22,3.22,3.22,3.22,3.22,3.22,3.22,0.0,0.0,0.0,0.0,3.33,3.3799,3.3975,3.4138,3.4694,3.4843,3.5012,3.5567,3.569,3.569,3.569,3.569,3.569,0.0,0.0,3.5879,3.6456,3.6578,3.7012,3.8185,3.8374,3.8618,0.0,0.0,0.0,0.0,0.0,0.0,3.9305,0.0,3.9834,4.1032,4.11,4.1666,4.2846,4.2911,4.2911,4.2911,4.2911,4.2911,4.2911,4.2911,4.2911,4.2911,4.2911,4.2911,4.2911,4.2911,4.2911,4.2911,4.2911,4.2911,4.2911,4.2911,4.2911,4.2911,4.2911,4.2911,4.2911,0.0,0.0,0.0,0.0,0.0,0.0,0.0,0.0,0.0,0.0,0.0,0.0,0.0,0.0,0.0,0.0,0.0,0.0,2.4761,2.5812,2.6332,2.6178,2.715,2.7841,2.8153,2.9037,2.9648,2.996,3.0853,3.1467,3.1779,3.2214,3.2743,3.33,3.33,3.3539,3.3861,3.3471,3.33,3.3259,3.2662,3.2418,3.2404,3.2255,3.22,3.22,3.22,3.22,3.22,3.22,0.0,0.0,0.0,3.2517,3.2898,0.0,0.0,3.4388,3.4517,3.4897,3.5283,3.5432,3.5473,3.5513,3.5662,3.569,3.569,3.569,3.569,3.569,0.0,0.0,0.0,3.5893,3.632,0.0,3.7629,3.8117,0.0,0.0,0.0,3.9305,3.9305,3.9305,0.0,0.0,3.9305,3.9834,4.1032,4.11,4.1666,4.2846,4.2911,4.2911,4.2911,4.2911,4.2911,4.2911,4.2911,4.2911,4.2911,4.2911,4.2911,4.2911,4.2911,4.2911,4.2911,4.2911,4.2911,4.2911,4.2911,4.2911,4.2911,4.2911,4.2911,4.2911,0.0,0.0,0.0,0.0,0.0,0.0,0.0,0.0,0.0,0.0,0.0,0.0,0.0,0.0,0.0,0.0,0.0,0.0,0.0,2.5495,2.6002,2.599,2.6568,2.7162,2.7676,2.8356,2.8969,2.9499,3.0178,3.0653,3.092,3.1522,3.1983,3.2309,3.2599,3.2879,3.3127,3.2825,3.2721,0.0,0.0,3.22,3.22,3.22,3.22,3.22,3.22,3.22,3.22,0.0,0.0,3.22,3.22,3.2612,3.3156,3.3376,0.0,3.4856,3.512,3.5445,3.569,3.569,3.569,3.5622,3.5378,3.531,3.5228,3.4971,3.4857,0.0,0.0,0.0,0.0,0.0,0.0,0.0,3.6893,3.7565,3.8225,0.0,3.9142,0.0,3.9305,3.9305,3.9305,0.0,3.9305,3.9834,4.1032,4.11,4.1666,4.2846,4.2911,4.2911,4.2911,4.2911,4.2911,4.2911,4.2911,4.2911,4.2911,4.2911,4.2911,4.2911,0.0,4.2911,4.2911,4.2911,4.2911,4.2911,4.2911,4.2911,4.2911,4.2911,4.2911,4.2911,0.0,0.0,0.0,0.0,0.0,0.0,0.0,0.0,0.0,0.0,2.0352,2.092,0.0,0.0,0.0,0.0,0.0,0.0,0.0,0.0,2.5549,2.5968,2.5934,2.6389,2.7447,2.7623,2.8207,2.9255,2.9417,2.977,3.0296,3.0893,3.1178,3.1192,3.1739,3.1956,3.1956,3.1956,3.1956,3.1956,3.1956,3.1956,3.1956,0.0,3.1956,3.197,3.2051,3.2132,3.22,3.22,3.22,3.22,3.22,3.2612,3.3224,3.3731,3.4328,3.4944,3.554,3.5635,3.5581,3.5581,3.5513,3.5323,3.4788,3.468,3.4511,3.3977,0.0,3.3799,3.4271,3.4273,3.438,3.4906,0.0,3.558,3.6213,3.698,3.7681,3.8334,3.8939,3.9305,3.9305,3.9305,3.9305,3.9305,3.9305,3.9834,4.1032,4.11,4.1666,4.2846,4.2911,4.2911,4.2911,4.2911,4.2911,4.2911,4.2911,4.2911,4.2911,4.2911,4.2911,4.2911,4.2911,0.0,4.2911,4.2911,4.2911,4.2911,4.2911,4.2911,4.2911,4.2911,4.2911,4.2911,0.0,0.0,0.0,0.0,0.0,0.0,0.0,0.0,0.0,0.0,2.0669,2.092,0.0,0.0,0.0,0.0,0.0,0.0,0.0,0.0,0.0,2.5339,2.5716,2.5996,2.6214,2.7189,2.78,2.8017,2.901,2.9553,2.9675,3.0269,3.0568,3.0568,3.0676,3.0717,3.0717,3.0717,3.0717,3.0717,3.0717,3.0717,3.0717,3.0717,0.0,0.0,3.1273,3.1779,3.22,3.22,3.22,3.22,3.22,3.2612,3.3224,3.3731,3.4328,3.4944,3.554,3.5337,3.4971,3.4971,3.4572,3.4179,3.4084,3.396,0.0,0.0,3.3593,3.3484,3.3572,3.3926,3.4226,3.4353,0.0,0.0,0.0,0.0,3.7545,0.0,0.0,0.0,0.0,0.0,0.0,0.0,0.0,3.9834,4.1032,4.11,4.1666,4.2846,4.2911,4.2911,4.2911,4.2911,4.2911,4.2911,4.2911,4.2911,4.2911,4.2911,4.2911,4.2911,4.2911,0.0,4.2911,4.2911,4.2911,4.2911,4.2911,4.2911,4.2911,4.2911,4.2911,4.2911,0.0,0.0,0.0,0.0,0.0,0.0,0.0,1.9532,1.9522,1.9841,2.0537,2.1071,2.1248,2.2068,2.252,0.0,0.0,0.0,0.0,0.0,0.0,2.5342,2.5475,2.5647,2.5888,2.647,0.0,0.0,0.0,2.8725,2.9051,0.0,0.0,2.996,3.0269,3.0388,3.0388,3.0388,3.0388,3.0388,3.0388,3.0388,3.0388,0.0,0.0,0.0,0.0,3.1219,3.1739,3.1739,3.1942,3.22,3.22,3.2612,3.3156,3.3403,3.3886,3.4395,3.468,3.4545,3.4328,3.4328,3.4066,3.3711,3.3395,0.0,0.0,0.0,3.244,3.2387,3.2673,0.0,0.0,0.0,0.0,0.0,0.0,0.0,0.0,0.0,0.0,0.0,0.0,0.0,0.0,0.0,0.0,4.016,4.1046,4.1707,4.2304,4.2873,4.2911,4.2911,4.2911,4.2911,4.2911,4.2911,4.2911,4.2911,4.2911,4.2911,4.2911,4.2911,4.2911,0.0,4.2911,4.2911,4.2911,4.2911,4.2911,4.2911,4.2911,4.2911,4.2911,4.2911,0.0,0.0,0.0,0.0,0.0,0.0,1.9504,1.9532,1.9454,1.9595,2.041,2.1218,2.1787,2.231,2.2543,0.0,0.0,0.0,0.0,0.0,0.0,0.0,0.0,0.0,0.0,0.0,0.0,0.0,0.0,0.0,0.0,0.0,0.0,0.0,0.0,0.0,3.0011,3.0011,3.0011,0.0,0.0,3.0011,0.0,0.0,0.0,0.0,0.0,3.0595,3.111,3.111,3.1522,3.201,3.201,3.2418,3.2938,3.3061,3.339,3.3745,3.388,3.3774,3.3661,3.3661,3.3451,3.3135,3.2646,3.2401,0.0,0.0,3.1379,3.1361,3.179,0.0,3.2137,0.0,3.3637,0.0,0.0,0.0,0.0,0.0,0.0,0.0,0.0,0.0,0.0,0.0,0.0,0.0,4.1249,4.2304,4.2911,4.2911,4.2911,4.2911,4.2911,4.2911,4.2911,4.2911,4.2911,4.2911,4.2911,4.2911,4.2911,4.2911,4.2911,0.0,0.0,4.2911,4.2911,4.2911,4.2911,4.2911,4.2911,4.2911,4.2911,4.2911,0.0,0.0,0.0,0.0,0.0,0.0,1.9504,1.9532,1.9625,2.0233,2.0708,2.1249,2.1906,2.2355,2.2543,0.0,0.0,0.0,0.0,0.0,0.0,0.0,0.0,0.0,0.0,0.0,0.0,0.0,0.0,0.0,0.0,0.0,0.0,0.0,0.0,0.0,0.0,2.8779,0.0,0.0,0.0,0.0,0.0,0.0,0.0,0.0,0.0,2.9957,3.0486,0.0,0.0,3.1368,3.1368,3.1807,3.2377,3.2938,0.0,0.0,3.3758,3.3401,3.2901,3.2901,3.2343,3.1793,3.1721,0.0,0.0,3.1341,3.1174,3.1037,3.1089,3.1483,3.2026,0.0,3.3254,3.3906,0.0,0.0,0.0,0.0,0.0,0.0,0.0,0.0,0.0,0.0,0.0,0.0,4.1896,4.2534,4.2911,4.2911,4.2911,4.2911,4.2911,4.2911,4.2911,4.2911,4.2911,4.2911,4.2911,4.2911,4.2911,4.2911,4.2911,0.0,0.0,4.2911,4.2911,4.2911,4.2911,4.2911,4.2911,4.2911,4.2911,4.2911,0.0,0.0,0.0,0.0,0.0,0.0,1.9504,1.9532,1.9498,1.9757,2.0508,2.109,2.1376,2.218,2.2664,2.252,2.2324,0.0,0.0,0.0,0.0,0.0,0.0,0.0,0.0,0.0,0.0,0.0,0.0,0.0,0.0,0.0,0.0,0.0,0.0,0.0,0.0,0.0,0.0,0.0,0.0,0.0,0.0,0.0,0.0,0.0,0.0,0.0,0.0,0.0,0.0,0.0,3.0469,3.0613,0.0,0.0,3.2466,3.2423,3.2634,3.2377,3.2086,3.2086,3.175,3.1416,3.1416,0.0,3.1104,3.1104,3.1061,3.1005,3.1005,3.1169,3.1627,3.2542,3.2894,3.3405,3.4425,0.0,0.0,0.0,0.0,0.0,0.0,0.0,0.0,0.0,0.0,0.0,4.248,4.2765,4.2911,4.2911,4.2911,4.2911,4.2911,4.2911,4.2911,4.2911,4.2911,4.2911,4.2911,4.2911,4.2911,4.2911,4.2911,0.0,0.0,4.2911,4.2911,4.2911,4.2911,4.2911,4.2911,4.2911,4.2911,4.2911,0.0,0.0,0.0,0.0,0.0,1.8147,1.9504,1.9532,1.9395,1.9395,2.0177,2.0799,2.0984,2.1896,2.2545,2.2649,2.2405,0.0,0.0,0.0,0.0,0.0,0.0,0.0,0.0,0.0,2.5407,2.5701,2.5878,0.0,0.0,0.0,0.0,0.0,0.0,0.0,0.0,0.0,0.0,0.0,0.0,0.0,0.0,0.0,0.0,0.0,0.0,0.0,0.0,0.0,0.0,0.0,2.9661,2.9747,3.0133,0.0,3.1658,3.1589,3.1763,3.1669,3.1503,3.1503,3.136,3.1216,0.0,3.1099,3.1005,3.1005,3.1005,3.1005,3.1005,3.1005,3.1384,3.2502,3.2685,3.3111,3.4241,3.5844,0.0,0.0,0.0,0.0,0.0,0.0,0.0,0.0,0.0,0.0,0.0,4.2911,4.2911,4.2911,4.2911,4.2911,4.2911,4.2911,4.2911,4.2911,4.2911,4.2911,4.2911,4.2911,4.2911,4.2911,4.2911,0.0,0.0,4.2911,4.2911,4.2911,4.2911,4.2911,4.2911,4.2911,4.2911,4.2911,0.0,0.0,0.0,0.0,0.0,1.8147,1.9504,1.9532,1.9395,1.9395,1.9812,2.0335,2.093,2.1477,2.2078,2.274,2.2549,0.0,0.0,0.0,0.0,0.0,0.0,0.0,2.5688,2.5564,2.5397,2.5216,2.5804,2.6033,2.5914,0.0,0.0,0.0,0.0,0.0,0.0,0.0,0.0,0.0,0.0,0.0,0.0,0.0,0.0,0.0,0.0,0.0,0.0,0.0,0.0,0.0,0.0,2.9426,3.0001,3.0566,3.0721,3.0841,3.1436,3.1466,3.131,3.131,3.1142,3.1005,3.1005,3.1005,3.1005,3.1005,3.1005,3.1005,3.1005,3.1005,3.1384,3.2502,3.2685,3.3111,3.4241,3.5844,0.0,0.0,0.0,0.0,0.0,0.0,0.0,0.0,0.0,0.0,0.0,4.2911,4.2911,4.2911,4.2911,4.2911,4.2911,4.2911,4.2911,4.2911,4.2911,4.2911,4.2911,4.2911,4.2911,0.0,0.0,0.0,0.0,4.2911,4.2911,4.2911,4.2911,4.2911,4.2911,4.2911,4.2911,4.2911,0.0,0.0,0.0,0.0,0.0,0.0,1.9504,1.9532,1.9395,1.9395,1.9812,2.032,2.093,2.1566,2.2178,2.2752,2.2546,0.0,0.0,0.0,0.0,0.0,0.0,0.0,2.5074,2.5452,2.555,2.5411,2.5463,2.5461,2.5432,2.5944,2.6185,2.6199,2.6618,2.6793,0.0,2.6793,0.0,0.0,0.0,0.0,0.0,0.0,0.0,0.0,0.0,0.0,0.0,0.0,0.0,0.0,0.0,0.0,0.0,2.8973,2.9509,2.9985,3.0183,3.0093,2.9918,2.9918,2.9895,2.9841,2.9841,3.0124,3.038,3.038,3.0712,3.1005,3.1005,3.1005,3.1384,3.2502,3.2685,3.3111,0.0,0.0,0.0,0.0,0.0,0.0,0.0,0.0,0.0,0.0,0.0,0.0,0.0,4.2911,4.2911,4.2911,4.2911,4.2911,4.2911,4.2911,4.2911,4.2911,4.2911,4.2911,4.2911,4.2911,4.2911,0.0,0.0,0.0,0.0,4.2911,4.2911,4.2911,4.2911,4.2911,4.2911,4.2911,4.2911,4.2911,0.0,0.0,0.0,0.0,0.0,0.0,1.9122,1.9342,1.9385,1.9367,1.9559,1.9957,2.0596,2.1245,2.1856,2.2444,2.2535,0.0,0.0,0.0,0.0,0.0,0.0,0.0,2.4861,2.5476,2.5716,2.5578,2.5453,2.5356,2.5313,2.5528,2.5648,2.5647,2.5983,2.6116,0.0,2.6116,0.0,0.0,0.0,0.0,2.6157,0.0,0.0,0.0,0.0,0.0,0.0,0.0,0.0,0.0,0.0,0.0,0.0,0.0,2.8253,2.8921,2.9355,2.9398,2.9292,2.9292,2.9292,2.9358,2.9549,2.9857,3.0153,3.0393,3.0738,3.1005,3.1005,3.1169,3.1614,3.2561,3.2881,3.3471,3.468,0.0,0.0,0.0,0.0,0.0,0.0,0.0,0.0,0.0,0.0,0.0,4.2873,4.2911,4.2911,4.2911,4.2911,4.2911,4.2911,4.2911,4.2911,4.2911,4.2911,4.2911,4.2911,4.2911,4.2911,0.0,0.0,0.0,0.0,4.2911,4.2911,4.2911,4.2911,4.2911,4.2911,4.2911,4.2911,4.2911,0.0,0.0,0.0,0.0,0.0,0.0,0.0,1.9045,1.9367,1.9311,1.9176,1.9362,2.003,2.0596,2.122,2.1942,2.2444,0.0,0.0,0.0,0.0,0.0,0.0,2.4303,2.4922,2.5527,2.5797,2.5715,2.5702,2.5633,2.5508,2.5314,2.5216,2.5188,2.5075,2.5005,2.5005,2.5005,0.0,0.0,2.5005,2.5005,0.0,0.0,0.0,0.0,0.0,0.0,0.0,0.0,0.0,0.0,0.0,0.0,0.0,0.0,0.0,0.0,0.0,2.9174,2.9174,2.9174,2.9174,2.9301,2.9871,3.0009,0.0,3.0803,3.0979,3.1018,3.1057,3.1464,3.2006,3.2659,3.3221,3.4082,3.5416,0.0,0.0,0.0,0.0,0.0,0.0,0.0,0.0,0.0,0.0,0.0,4.2911,4.2911,4.2911,4.2911,4.2911,4.2911,4.2911,4.2911,4.2911,4.2911,4.2911,4.2911,4.2911,4.2911,4.2911,0.0,0.0,0.0,0.0,4.2911,4.2911,4.2911,4.2911,4.2911,4.2911,4.2911,4.2911,4.2911,0.0,0.0,0.0,0.0,0.0,0.0,0.0,0.0,0.0,0.0,1.9176,1.9362,2.003,2.0233,2.077,0.0,0.0,0.0,0.0,0.0,0.0,0.0,2.2997,2.3642,2.4302,2.4908,2.5416,2.5852,2.5757,2.5688,2.5661,2.5495,2.5355,2.5202,2.5174,2.5104,2.5005,2.5005,0.0,0.0,2.5005,2.5005,0.0,0.0,0.0,0.0,2.537,2.5238,0.0,0.0,0.0,0.0,0.0,0.0,0.0,0.0,2.6781,2.7043,2.7729,0.0,2.7924,2.7924,2.7924,2.8081,0.0,2.9157,2.964,0.0,0.0,3.1117,3.1542,3.1706,3.2137,3.3208,3.3496,3.4082,3.5416,0.0,0.0,0.0,0.0,0.0,0.0,0.0,0.0,0.0,0.0,4.2911,4.2911,4.2911,4.2911,4.2911,4.2911,4.2911,4.2911,4.2911,4.2911,4.2911,4.2911,4.2911,4.2911,4.2911,4.2911,0.0,0.0,0.0,4.2911,4.2911,4.2911,4.2911,4.2911,4.2911,4.2911,4.2911,4.2911,4.2911,0.0,0.0,0.0,0.0,0.0,0.0,0.0,0.0,0.0,0.0,1.9148,1.9232,1.9595,1.9914,2.0378,0.0,0.0,0.0,0.0,0.0,0.0,2.2208,2.2786,2.3405,2.4091,2.4683,2.5303,2.5893,2.5825,2.5784,2.5784,2.5647,2.5536,2.5425,2.5272,2.5132,2.5005,2.5005,0.0,0.0,2.5005,0.0,0.0,0.0,0.0,0.0,2.4489,2.4403,0.0,2.4842,2.4836,2.465,0.0,0.0,0.0,0.0,2.6287,2.6755,2.7053,2.7311,2.749,2.749,2.7715,2.8072,2.8678,2.9248,0.0,0.0,0.0,3.1156,3.1693,3.2039,3.2509,3.3443,3.4121,3.5044,0.0,0.0,0.0,0.0,0.0,0.0,0.0,0.0,0.0,0.0,0.0,4.2911,4.2911,4.2911,4.2911,4.2911,4.2911,4.2911,4.2911,4.2911,4.2911,4.2911,4.2911,4.2911,4.2911,4.2911,4.2911,0.0,0.0,0.0,4.2911,4.2911,4.2911,4.2911,4.2911,4.2911,4.2911,4.2911,4.2911,4.2911,0.0,0.0,0.0,0.0,0.0,0.0,0.0,0.0,0.0,0.0,0.0,0.0,0.0,0.0,0.0,0.0,0.0,0.0,0.0,0.0,2.2366,2.2208,2.2688,2.3278,2.3923,2.4542,2.5148,2.5766,2.5837,2.5893,2.5893,2.5784,2.5715,2.5688,2.5356,2.5146,2.502,2.491,2.4855,0.0,2.476,0.0,0.0,0.0,0.0,0.0,0.0,0.0,0.0,2.4165,2.4177,2.3996,2.3967,0.0,0.0,0.0,0.0,0.0,2.668,2.7092,2.749,2.749,2.7954,2.856,2.9161,2.9701,0.0,0.0,0.0,0.0,0.0,0.0,0.0,3.3744,3.5008,3.643,0.0,0.0,0.0,0.0,0.0,0.0,0.0,0.0,0.0,0.0,0.0,4.2911,4.2911,4.2911,4.2911,4.2911,4.2911,4.2911,4.2911,4.2911,4.2911,4.2911,4.2911,4.2911,4.2911,4.2911,4.2911,4.2911,0.0,0.0,4.2911,4.2911,4.2911,4.2911,4.2911,4.2911,4.2911,4.2911,4.2911,4.2911,0.0,0.0,0.0,0.0,0.0,0.0,0.0,0.0,0.0,0.0,0.0,0.0,0.0,0.0,0.0,0.0,0.0,0.0,0.0,2.1641,2.1824,2.218,2.228,2.2632,2.3236,2.3895,2.4528,2.5134,2.5654,2.5893,2.5893,2.588,2.5811,2.5688,2.5356,2.5188,2.5119,2.4503,2.4245,2.4191,2.3689,0.0,0.0,0.0,0.0,0.0,0.0,0.0,0.0,2.3071,2.3266,2.3482,2.3368,0.0,0.0,0.0,0.0,0.0,2.6559,2.7092,2.749,2.749,2.7954,2.856,2.9161,2.9701,3.0275,0.0,0.0,0.0,0.0,0.0,0.0,0.0,0.0,3.7549,0.0,0.0,0.0,0.0,0.0,0.0,0.0,0.0,0.0,0.0,0.0,4.2911,4.2911,4.2911,4.2911,4.2911,4.2911,4.2911,4.2911,4.2911,4.2911,4.2911,4.2911,4.2911,4.2911,4.2911,4.2911,4.2911,0.0,4.2911,4.2911,4.2911,4.2911,4.2911,4.2911,4.2911,4.2911,4.2911,4.2911,4.2911,0.0,0.0,0.0,0.0,0.0,0.0,0.0,0.0,0.0,0.0,0.0,0.0,0.0,0.0,0.0,0.0,0.0,0.0,2.0962,2.1316,2.1716,2.218,2.2208,2.2477,2.3083,2.3755,2.4388,2.5006,2.5598,2.5893,2.5893,2.5893,2.5825,2.5674,2.5121,2.4819,2.4669,2.3933,2.3608,2.3594,0.0,0.0,0.0,0.0,0.0,0.0,0.0,0.0,0.0,0.0,2.2869,2.2984,2.3147,0.0,0.0,0.0,0.0,0.0,2.6059,2.6634,2.721,2.7837,2.8438,2.9031,2.9614,3.0189,0.0,0.0,0.0,0.0,0.0,0.0,0.0,0.0,0.0,0.0,0.0,0.0,0.0,0.0,0.0,0.0,0.0,0.0,0.0,0.0,0.0,0.0,4.2911,4.2911,4.2911,4.2911,4.2911,4.2911,4.2911,4.2911,4.2911,4.2911,4.2911,4.2911,4.2911,4.2911,4.2911,4.2911,0.0,4.2911,4.2911,4.2911,4.2911,4.2911,4.2911,4.2911,4.2911,4.2911,4.2911,4.2911,0.0,0.0,0.0,0.0,0.0,0.0,0.0,0.0,0.0,0.0,0.0,0.0,0.0,0.0,0.0,0.0,0.0,0.0,2.0263,2.0879,2.147,2.1969,2.2123,2.2421,2.2885,2.353,2.4092,2.4558,2.5317,2.5766,2.5893,2.5893,2.5782,2.5505,2.487,2.4432,2.4093,2.3321,2.2998,2.2984,0.0,0.0,0.0,0.0,0.0,0.0,0.0,0.0,0.0,0.0,0.0,0.0,0.0,0.0,0.0,2.3758,2.4428,2.5123,2.5652,2.6242,2.702,2.8285,2.8952,2.9431,2.9988,0.0,0.0,0.0,0.0,0.0,0.0,0.0,0.0,0.0,0.0,0.0,0.0,0.0,0.0,0.0,0.0,0.0,0.0,0.0,0.0,0.0,0.0,0.0,4.2911,4.2911,4.2911,4.2911,4.2911,4.2911,4.2911,4.2911,4.2911,4.2911,4.2911,4.2911,4.2911,4.2911,4.2911,4.2911,4.2911,4.2911,4.2911,4.2911,4.2911,4.2911,4.2911,4.2911,4.2911,4.2911,4.2911,4.2911,0.0,0.0,0.0,0.0,0.0,0.0,0.0,0.0,0.0,0.0,0.0,0.0,0.0,0.0,0.0,0.0,0.0,0.0,1.9622,2.0168,2.0745,2.1333,2.1898,2.2222,2.2264,2.2871,2.3182,2.325,2.4459,2.5345,2.5893,2.5893,2.5598,2.505,2.4729,2.425,2.3591,2.2732,2.236,2.2319,2.1738,0.0,0.0,0.0,0.0,0.0,0.0,0.0,0.0,0.0,0.0,0.0,0.0,0.0,2.3209,2.3249,2.4086,2.5123,2.5652,2.6242,2.7108,2.8808,2.9266,0.0,2.9988,3.0949,0.0,3.1797,0.0,0.0,0.0,0.0,0.0,0.0,0.0,0.0,0.0,0.0,0.0,0.0,0.0,0.0,0.0,0.0,0.0,0.0,0.0,0.0,4.2911,4.2911,4.2911,4.2911,4.2911,4.2911,4.2911,4.2911,4.2911,4.2911,4.2911,4.2911,4.2911,4.2911,4.2911,4.2911,4.2911,4.2911,4.2911,4.2911,4.2911,4.2911,4.2911,4.2911,4.2911,4.2911,4.2911,4.2911,0.0,0.0,0.0,0.0,0.0,0.0,0.0,0.0,0.0,0.0,0.0,0.0,0.0,0.0,0.0,0.0,0.0,1.8922,1.9439,1.9669,2.0221,2.1262,2.153,2.1814,2.2194,2.2786,2.3097,2.3097,2.4008,2.4556,2.4781,2.4781,2.4655,2.4403,2.3716,2.3284,2.297,2.2118,2.1736,2.1723,2.1492,2.1399,0.0,0.0,0.0,0.0,0.0,0.0,0.0,0.0,2.1142,2.1357,2.1471,2.2047,2.2767,2.3092,2.3784,2.4648,2.556,2.5965,2.6648,2.8769,2.9292,0.0,0.0,3.1255,3.1902,3.2274,0.0,0.0,0.0,0.0,0.0,0.0,0.0,0.0,0.0,0.0,0.0,0.0,0.0,0.0,0.0,0.0,0.0,0.0,0.0,0.0,4.2911,4.2911,4.2911,4.2911,4.2911,4.2911,4.2911,4.2911,4.2911,4.2911,4.2911,4.2911,4.2911,4.2911,4.2911,4.2911,4.2911,4.2911,4.2911,4.2911,4.2911,4.2911,4.2911,4.2911,4.2911,4.2911,4.2911,4.2911,0.0,0.0,0.0,0.0,0.0,0.0,0.0,0.0,0.0,0.0,0.0,0.0,0.0,0.0,0.0,0.0,1.8634,1.8769,1.9087,1.9288,1.9789,2.0664,2.1094,2.1488,2.1912,2.2505,2.2829,2.2829,2.3473,2.3881,2.4105,2.4105,2.3992,2.3756,2.3009,2.2594,2.2363,2.1683,2.1399,2.1399,2.1399,2.1399,0.0,0.0,0.0,0.0,0.0,0.0,0.0,0.0,2.0862,2.1026,2.1196,2.1642,2.2218,2.2778,2.3366,2.4111,2.5443,2.5809,2.6357,2.8717,0.0,0.0,3.0947,3.1673,3.2261,3.2855,0.0,0.0,0.0,0.0,0.0,0.0,0.0,0.0,0.0,0.0,0.0,0.0,0.0,0.0,0.0,0.0,0.0,0.0,0.0,0.0,0.0,4.2911,4.2911,4.2911,4.2911,4.2911,4.2911,4.2911,4.2911,4.2911,4.2911,4.2911,4.2911,4.2911,4.2911,4.2911,4.2911,4.2911,4.2911,4.2911,4.2911,4.2911,4.2911,4.2911,4.2911,4.2911,4.2911,4.2911,0.0,0.0,0.0,0.0,0.0,0.0,0.0,0.0,1.5992,1.5992,1.6983,0.0,0.0,0.0,0.0,0.0,1.8498,1.8498,1.8498,1.9063,1.9386,1.94,2.0608,2.1291,2.1305,2.1884,2.2208,2.2208,2.28,2.3433,2.4077,2.4077,2.3727,2.3083,2.2814,2.2359,2.1769,2.152,2.1399,2.1399,2.1399,2.1399,2.1331,0.0,0.0,0.0,0.0,0.0,0.0,0.0,2.0553,2.0959,2.0761,2.1054,2.1616,2.2217,2.2778,2.3575,2.5338,2.5809,2.6357,0.0,0.0,0.0,3.1419,3.2261,3.2868,3.3483,0.0,0.0,0.0,0.0,0.0,0.0,0.0,0.0,0.0,0.0,0.0,0.0,0.0,0.0,0.0,0.0,0.0,0.0,0.0,0.0,0.0,4.2911,4.2911,4.2911,4.2911,4.2911,4.2911,4.2911,4.2911,4.2911,4.2911,4.2911,4.2911,4.2911,4.2911,4.2911,4.2911,4.2911,4.2911,4.2911,4.2911,4.2911,4.2911,4.2911,4.2911,4.2911,4.2911,4.2911,0.0,0.0,0.0,0.0,0.0,0.0,0.0,0.0,1.531,1.5731,1.6498,0.0,0.0,0.0,0.0,0.0,0.0,0.0,1.8498,1.8666,1.8951,1.9386,1.9761,2.0386,2.1276,2.1884,2.2208,2.2208,2.2379,2.2561,2.2756,2.2756,2.261,2.2321,2.2142,2.1925,2.1652,2.1471,2.1399,2.1399,2.1399,2.1155,2.075,0.0,0.0,0.0,0.0,0.0,0.0,0.0,0.0,0.0,2.0158,2.0727,2.1616,2.2217,2.2778,2.3575,2.5338,2.5809,0.0,0.0,0.0,0.0,0.0,3.2261,0.0,0.0,0.0,0.0,0.0,0.0,0.0,0.0,0.0,0.0,0.0,0.0,0.0,0.0,0.0,0.0,0.0,0.0,0.0,0.0,0.0,0.0,0.0,4.2911,4.2911,4.2911,4.2911,4.2911,4.2911,4.2911,4.2911,4.2911,4.2911,4.2911,4.2911,4.2911,4.2911,4.2911,4.2911,4.2911,4.2911,4.2911,4.2911,4.2911,4.2911,4.2911,4.2911,4.2911,4.2911,4.2911,0.0,0.0,0.0,0.0,0.0,0.0,0.0,0.0,1.4927,1.5284,1.5896,1.6536,0.0,0.0,0.0,0.0,0.0,0.0,1.8498,1.8498,1.8666,1.9021,1.9253,1.981,2.0756,2.1371,2.1692,2.1692,2.2035,2.2173,2.2126,2.2126,2.2055,2.1914,2.1769,2.1688,2.1592,2.1459,2.1399,2.1372,2.1141,2.0818,2.0452,0.0,0.0,0.0,0.0,0.0,0.0,0.0,0.0,0.0,1.9883,2.044,2.1302,2.1864,2.2439,2.321,2.4711,0.0,0.0,0.0,0.0,0.0,0.0,0.0,0.0,0.0,0.0,0.0,0.0,0.0,0.0,0.0,0.0,0.0,0.0,0.0,0.0,0.0,0.0,0.0,0.0,0.0,0.0,0.0,0.0,0.0,0.0,4.2911,4.2911,4.2911,4.2911,4.2911,4.2911,4.2911,4.2911,4.2911,4.2911,4.2911,4.2911,4.2911,4.2911,4.2911,4.2911,4.2911,4.2911,4.2911,4.2911,4.2911,4.2911,4.2911,4.2911,4.2911,4.2911,4.2911,0.0,0.0,1.47,1.4755,0.0,0.0,0.0,0.0,1.4763,1.4763,1.5296,1.5927,0.0,0.0,0.0,0.0,0.0,0.0,1.8469,1.8469,1.8469,1.8469,1.8996,1.9475,1.9901,2.0509,2.084,2.0896,2.1748,2.2102,2.1985,2.1985,2.1914,2.1769,2.1652,2.1592,2.158,2.1459,2.1399,2.1345,2.0791,2.052,2.0303,1.9288,0.0,0.0,0.0,0.0,0.0,0.0,0.0,0.0,1.9804,2.0177,2.0804,2.1342,2.193,2.265,2.3784,0.0,0.0,0.0,0.0,0.0,0.0,0.0,0.0,0.0,0.0,0.0,0.0,0.0,0.0,0.0,0.0,0.0,0.0,0.0,0.0,0.0,0.0,0.0,0.0,0.0,0.0,0.0,0.0,0.0,0.0,4.2911,4.2911,4.2911,4.2911,4.2911,4.2911,4.2911,4.2911,4.2911,4.2911,4.2911,4.2911,4.2911,4.2911,4.2911,4.2911,4.2911,4.2911,4.2911,4.2911,4.2911,4.2911,4.2911,4.2911,4.2911,4.2911,4.2911,0.0,0.0,1.4555,1.4562,0.0,0.0,0.0,0.0,0.0,1.4562,0.0,0.0,0.0,0.0,0.0,0.0,0.0,0.0,0.0,1.8262,1.8262,1.8262,1.8834,1.9187,1.9293,1.9874,2.0426,2.0896,2.1562,2.1864,2.1829,2.1829,2.1758,2.1652,2.1616,2.1544,2.1447,2.1411,2.1399,2.1385,2.1263,2.0667,1.9849,1.9591,1.8921,0.0,0.0,0.0,0.0,0.0,0.0,0.0,1.9188,1.9824,2.0804,2.1342,2.193,2.265,2.3784,2.4933,0.0,0.0,0.0,0.0,0.0,0.0,0.0,0.0,0.0,0.0,0.0,0.0,0.0,0.0,0.0,0.0,0.0,0.0,0.0,0.0,0.0,0.0,0.0,0.0,0.0,0.0,0.0,0.0,4.2911,4.2911,4.2911,4.2911,4.2911,4.2911,4.2911,4.2911,4.2911,0.0,4.2911,4.2911,4.2911,4.2911,4.2911,4.2911,4.2911,4.2911,4.2911,4.2911,4.2911,4.2911,4.2911,4.2911,4.2911,4.2911,4.2911,4.2911,0.0,0.0,0.0,0.0,0.0,0.0,0.0,0.0,0.0,0.0,0.0,0.0,0.0,0.0,0.0,0.0,0.0,0.0,0.0,1.8202,1.8169,1.8105,1.8408,1.8566,1.8529,1.9129,1.9581,1.9897,2.0765,2.1352,2.1712,2.1712,2.164,2.1508,2.1508,2.1471,2.1399,2.1399,2.1399,2.1372,2.1087,2.0613,2.0044,1.9809,1.9127,1.8323,1.8323,0.0,0.0,0.0,0.0,0.0,0.0,0.0,2.0752,2.1028,2.1721,2.2531,2.3118,0.0,0.0,0.0,0.0,0.0,0.0,0.0,0.0,0.0,0.0,0.0,0.0,0.0,0.0,0.0,0.0,0.0,0.0,0.0,0.0,0.0,0.0,0.0,0.0,0.0,0.0,0.0,0.0,4.2911,4.2911,4.2911,4.2911,4.2911,4.2911,4.2911,4.2911,4.2602,4.2466,4.2466,4.2181,4.2195,4.248,4.2765,4.2911,4.2911,4.2911,4.2911,4.2911,4.2911,4.2911,4.2911,4.2911,4.2911,4.2911,4.2911,4.2911,4.2911,0.0,0.0,0.0,0.0,0.0,0.0,0.0,0.0,0.0,0.0,0.0,0.0,0.0,0.0,0.0,0.0,0.0,0.0,0.0,0.0,0.0,1.7992,1.7982,1.7955,1.7902,1.8388,1.8701,1.8796,1.9743,2.0576,2.1279,2.1472,2.152,2.1399,2.1399,2.1399,2.1399,2.1399,2.1399,2.1358,2.087,2.0588,2.0452,2.0014,1.948,1.8948,1.8937,1.8527,1.7998,1.7836,0.0,0.0,0.0,0.0,2.0699,2.0699,2.1433,2.2269,2.2374,0.0,2.5513,0.0,0.0,0.0,0.0,0.0,0.0,0.0,0.0,0.0,0.0,0.0,0.0,0.0,0.0,0.0,0.0,0.0,0.0,0.0,0.0,0.0,0.0,0.0,0.0,0.0,0.0,4.2527,4.2527,4.2551,4.2588,4.2588,4.2588,4.2588,4.2588,4.2086,4.1842,4.1842,4.1425,4.1507,4.2019,4.2616,4.2911,4.2911,4.2911,4.2911,4.2911,4.2911,4.2911,4.2911,4.2911,4.2911,4.2911,4.2911,4.2911,4.2911,0.0,0.0,0.0,0.0,0.0,0.0,0.0,0.0,0.0,0.0,1.4327,1.4754,0.0,1.6091,1.659,1.7715,1.7888,1.7942,1.7942,0.0,0.0,1.7909,1.7909,1.7912,1.7902,1.7984,1.8282,1.8796,1.8948,1.9342,1.998,2.096,2.1423,2.1399,2.1399,2.1399,2.1399,2.1399,2.1399,2.1385,2.1304,2.0979,2.0493,2.0412,2.0044,1.9553,1.9451,1.9339,1.9217,1.8974,1.9331,0.0,0.0,0.0,2.0699,2.0699,2.1132,2.172,0.0,0.0,2.5978,0.0,0.0,0.0,0.0,0.0,0.0,0.0,0.0,0.0,0.0,0.0,0.0,0.0,0.0,0.0,0.0,0.0,0.0,0.0,0.0,0.0,0.0,0.0,0.0,0.0,4.0851,4.0985,4.0985,4.12,4.133,4.133,4.133,4.133,4.133,4.1249,4.1208,4.1222,4.1679,4.1924,4.2019,4.2616,4.2911,4.2911,4.2911,4.2911,4.2911,4.2911,4.2911,4.2911,4.2911,4.2911,4.2911,4.2911,4.2911,4.2911,0.0,0.0,0.0,0.0,0.0,0.0,0.0,0.0,0.0,0.0,0.0,1.5512,1.6032,1.6394,1.6824,1.7349,1.7702,1.7902,1.7902,1.7902,1.7872,1.7791,1.7791,1.7747,1.7672,1.7672,1.7807,1.8072,1.8405,1.8715,1.901,2.0182,2.0791,2.0911,2.125,2.1399,2.1399,2.1399,2.1399,2.1399,2.1399,2.1202,2.0887,2.0887,2.0513,1.9969,1.9909,1.9627,0.0,0.0,0.0,1.9883,1.9811,0.0,0.0,0.0,2.108,0.0,2.2596,2.406,2.5537,0.0,0.0,0.0,0.0,0.0,0.0,0.0,0.0,0.0,0.0,0.0,0.0,0.0,0.0,0.0,0.0,0.0,0.0,0.0,0.0,0.0,0.0,0.0,0.0,0.0,4.0288,4.0522,4.0522,4.0653,4.0713,4.0713,4.0817,4.0887,4.0887,4.0688,4.0431,4.0106,4.0703,4.1164,4.1507,4.2127,4.2575,4.2911,4.2911,4.2911,4.2911,4.2911,4.2911,4.2911,4.2911,4.2911,4.2911,4.2911,4.2911,4.2911,0.0,0.0,0.0,0.0,0.0,0.0,0.0,0.0,0.0,0.0,0.0,1.6081,1.6207,0.0,0.0,0.0,1.7544,1.7798,1.7798,1.7798,1.7747,1.7645,1.7659,1.7604,1.7496,1.7496,1.7496,1.7496,1.7956,1.8179,1.8182,1.9257,1.9898,2.0236,2.0978,2.1302,2.1302,2.1302,2.1302,2.1302,2.1302,2.1241,2.1143,2.1143,2.0839,2.0405,2.0381,0.0,0.0,0.0,0.0,0.0,0.0,0.0,0.0,0.0,0.0,0.0,0.0,0.0,2.5136,2.5665,2.6654,0.0,0.0,0.0,0.0,0.0,0.0,0.0,0.0,0.0,0.0,0.0,0.0,0.0,0.0,0.0,0.0,0.0,0.0,0.0,0.0,0.0,0.0,0.0,3.9562,3.9847,3.9847,3.9917,3.9941,3.9941,4.008,4.0173,4.0173,3.9982,3.9636,3.9216,3.988,4.0513,4.1113,4.1734,4.2331,4.2911,4.2911,4.2911,4.2911,4.2911,4.2911,4.2911,4.2911,4.2911,4.2911,4.2911,4.2911,4.2911,0.0,0.0,0.0,0.0,0.0,0.0,0.0,0.0,0.0,0.0,0.0,1.6006,1.6528,1.6598,1.6857,1.7423,1.7503,1.7516,1.7516,1.7516,1.7516,1.7506,1.7506,0.0,1.7496,1.7496,1.7496,1.7496,1.7522,1.7559,1.7559,1.8206,1.8793,1.9406,2.0514,2.1008,2.1008,2.1008,2.1008,2.1008,2.1008,2.1008,2.1021,2.1021,2.0995,2.0944,0.0,0.0,0.0,0.0,0.0,0.0,0.0,0.0,0.0,0.0,0.0,0.0,0.0,2.3695,0.0,2.5665,0.0,0.0,0.0,0.0,0.0,0.0,0.0,0.0,0.0,0.0,0.0,0.0,0.0,0.0,0.0,0.0,0.0,0.0,0.0,0.0,0.0,0.0,0.0,0.0,3.8191,3.8315,3.8315,3.8569,3.8695,3.8695,3.8695,3.8718,3.8718,3.8877,3.8957,3.893,3.9798,4.0513,4.1113,4.1734,4.2331,4.2911,4.2911,4.2911,4.2911,4.2911,4.2911,4.2911,4.2911,4.2911,4.2911,4.2911,4.2911,4.2911,0.0,0.0,0.0,0.0,0.0,0.0,0.0,0.0,0.0,0.0,0.0,0.0,0.0,1.718,1.7259,1.7482,1.7496,1.7496,1.7496,1.7496,1.7478,1.743,1.7443,1.7399,1.7313,1.7313,1.7313,1.7313,1.7313,1.7313,1.7326,1.7929,1.8508,1.9087,2.0043,2.0674,2.1009,2.1009,2.1009,2.1036,2.1421,2.153,2.1493,2.1877,0.0,0.0,0.0,0.0,0.0,0.0,0.0,0.0,0.0,0.0,0.0,0.0,0.0,0.0,0.0,0.0,0.0,2.5055,2.585,0.0,0.0,0.0,0.0,0.0,0.0,0.0,0.0,0.0,0.0,0.0,0.0,0.0,0.0,0.0,0.0,0.0,0.0,0.0,0.0,0.0,0.0,0.0,0.0,3.8024,3.8024,3.8093,3.8139,3.8139,3.8272,3.843,3.8602,3.8679,3.8765,3.8908,3.9227,3.996,4.11,4.1317,4.1964,4.2911,4.2911,4.2911,4.2911,4.2911,4.2911,4.2911,4.2911,4.2911,4.2911,4.2911,4.2911,4.2911,0.0,0.0,0.0,0.0,0.0,1.5829,1.5854,1.6369,1.6744,1.6794,0.0,0.0,0.0,0.0,1.7393,1.7393,1.7393,1.7393,1.7393,1.7393,1.7375,1.7329,1.7287,1.7212,1.7126,1.7105,1.7094,1.7094,1.7094,1.7094,1.7107,1.751,1.8094,1.8823,1.9399,2.0111,2.0898,2.0898,0.0,2.1203,0.0,0.0,2.1983,0.0,0.0,0.0,0.0,0.0,0.0,0.0,0.0,0.0,0.0,0.0,0.0,0.0,0.0,0.0,2.2283,0.0,0.0,0.0,0.0,2.5652,0.0,0.0,0.0,0.0,0.0,0.0,0.0,0.0,0.0,0.0,0.0,0.0,0.0,0.0,0.0,0.0,0.0,0.0,0.0,0.0,0.0,0.0,0.0,0.0,3.79,3.79,3.79,3.79,3.8034,3.8181,3.8366,3.8444,3.853,3.8661,3.8819,3.9514,4.0673,4.0982,4.1666,4.2602,4.2806,4.2911,4.2911,4.2911,4.2911,4.2911,4.2911,4.2911,4.2911,4.2911,4.2911,4.2911,0.0,0.0,1.5503,1.5503,1.6009,1.6405,1.6405,1.6859,1.7188,1.7188,0.0,0.0,0.0,0.0,0.0,1.7188,1.7188,1.7188,1.7188,1.7188,1.7188,1.7188,1.7076,1.7002,1.7002,1.6928,1.6897,1.6897,1.6897,1.6897,1.6897,1.6897,1.7514,1.8605,1.8605,1.9389,2.0699,0.0,2.1014,2.1498,0.0,2.1903,2.2439,0.0,0.0,0.0,2.2454,2.2453,0.0,0.0,0.0,0.0,0.0,0.0,0.0,0.0,0.0,0.0,0.0,0.0,0.0,0.0,0.0,0.0,2.5903,0.0,0.0,0.0,0.0,0.0,0.0,0.0,0.0,0.0,0.0,0.0,0.0,0.0,0.0,0.0,0.0,0.0,0.0,0.0,0.0,0.0,3.7861,3.7874,3.7874,3.79,3.79,3.79,3.79,3.79,3.79,3.8089,3.8177,3.82,3.8661,3.9208,3.9826,4.07,4.1412,4.2032,4.2629,4.2911,4.2911,4.2911,4.2911,4.2911,4.2911,4.2911,4.2911,4.2911,4.2911,4.2911,0.0,1.5482,1.5862,1.5862,1.6355,1.6762,1.6762,1.6891,1.6981,0.0,0.0,0.0,1.7516,1.7554,1.7411,1.702,1.6981,1.6981,1.6981,1.6981,1.6981,1.6981,1.695,1.6928,1.6928,1.6907,1.6897,1.6897,1.6897,1.6897,1.6897,1.6897,1.7514,1.8605,1.8605,1.9244,2.0372,2.0901,0.0,0.0,2.24,2.2831,0.0,0.0,0.0,0.0,0.0,2.3627,0.0,0.0,2.2975,2.2896,0.0,0.0,0.0,0.0,0.0,0.0,2.2577,0.0,0.0,0.0,0.0,0.0,2.489,2.5724,2.6579,0.0,0.0,0.0,0.0,0.0,0.0,0.0,0.0,0.0,0.0,0.0,0.0,0.0,0.0,0.0,0.0,0.0,0.0,0.0,3.6998,3.726,3.726,3.7665,3.79,3.79,3.79,3.79,3.79,3.7969,3.8057,3.82,3.8336,3.8905,3.9826,4.0487,4.1234,4.2032,4.2629,4.2911,4.2911,4.2911,4.2911,4.2911,4.2911,4.2911,4.2911,4.2911,4.2911,4.2911,1.5526,1.5984,1.6381,1.6381,1.6671,1.6974,1.7207,1.7234,1.7311,0.0,0.0,0.0,1.7995,1.8033,1.7905,1.7584,1.7362,1.7234,1.7234,1.7027,1.6897,1.6897,1.6857,1.6825,1.6825,1.6759,1.6737,1.6737,1.6737,1.6737,1.6737,1.6737,1.7347,1.8429,1.8429,1.9063,2.0182,0.0,0.0,0.0,2.2663,0.0,0.0,2.4098,2.4384,0.0,0.0,0.0,2.4555,2.419,2.3918,0.0,0.0,0.0,0.0,0.0,0.0,0.0,0.0,0.0,0.0,0.0,0.0,0.0,2.4226,2.4811,2.5497,0.0,0.0,0.0,0.0,0.0,0.0,0.0,0.0,0.0,0.0,0.0,0.0,0.0,0.0,0.0,0.0,3.5626,3.5861,3.6083,3.6436,3.6737,3.6998,3.7338,3.7639,3.79,3.79,3.79,3.79,3.79,3.7956,3.808,3.8167,3.8603,3.934,4.0287,4.1052,4.1679,4.2521,4.2911,4.2911,4.2911,4.2911,4.2911,4.2911,4.2911,4.2911,4.2911,4.2911,4.2911,0.0,1.649,1.688,1.6944,1.6967,1.7149,1.7666,1.7755,1.7923,0.0,1.8525,1.8526,1.8474,1.8525,1.8537,1.8474,1.8037,1.7755,1.7755,1.7253,1.6957,1.6935,1.6754,1.6654,1.6643,1.6534,1.6468,1.6468,1.6468,1.6468,1.6468,1.6468,1.7069,1.8157,1.8157,1.8831,2.004,0.0,0.0,2.1921,2.2666,2.3547,0.0,0.0,2.4827,0.0,2.5294,2.5294,2.5294,2.5294,2.493,0.0,0.0,0.0,0.0,0.0,2.2468,0.0,0.0,0.0,0.0,0.0,0.0,0.0,2.3791,2.3954,2.4268,2.5222,0.0,0.0,0.0,0.0,0.0,0.0,0.0,0.0,0.0,0.0,0.0,0.0,0.0,0.0,3.4121,3.4729,3.5312,3.5796,3.594,3.6279,3.6867,3.6907,3.7181,3.7782,3.7808,3.7835,3.79,3.79,3.79,3.79,3.8067,3.8317,3.8642,3.9966,4.0749,4.1154,4.2304,4.2833,4.2911,4.2911,4.2911,4.2911,4.2911,4.2911,4.2911,4.2911,4.2911,4.2911,1.639,1.65,1.6737,1.7226,1.729,1.7479,1.8023,1.8099,1.8137,1.8238,1.8629,1.8742,1.8313,1.8641,1.8729,1.8301,1.8162,1.8099,1.8099,1.7606,1.7257,1.7142,1.6695,1.6405,1.6298,1.6264,1.6253,1.6253,1.6253,1.6253,1.6253,1.6253,1.6845,1.7882,1.7882,1.8549,1.9756,0.0,0.0,2.1718,2.3405,0.0,2.4451,2.493,2.5204,2.5294,2.5294,2.5294,2.5294,0.0,2.523,2.5083,0.0,0.0,0.0,0.0,0.0,0.0,0.0,0.0,0.0,0.0,0.0,0.0,2.3246,2.365,2.4054,0.0,0.0,0.0,0.0,0.0,0.0,0.0,0.0,0.0,0.0,0.0,0.0,0.0,0.0,0.0,3.2784,3.3472,3.3966,3.4071,3.4933,3.5691,3.6253,3.6279,3.6554,3.7155,3.7181,3.7416,3.79,3.79,3.79,3.79,3.7946,3.8184,3.8629,3.939,4.0233,4.1141,4.1869,4.2439,4.2911,4.2911,4.2911,4.2911,4.2911,4.2911,4.2911,4.2911,4.2911,4.2911,1.6351,1.6574,1.6835,1.7156,1.7418,1.7778,1.8325,1.8635,1.8896,1.9169,1.9664,1.99,1.9627,1.9838,1.9888,1.9615,1.9107,1.8796,1.8796,1.8039,1.7568,1.7498,1.6989,1.6671,1.6606,1.6335,1.62,1.62,1.62,1.62,1.62,1.62,1.6778,1.7798,1.7798,1.8573,1.9943,0.0,2.1494,2.2163,2.3619,0.0,2.4649,2.5226,2.5635,2.5931,2.6206,2.6308,2.6308,2.6308,2.5914,0.0,0.0,2.4929,2.4485,0.0,2.4189,2.3885,0.0,0.0,0.0,2.3183,0.0,0.0,0.0,2.3333,2.3637,2.3941,2.4431,0.0,0.0,0.0,0.0,0.0,0.0,0.0,0.0,0.0,0.0,0.0,0.0,0.0,3.1546,3.2435,3.3042,3.3143,3.3953,3.4685,3.5221,3.5534,3.5966,3.6541,3.6841,3.7155,3.7456,3.7756,3.79,3.79,3.79,3.8139,3.8629,3.9224,4.0079,4.1127,4.1747,4.2344,4.2911,4.2911,4.2911,4.2911,4.2911,4.2911,4.2911,4.2911,4.2911,4.2911,1.6361,1.679,1.7196,1.7294,1.7675,1.8167,1.8818,1.9284,1.9751,2.0278,2.0732,2.1002,2.1002,2.1002,2.1002,2.1002,2.0204,1.9713,1.9713,1.8707,1.8093,1.8069,1.7456,1.7052,1.6919,1.6503,1.6221,1.6124,1.6124,1.6124,1.6134,1.6221,1.6796,1.7726,1.7824,1.873,2.02,0.0,0.0,2.2687,0.0,2.4386,2.4965,2.5624,2.6214,2.6725,2.7261,2.7462,2.7462,2.7462,0.0,2.5925,2.5925,2.5485,0.0,0.0,0.0,0.0,0.0,0.0,0.0,0.0,0.0,2.3246,0.0,0.0,0.0,2.3725,0.0,0.0,0.0,0.0,0.0,0.0,0.0,0.0,0.0,0.0,0.0,0.0,0.0,0.0,3.0229,3.1352,3.2246,3.2672,3.3143,3.3666,3.4214,3.4711,3.5273,3.5926,3.6423,3.6776,3.6998,3.7482,3.7795,3.79,3.79,3.8139,3.8629,3.9104,3.9972,4.1127,4.1625,4.2236,4.2911,4.2911,4.2911,4.2911,4.2911,4.2911,4.2911,4.2911,4.2911,4.2911,1.6965,1.7331,1.786,1.8339,1.8474,1.8855,1.9861,2.0069,2.0303,2.0843,2.0965,2.1002,2.1002,2.1002,0.0,0.0,0.0,0.0,2.0818,0.0,1.917,1.904,1.8067,1.7254,1.6665,1.6593,1.6317,1.5847,1.5847,1.5847,1.5859,1.6329,1.687,1.7472,1.7942,0.0,0.0,0.0,2.1509,0.0,2.3816,2.4653,0.0,2.6435,2.6994,2.7273,2.7821,2.8009,2.8009,0.0,2.7607,2.711,0.0,2.6364,0.0,0.0,0.0,0.0,0.0,0.0,0.0,0.0,2.3904,0.0,0.0,0.0,2.312,2.3195,0.0,0.0,0.0,0.0,0.0,0.0,0.0,0.0,0.0,0.0,0.0,0.0,0.0,0.0,0.0,3.0012,3.1396,3.262,3.2751,3.3051,3.3652,3.3764,3.428,3.5351,3.5456,3.5979,3.6998,3.7077,3.7377,3.79,3.79,3.8139,3.8602,3.8669,3.9583,4.11,4.1168,4.1856,4.2911,4.2911,4.2911,4.2911,4.2911,4.2911,4.2911,4.2911,4.2911,4.2911,1.7327,1.7654,1.82,1.8746,1.9086,1.9559,2.0322,2.0964,2.1546,2.2092,2.2419,2.2613,0.0,0.0,0.0,0.0,0.0,0.0,0.0,0.0,1.993,1.9563,1.8733,1.8021,1.7433,1.7038,1.6563,1.603,1.603,1.603,1.603,1.6267,1.6824,1.7642,1.7869,0.0,2.0245,0.0,0.0,0.0,0.0,0.0,0.0,2.6596,2.7254,2.7903,2.8126,2.8213,2.8213,0.0,2.786,0.0,0.0,0.0,0.0,0.0,0.0,0.0,0.0,0.0,0.0,0.0,0.0,0.0,0.0,0.0,2.3524,0.0,0.0,0.0,0.0,0.0,0.0,0.0,2.4343,0.0,0.0,0.0,0.0,0.0,0.0,0.0,2.833,2.9209,3.0086,3.096,3.1452,3.1954,3.2522,3.3221,3.3809,3.4293,3.4946,3.5678,3.6475,3.6828,3.7312,3.79,3.79,3.8139,3.8602,3.8602,3.9516,4.11,4.11,4.1788,4.2911,4.2911,4.2911,4.2911,4.2911,4.2911,4.2911,4.2911,4.2911,4.2911,1.8005,1.8309,1.8758,1.9157,1.9662,2.0249,2.092,2.1945,2.2778,2.3164,0.0,0.0,2.3806,2.3806,0.0,0.0,0.0,2.2618,0.0,0.0,2.0761,0.0,0.0,0.0,0.0,1.7656,1.7089,1.642,1.642,1.642,1.642,1.6573,1.7042,1.782,1.809,1.8993,2.035,0.0,0.0,2.3656,2.3862,2.4979,2.6578,2.6981,2.7711,2.8521,2.8521,2.8521,2.8521,2.8521,2.8165,0.0,2.7723,0.0,0.0,0.0,0.0,0.0,2.5652,0.0,0.0,0.0,0.0,0.0,0.0,0.0,0.0,0.0,0.0,0.0,0.0,0.0,0.0,2.3675,0.0,2.3888,0.0,0.0,0.0,0.0,0.0,0.0,0.0,2.8228,2.8737,2.952,3.0264,3.0943,3.1555,3.2548,3.326,3.3587,3.4397,3.5168,3.5874,3.6462,3.7063,3.7665,3.7821,3.8139,3.8602,3.8602,3.9436,4.0856,4.1019,4.1679,4.2664,4.283,4.2911,4.2911,4.2911,4.2911,4.2911,4.2911,4.296,4.3032,1.9249,1.9513,0.0,0.0,2.0225,2.092,2.1996,2.3055,2.3758,0.0,0.0,0.0,0.0,0.0,0.0,0.0,0.0,2.3663,2.3468,0.0,2.1756,0.0,0.0,0.0,0.0,0.0,1.7967,1.6972,1.6972,1.6972,1.6996,1.7502,1.7773,1.7844,1.8815,1.9566,2.0182,2.1147,2.2195,2.3283,2.3995,2.5338,2.6978,0.0,2.8588,2.9067,2.9067,0.0,0.0,2.9067,2.873,0.0,0.0,0.0,0.0,0.0,0.0,0.0,0.0,0.0,0.0,2.521,0.0,0.0,0.0,0.0,2.352,0.0,0.0,0.0,0.0,0.0,2.3108,2.3133,2.3133,0.0,0.0,0.0,0.0,0.0,0.0,0.0,0.0,2.6866,2.7467,2.893,2.9538,3.0182,3.0986,3.1555,3.2404,3.3548,3.3647,3.4188,3.5312,3.5861,3.6436,3.7037,3.7625,3.8139,3.8602,3.8602,3.9194,4.0255,4.0865,4.1455,4.2079,4.2664,4.2911,4.2911,4.2911,4.2911,4.2911,4.2911,4.3056,4.3297,1.9838,0.0,0.0,0.0,0.0,2.1623,2.2696,2.372,0.0,0.0,0.0,0.0,0.0,0.0,2.5442,0.0,0.0,2.4756,2.4313,2.3625,0.0,0.0,0.0,2.0487,0.0,0.0,0.0,0.0,1.7419,1.7258,1.727,1.7444,1.7896,1.8543,1.8876,1.9584,0.0,0.0,0.0,0.0,0.0,2.6179,2.7138,0.0,0.0,2.8697,2.8697,2.8697,0.0,2.8697,2.8588,2.843,2.843,2.8067,2.7624,2.7624,2.7249,0.0,0.0,0.0,2.599,2.5821,0.0,0.0,0.0,0.0,0.0,0.0,0.0,0.0,0.0,0.0,2.3002,2.3093,2.3108,2.3108,0.0,2.3108,2.3246,0.0,0.0,0.0,0.0,0.0,0.0,2.7589,2.8303,2.9178,3.0335,3.0973,3.1797,3.296,3.3378,3.4136,3.5286,3.5835,3.641,3.7011,3.7612,3.8139,3.8602,3.8602,3.9181,4.0237,4.085,4.1455,4.205,4.2638,4.2911,4.2911,4.2911,4.2911,4.2911,4.2911,4.308,4.3345,2.0713,0.0,0.0,0.0,0.0,0.0,0.0,0.0,0.0,0.0,2.5864,0.0,2.6294,0.0,2.6294,0.0,2.597,2.5604,2.5195,2.4499,0.0,2.2566,2.192,0.0,0.0,0.0,0.0,0.0,0.0,1.7761,1.7761,1.7761,1.8102,1.874,1.9174,1.9892,2.0815,0.0,2.2401,0.0,0.0,2.6565,0.0,0.0,2.8586,2.8686,0.0,2.8919,2.9076,2.9076,2.8943,2.8767,2.8767,2.8406,2.7986,2.7986,2.7601,2.7174,2.7174,2.6796,0.0,2.6154,2.5943,0.0,2.5101,0.0,0.0,0.0,0.0,0.0,0.0,0.0,2.2924,2.3002,2.3078,2.3032,0.0,2.2822,2.2822,0.0,0.0,0.0,0.0,0.0,2.561,2.6543,2.7289,2.8209,2.9327,3.02,3.1104,3.2077,3.2875,3.3751,3.4685,3.5443,3.6109,3.6684,3.7299,3.7928,3.8602,3.8602,3.9073,3.9925,4.0741,4.1325,4.1733,4.2557,4.2911,4.2911,4.2911,4.296,4.3032,4.3032,4.3273,4.3608,0.0,0.0,0.0,0.0,2.3383,0.0,0.0,0.0,2.6338,0.0,2.6385,2.642,2.642,2.642,2.642,2.642,2.6397,0.0,2.6066,2.5145,0.0,0.0,2.2777,2.1757,2.1266,0.0,0.0,0.0,0.0,0.0,1.8425,1.8425,1.8448,1.8529,1.9671,0.0,2.1005,2.2182,2.3,2.3666,2.5356,2.6457,2.7254,2.8216,2.8781,2.9056,2.9238,2.9623,3.0065,3.0086,2.9728,2.932,2.934,2.8979,2.8546,2.8546,2.8154,2.7745,2.7745,2.7361,2.6832,2.631,0.0,0.0,0.0,0.0,2.4537,0.0,0.0,0.0,0.0,0.0,0.0,2.2894,2.3002,2.2907,2.237,2.2295,0.0,0.0,0.0,0.0,0.0,2.3979,2.451,2.5724,2.6534,2.7293,0.0,2.9332,3.0354,3.0979,3.2117,3.2986,3.3587,3.4724,3.5574,3.6109,3.6746,3.7582,3.8602,3.8602,3.8859,3.9382,4.0536,4.1073,4.1181,4.2361,4.2873,4.2911,4.2911,4.308,4.3321,4.3345,4.3632,4.4035,2.2032,2.277,2.3532,0.0,2.4246,2.457,0.0,0.0,0.0,0.0,2.7616,2.8066,2.8066,2.8066,2.8066,2.8066,2.7764,0.0,0.0,0.0,0.0,2.4045,2.3606,2.291,2.1891,2.0969,0.0,2.0286,0.0,0.0,1.8922,1.8922,1.9123,1.9529,1.9844,2.047,2.1318,2.2139,2.3502,2.518,2.6035,2.6935,0.0,0.0,2.8883,2.9575,2.9426,2.9463,2.9603,2.9748,2.9695,2.963,2.9819,2.952,2.9088,2.9088,2.8707,2.8286,2.8286,2.7902,2.7469,2.7325,2.6695,2.6057,0.0,0.0,0.0,0.0,0.0,0.0,0.0,0.0,0.0,2.2925,2.3002,2.2907,0.0,0.0,0.0,2.1744,0.0,0.0,2.3286,2.3738,2.4183,2.4595,2.5738,2.6727,2.7479,0.0,2.9954,3.0979,3.2117,3.2986,3.3587,3.4724,3.5574,3.6109,3.6901,3.7752,3.8602,3.8742,3.9002,3.9354,4.0085,4.0704,4.1168,4.1929,4.2504,4.2911,4.2911,4.3163,4.3543,4.376,4.3917,4.4035,2.3321,0.0,0.0,2.548,0.0,0.0,2.597,0.0,0.0,2.7561,2.8026,0.0,2.8388,2.8388,2.8388,2.8388,2.8149,0.0,0.0,0.0,0.0,2.507,2.422,2.3444,2.2775,2.167,0.0,2.0818,0.0,0.0,1.9234,1.9234,1.9499,1.9996,2.0291,2.0974,2.1988,2.2868,2.414,2.5614,2.6125,0.0,0.0,2.8345,2.8965,2.9668,2.972,2.9906,3.0114,3.0233,3.0111,2.9955,3.0105,2.9842,2.9475,2.9475,2.9186,2.8859,2.8859,2.8454,2.7998,2.7757,2.7241,2.6683,2.6202,2.5865,2.5504,0.0,0.0,0.0,0.0,0.0,0.0,0.0,0.0,0.0,0.0,0.0,0.0,0.0,0.0,0.0,2.2684,2.3273,2.3746,2.4094,2.5154,2.6086,2.678,0.0,2.9593,3.0247,3.1588,3.2607,3.3195,3.4097,3.5077,3.6109,3.6718,3.7568,3.8602,3.881,3.9056,3.9341,3.9951,4.0534,4.1142,4.1751,4.2364,4.2911,4.3139,4.3437,4.3818,4.4068,4.4176,4.42,0.0,0.0,0.0,0.0,0.0,0.0,0.0,2.755,0.0,2.8198,0.0,2.8321,2.8366,2.8366,2.8366,2.8299,0.0,2.8175,2.8108,2.7214,2.6621,2.6477,2.4845,2.3839,2.362,2.2537,0.0,0.0,0.0,0.0,1.9687,1.9687,1.9916,2.0325,2.0902,0.0,0.0,2.3887,2.4782,2.5503,2.6046,2.6983,2.8105,2.8577,2.9103,2.9653,3.0044,3.0499,3.0905,3.0939,3.0634,3.0258,3.0292,3.0058,2.977,2.977,2.9559,2.9347,2.9275,2.8935,2.8486,2.7938,2.7745,2.7457,2.6526,2.6202,2.5961,2.5504,2.497,2.4585,0.0,0.0,0.0,0.0,0.0,0.0,0.0,0.0,0.0,0.0,0.0,0.0,2.2121,2.2681,2.3233,2.3841,2.476,2.5541,0.0,0.0,2.9292,2.9292,3.0928,3.2091,3.2685,3.3307,3.4397,3.6005,3.638,3.7241,3.8482,3.8814,3.9078,3.9341,3.9852,4.0476,4.1128,4.1673,4.2299,4.3008,4.3423,4.3757,4.4035,4.4294,4.4387,4.4387,0.0,0.0,0.0,0.0,0.0,2.7886,2.8326,2.851,2.8735,2.9171,2.9562,0.0,3.0355,3.0389,3.0232,2.9842,2.9451,0.0,0.0,0.0,0.0,2.6304,2.5918,2.5096,2.37,2.3101,2.2557,0.0,0.0,0.0,2.121,2.121,2.1254,2.1341,2.1452,2.2127,2.3231,2.4274,0.0,2.5817,2.6715,2.7582,2.8385,2.8852,2.9463,3.0078,3.0159,3.0261,3.0386,3.0612,3.0621,3.0562,3.0798,3.0512,3.0111,3.0111,2.9884,2.9532,2.9083,2.9068,2.9027,2.8478,2.8022,2.7649,2.7457,2.6743,2.6069,2.5973,2.554,2.5018,2.4585,0.0,0.0,0.0,0.0,0.0,0.0,0.0,0.0,0.0,0.0,0.0,0.0,0.0,2.2671,0.0,0.0,0.0,0.0,0.0,2.9292,0.0,3.0928,0.0,0.0,0.0,3.4214,3.5443,3.6381,3.7182,3.7892,3.8795,3.9247,3.9305,3.9404,4.0096,4.1107,4.1205,4.2051,4.3235,4.3495,4.3757,4.4035,4.4294,4.4387,4.4387,0.0,0.0,0.0,0.0,0.0,0.0,0.0,2.9503,0.0,2.9833,3.0054,3.0285,3.0517,3.0551,3.0451,3.0219,2.9779,2.9403,2.9126,2.843,2.7745,2.7162,2.6427,0.0,2.4849,0.0,2.3416,2.2655,0.0,0.0,2.161,2.161,2.1723,2.1985,2.2477,2.2984,0.0,0.0,0.0,2.6065,2.6809,2.7673,2.8587,2.8824,2.9286,2.9852,2.9977,3.0034,3.0068,3.0306,3.0397,3.042,3.0544,3.0494,3.0407,3.0407,3.0198,2.9891,2.9643,2.935,2.9027,2.8777,2.8403,2.8046,2.7769,2.7301,2.6779,2.6214,2.5889,2.548,2.4657,2.396,0.0,0.0,0.0,0.0,0.0,0.0,0.0,0.0,0.0,0.0,0.0,0.0,0.0,0.0,0.0,0.0,0.0,0.0,2.8978,0.0,0.0,0.0,3.2685,0.0,3.3862,3.5299,3.6384,3.7172,3.7732,3.8799,3.9305,3.9305,3.9305,3.9815,4.0677,4.1466,4.2443,4.3485,4.3723,4.3974,4.4223,4.434,4.4387,4.4387,0.0,2.7861,0.0,0.0,2.9086,0.0,3.022,3.0313,3.0289,3.0338,3.0351,3.0395,3.048,3.0491,3.0472,3.0373,3.0002,2.972,2.9523,2.8768,2.8232,2.8002,2.6933,2.6191,2.5843,2.5113,2.4222,0.0,0.0,0.0,2.2078,2.2078,2.2292,2.2712,0.0,0.0,0.0,0.0,2.5616,2.6324,2.6797,2.7656,2.8656,2.8757,2.9081,2.9531,2.9737,2.9863,2.9909,3.0068,3.0148,3.0193,3.0193,3.0352,3.0498,3.0498,3.0422,3.025,3.0144,2.9579,2.9003,2.8905,2.8673,2.8343,2.7962,2.7781,2.7433,2.6478,2.6093,2.5636,2.4681,2.4126,0.0,0.0,0.0,0.0,0.0,0.0,0.0,0.0,0.0,0.0,0.0,0.0,0.0,0.0,0.0,0.0,2.5294,0.0,0.0,0.0,0.0,3.0942,3.2672,0.0,3.3549,3.5214,3.6353,3.714,3.7624,3.8789,3.9305,3.9305,3.9305,3.971,4.0516,4.1851,4.2875,4.3624,4.3903,4.4153,4.4387,4.4387,4.4387,4.4387,0.0,0.0,0.0,0.0,0.0,0.0,0.0,3.0643,3.0568,3.0807,3.0832,3.0996,3.1418,3.1462,3.1313,3.0865,3.0788,3.0395,2.9567,2.9401,2.8953,2.8034,2.7871,2.7118,2.5655,2.5536,2.4905,0.0,0.0,0.0,0.0,2.3602,2.3702,0.0,0.0,0.0,0.0,2.5151,2.573,2.6605,2.7064,2.7733,2.8476,2.8907,2.9245,2.9508,2.9531,2.968,2.9886,2.9909,3.0057,3.0193,3.0193,3.0216,3.0238,3.0238,3.0385,3.046,2.9972,2.9599,2.9273,2.8979,2.8571,2.8267,2.8391,2.8046,2.7541,2.6952,2.6051,2.5204,2.4609,2.4126,2.3675,0.0,0.0,0.0,0.0,0.0,0.0,0.0,0.0,0.0,0.0,2.2732,0.0,0.0,0.0,0.0,0.0,0.0,0.0,2.9279,2.9818,3.0942,3.2672,3.2685,3.342,3.4848,3.6239,3.7013,3.7287,3.868,3.9305,3.9305,3.9305,3.9943,4.1088,4.2012,4.2863,4.3624,4.3903,4.4153,4.4387,4.4387,4.4387,4.4387,0.0,0.0,0.0,0.0,0.0,0.0,0.0,3.0996,3.1141,3.1245,3.1008,3.0912,3.1105,3.1127,3.1051,3.0858,3.0579,3.0256,2.988,2.9335,2.8851,2.8451,2.7869,2.7289,2.6631,2.6076,2.5413,0.0,0.0,0.0,0.0,0.0,0.0,0.0,0.0,2.4755,2.5467,2.5728,2.6465,2.7468,2.7653,2.8081,2.8668,2.8843,2.8989,2.9105,2.922,2.9336,2.9439,2.9623,2.9909,3.0193,3.0193,3.0193,3.0193,3.0193,3.0284,3.0306,3.0098,2.9848,2.9544,2.9073,2.8787,2.8571,2.8371,2.8243,2.8022,2.7493,2.652,2.5624,2.5066,2.4566,2.41,0.0,0.0,0.0,0.0,0.0,0.0,0.0,0.0,0.0,0.0,0.0,2.3321,0.0,0.0,0.0,0.0,0.0,0.0,2.9279,0.0,3.0942,3.2672,3.2685,3.3414,3.481,3.6234,3.7008,3.7262,3.8653,3.9305,3.9305,3.9305,3.9868,4.0878,4.1746,4.2574,4.3365,4.3999,4.4317,4.4387,4.4387,4.4387,4.4387,3.0232,0.0,3.0338,0.0,3.0706,3.0823,3.1163,3.1429,3.1577,3.1577,3.1233,3.0979,3.0988,3.0886,3.0812,3.0812,3.0504,3.0249,3.01,2.9473,2.8998,2.871,2.8059,0.0,2.7223,2.6556,2.5951,2.5411,2.4946,0.0,0.0,0.0,0.0,0.0,2.4681,2.5221,2.5916,2.6325,2.7039,2.7933,2.7979,2.8331,2.8803,2.8803,2.8803,2.8827,2.8966,2.9058,2.9128,2.9312,2.9646,3.0011,3.0091,3.0159,3.0193,3.0193,3.0193,3.0193,3.0193,2.996,2.9585,2.9119,2.8862,2.8627,2.8278,2.8299,2.8227,2.7594,2.6743,2.5937,2.5408,2.4862,2.4415,2.4188,0.0,0.0,0.0,0.0,0.0,0.0,0.0,0.0,0.0,0.0,0.0,0.0,0.0,0.0,0.0,0.0,0.0,0.0,0.0,0.0,3.2672,3.2685,3.3434,3.4893,3.6255,3.7029,3.7327,3.8675,3.9305,3.9305,3.9305,3.9777,4.0668,4.1531,4.2366,4.3185,4.4055,4.4387,4.4387,4.4387,4.4387,4.4387,3.2178,3.2178,3.2178,3.2178,3.2178,3.2178,3.2189,3.1966,3.1814,3.1814,3.1541,3.1419,3.1487,3.1078,3.0812,3.0812,3.0801,3.06,3.0132,3.0089,2.9664,0.0,0.0,2.8169,2.7027,2.6995,2.6639,2.5887,0.0,0.0,2.517,0.0,2.4887,2.5586,2.5586,2.5959,2.6604,2.6871,2.7263,2.7729,2.7923,2.8331,2.8803,2.8803,2.8803,2.8803,2.8803,2.8943,2.9105,2.9105,2.9278,2.9554,2.9817,3.0034,3.0193,3.0193,3.0193,3.0193,3.0193,2.986,2.941,2.9076,2.8642,2.8288,2.8217,2.8199,2.7961,2.7095,2.6472,2.5937,2.5408,2.4862,2.4501,2.4489,0.0,0.0,0.0,0.0,0.0,0.0,0.0,0.0,2.3108,0.0,0.0,0.0,0.0,0.0,0.0,0.0,0.0,2.9279,2.9818,0.0,3.2672,3.2685,3.3515,3.5119,3.6306,3.7115,3.7526,3.874,3.9305,3.9305,3.9305,3.9777,4.0668,4.1531,4.2366,4.3185,4.4055,4.4387,4.4387,4.4387,4.4387,4.4387,3.1661,3.1661,3.1661,3.1661,3.1661,3.1661,3.1661,3.1812,3.1937,3.1937,3.1854,3.183,3.1829,3.1185,3.0736,0.0,3.0443,3.0193,0.0,2.9734,2.9431,2.9128,2.8512,2.7983,2.762,2.703,2.6611,2.6374,0.0,0.0,0.0,2.5523,2.5568,2.5802,2.5802,2.6198,2.6876,2.6945,2.7347,2.7937,2.8157,2.8371,2.8558,2.8734,2.8803,2.8803,2.8803,2.885,2.8896,2.8896,2.9035,2.9243,2.9336,2.9646,3.0011,3.0148,3.0193,3.0193,3.0193,3.0078,2.9871,2.9454,2.9056,2.8726,2.8513,2.8441,2.8227,2.757,2.7024,2.6484,2.5949,2.5408,2.4922,2.4561,2.454,0.0,0.0,0.0,0.0,0.0,0.0,0.0,0.0,2.4214,0.0,0.0,0.0,0.0,0.0,0.0,0.0,0.0,3.0576,0.0,3.2685,3.3231,3.4051,3.5119,3.6454,3.7661,3.8727,3.9129,3.9305,3.9305,3.9489,3.9812,4.0243,4.1125,4.1993,4.2822,4.3517,4.4045,4.4387,4.4387,4.4387,4.4434,3.1888,3.1888,3.1888,3.1888,3.1888,3.1888,3.1888,3.2098,3.2274,3.2274,3.2274,3.2274,3.2274,3.1612,0.0,3.0719,3.0419,3.018,3.0005,2.9725,2.9487,2.9311,2.8752,2.8334,2.8158,2.7458,0.0,2.7076,2.6467,2.6074,2.5897,2.5897,2.5991,2.6156,2.6156,2.6518,2.7118,2.7188,2.7473,2.7901,2.8318,2.8569,2.8709,2.9048,2.9232,2.9327,2.9327,2.9327,2.9294,2.9119,2.9147,2.9231,2.9137,2.9324,2.9668,2.9988,3.0136,3.0193,3.0193,3.0193,3.0078,2.9619,2.919,2.8785,2.8421,2.8356,2.8255,2.7798,2.727,2.6748,2.6202,2.5661,2.5186,2.485,2.4966,2.4976,2.4644,0.0,0.0,0.0,0.0,0.0,0.0,2.4779,2.5407,0.0,0.0,0.0,0.0,0.0,0.0,2.9588,3.1027,3.2091,3.2685,3.3508,3.431,3.5119,3.6601,3.8001,3.9305,3.9305,3.9305,3.9305,3.9574,3.9802,4.0073,4.0937,4.1805,4.2663,4.3259,4.3877,4.4387,4.4387,4.4387,4.4434,3.2651,3.2641,3.2641,0.0,3.2641,0.0,3.2641,3.2641,3.2641,3.2641,3.2641,3.2641,3.2641,3.2259,3.165,3.0799,0.0,0.0,0.0,3.0015,2.9808,2.9373,2.9321,2.9104,2.8669,2.8179,2.7931,2.79,2.7068,2.6426,2.6001,2.6001,2.6229,2.6643,2.6643,2.6902,2.7351,2.7541,2.7633,2.772,2.8439,2.886,2.9142,2.9618,2.9951,3.0161,3.0185,3.0185,3.012,2.9685,2.9556,2.9503,2.9221,2.9137,2.9241,2.976,3.0034,3.017,3.0193,3.0193,3.0112,2.9665,2.9136,2.8576,2.8081,2.8074,2.8116,2.7827,2.7318,2.6777,2.625,2.5721,2.5348,2.5312,2.5227,2.516,2.516,0.0,0.0,0.0,0.0,0.0,0.0,2.5347,2.5853,0.0,0.0,0.0,0.0,0.0,2.9588,3.0074,3.1249,3.213,3.2685,3.3554,3.441,3.528,3.6789,3.813,3.9305,3.9305,3.9305,3.9305,3.9596,3.9834,4.0065,4.0918,4.1757,4.2587,4.3211,4.3807,4.4355,4.4397,4.4411,4.4457,0.0,0.0,3.2018,3.2018,3.2018,3.2018,3.2018,3.2018,3.2018,3.2018,3.2018,3.2018,3.2018,3.1898,3.1615,3.1058,3.0809,3.0636,3.0532,3.0191,2.9942,2.9839,2.9497,2.9259,2.9145,2.8665,2.8251,2.79,2.74,2.7092,2.6978,2.6978,2.704,2.712,2.712,2.7368,2.7769,2.7817,2.8049,2.8396,2.8767,2.8968,2.9077,2.9588,2.9839,2.9926,3.0123,3.0185,3.0188,3.0078,3.0035,2.9958,2.9538,2.9561,2.9731,2.9861,2.9931,2.9988,3.0148,3.0193,3.0159,3.0055,2.9488,2.8839,2.8515,2.8302,2.8223,2.8302,2.7878,2.7349,2.682,2.6267,2.5781,2.5372,2.5543,2.5714,2.5714,2.5539,0.0,0.0,2.541,2.541,2.541,2.603,2.6735,0.0,0.0,0.0,2.9631,2.9831,2.9957,3.0087,3.1647,3.2555,3.2685,3.4111,3.5529,3.6939,3.7308,3.813,3.9305,3.9305,3.9305,3.9305,3.9745,3.9964,4.0035,4.0621,4.1246,4.1892,4.2547,4.3174,4.3764,4.4242,4.4527,4.4751,3.217,3.2079,3.2029,3.1828,3.1787,3.1787,3.1787,3.1787,3.1787,3.1787,3.1787,3.1787,3.1787,3.1787,3.1697,3.1445,3.0926,3.0526,3.0312,3.0005,2.9827,2.9827,2.9704,2.9622,2.9622,2.9166,2.87,2.821,2.7997,2.7883,2.7883,2.7883,2.7883,2.7883,2.7883,2.8017,2.821,2.821,2.8355,2.8628,2.8982,2.9216,2.9388,2.9876,3.0238,3.045,3.059,3.074,3.0796,3.0603,3.0526,3.0439,2.9969,2.977,2.973,2.9851,2.9906,2.9931,3.0159,3.0193,3.0147,2.9918,2.9385,2.8788,2.8521,2.8266,2.8131,2.8331,2.8011,2.7613,2.7325,2.6635,2.5997,2.5721,2.5799,2.591,2.591,2.5967,0.0,2.6005,2.6005,2.6005,2.6005,2.6679,2.7325,2.7866,2.8513,0.0,3.0061,3.0367,3.0628,3.0871,3.2071,3.2829,3.3124,3.443,3.59,3.7485,3.7485,3.813,3.9305,3.9305,3.9305,3.9327,3.9801,3.9994,4.0039,4.0508,4.1056,4.1646,4.1992,4.2697,4.354,4.3877,4.4334,4.483,3.2445,3.2304,3.2144,3.1813,3.1693,3.1643,3.1643,3.1643,3.1643,3.1643,3.1643,3.1643,3.1643,3.1643,3.1643,3.1643,3.093,3.0296,2.9937,2.9724,2.9599,2.9527,2.9748,2.9889,2.9942,2.9513,2.9104,2.8721,2.8624,2.8593,2.8593,2.8593,2.8593,2.8593,2.8593,2.8649,2.8721,2.8721,2.8763,2.8856,2.9249,2.9522,2.9794,3.0234,3.0677,3.1101,3.1178,3.1347,3.1487,3.1124,3.1007,3.0919,3.0461,3.0035,2.9746,2.9864,2.9908,2.9942,3.0114,3.017,3.009,2.9711,2.9206,2.8753,2.846,2.821,2.8036,2.8171,2.8012,2.7794,2.7721,2.6971,2.6322,2.6238,2.6189,2.6126,2.6126,0.0,2.6738,2.6738,2.6738,2.6738,2.6738,2.7364,2.7875,2.8118,2.9202,2.9949,3.0218,3.0803,3.1378,3.1915,3.2437,3.3065,3.3807,3.4669,3.59,3.7485,3.7485,3.813,3.9305,3.9305,3.9327,3.9372,3.9802,4.0021,4.0089,4.053,4.1006,4.1468,4.1549,4.2255,4.3231,4.3427,4.4005,4.4748,3.23,3.1917,3.1613,3.1544,3.127,3.1034,3.1034,3.1034,3.1034,3.1034,3.1034,3.1034,3.1034,3.1034,3.1034,3.1034,3.0554,3.0289,3.0399,3.0001,2.9578,2.9195,2.9211,2.9369,2.9659,2.941,2.927,2.9197,2.8779,2.8593,2.8593,2.8593,2.8593,2.8593,2.8593,2.881,2.9197,2.9197,2.9425,2.9787,2.986,2.9917,2.9995,3.0292,3.0443,3.0573,3.1049,3.123,3.1296,3.144,3.1484,3.1396,3.0941,3.0734,3.0576,3.0052,2.9894,2.9904,2.993,3.0068,3.0182,3.0101,2.9734,2.9284,2.897,2.8692,2.8448,2.8242,2.8299,2.8226,2.7781,2.7565,2.7301,2.6856,2.7047,2.7256,2.7256,0.0,2.7846,2.7846,2.7846,2.7846,2.7846,2.8246,2.8736,2.9222,2.9746,3.0278,3.083,3.1386,3.1947,3.2542,3.2646,3.3409,3.4857,3.5012,3.59,3.7485,3.7485,3.813,3.9305,3.9305,3.943,3.9656,3.9881,4.012,4.0358,4.0593,4.0751,4.0886,4.1389,4.1735,4.2036,4.3104,4.3851,4.4379,3.2588,3.2344,3.206,3.1572,3.1357,3.1152,3.0928,3.0889,3.0889,3.0889,3.0889,3.0889,3.0889,3.0889,3.0889,3.0889,3.0693,3.0496,3.0365,2.9859,2.9372,2.8897,2.9026,2.9158,2.9343,2.9428,2.9456,2.9456,2.9379,2.9352,2.9352,2.9352,2.9352,2.9352,2.9352,2.9477,2.9673,2.9673,2.9798,2.9994,2.9994,2.9994,3.002,3.0151,3.0261,3.0443,3.0843,3.1075,3.1255,3.1501,3.1593,3.156,3.1356,3.1105,3.0835,3.0531,3.0173,2.9891,2.9908,3.0057,3.0193,3.0193,2.986,2.9377,2.8935,2.8712,2.8501,2.8116,2.8271,2.8418,2.8178,2.789,2.7625,2.7385,2.7436,0.0,2.7502,2.7853,2.8109,2.8109,2.8109,2.8109,2.8109,2.863,2.9112,2.9473,3.006,3.0582,3.0973,3.1516,3.2091,3.2672,3.33,3.4087,3.5093,3.5106,3.59,3.7485,3.7485,3.813,3.9305,3.9305,3.9452,3.97,3.992,4.0144,4.0431,4.0636,4.0702,4.0737,4.1006,4.1311,4.1678,4.2249,4.2996,4.3803,3.2758,3.2613,3.2343,3.1646,3.1463,3.1258,3.0957,3.0889,3.0889,3.0889,3.0889,3.0889,3.0889,3.0889,3.0889,3.0889,3.0889,3.0693,3.0225,2.9823,2.9332,2.8762,2.89,2.9009,2.9009,2.9317,2.9527,2.9606,2.98,2.9942,2.9994,2.9994,2.9994,2.9994,2.9994,2.9994,2.9994,2.9994,2.9994,2.9994,2.9994,2.9994,2.9994,2.9994,3.0115,3.0349,3.062,3.0879,3.1152,3.1424,3.1553,3.1593,3.1593,3.1342,3.104,3.093,3.0428,2.9907,2.9897,3.0057,3.0193,3.0193,2.994,2.9527,2.8999,2.8792,2.8574,2.8143,2.8254,2.8451,2.849,2.8154,2.789,2.789,0.0,2.7814,2.7883,2.8189,2.843,2.8499,2.8499,2.8499,2.8499,2.905,2.949,2.969,3.0326,3.0844,3.1182,3.1712,3.2339,3.3064,3.394,3.4639,3.5106,3.5106,3.59,3.7485,3.7485,3.813,3.9305,3.9305,3.9474,3.9774,3.9922,4.019,4.0492,4.063,4.0702,4.0702,4.0702,4.0971,4.1418,4.1556,4.2227,4.3168,3.2447,3.2134,3.182,3.1639,3.1266,3.1,3.0898,3.0889,3.0889,3.0889,3.0889,3.0889,3.0889,3.0889,3.0889,3.0889,3.0889,3.0693,3.0225,3.0165,2.9764,2.8906,2.8785,2.8737,2.8737,2.9009,2.929,2.9606,2.9606,2.9774,2.9994,2.9994,2.9994,2.9994,2.9994,2.9994,2.9994,2.9994,2.9994,2.9994,2.9994,2.9994,2.9994,2.9994,3.002,3.0073,3.0323,3.0609,3.0879,3.1127,3.1399,3.1593,3.1593,3.1571,3.1451,3.1029,3.044,2.9912,2.9907,3.0057,3.0193,3.0193,3.0159,3.001,2.955,2.9207,2.8889,2.8606,2.837,2.8279,2.8471,2.8474,2.843,2.843,0.0,0.0,2.8949,2.9171,2.9397,2.9647,2.9666,2.9666,2.9666,2.9884,3.0126,3.0323,3.0564,3.0994,3.1706,3.2319,3.313,3.4241,3.4358,3.4639,3.5106,3.5106,3.59,3.7485,3.7485,3.813,3.9305,3.9305,3.9535,3.9988,3.9996,4.027,4.068,4.0702,4.0702,4.0702,4.0702,4.0737,4.0836,4.1383,4.1931,4.246,3.239,3.2298,3.2093,3.177,3.1403,3.1005,3.0705,3.0447,3.0284,3.0284,3.046,3.0606,3.0606,3.0762,3.0889,3.0889,3.0889,3.081,3.0635,3.0361,2.9814,2.8928,2.8596,2.8451,2.8451,2.8727,2.8903,2.9036,2.9422,2.9659,2.9774,2.9916,2.9994,2.9994,2.9994,2.9994,2.9994,2.9994,2.9994,2.9994,2.9994,2.9994,2.9994,2.9994,2.9994,3.0047,3.0287,3.0583,3.0827,3.1101,3.1373,3.1593,3.1593,3.1593,3.1505,3.104,3.0831,3.0659,3.0203,3.0043,3.0034,3.017,3.0193,3.0089,2.9607,2.9508,2.9424,2.9146,2.8858,2.8707,2.8951,2.8727,2.849,2.849,0.0,2.8882,2.9072,2.9275,2.9489,2.9772,2.9792,2.9792,2.9792,2.9869,3.0049,3.0387,3.0778,3.1235,3.1765,3.2738,3.36,3.4371,3.4397,3.4639,3.5106,3.5106,3.59,3.7485,3.7485,3.813,3.9305,3.9305,3.9557,3.9996,3.9996,4.0257,4.0702,4.0702,4.0702,4.0702,4.0702,4.0702,4.0737,4.0957,4.1334,4.1839,3.2093,3.2093,3.2003,3.1693,3.1301,3.0929,3.0564,3.0157,2.9892,2.9892,3.0098,3.0236,3.0236,3.0548,3.0733,3.0733,3.083,3.0889,3.0889,3.0459,2.9814,2.8928,2.8643,2.8428,2.8301,2.8488,2.8621,2.8711,2.9195,2.9501,2.9606,2.9879,2.9994,2.9994,2.9994,2.9994,2.9994,2.9994,2.9994,2.9994,2.9994,2.9994,2.9994,2.9994,2.9994,3.002,3.0219,3.0453,3.0724,3.0972,3.1255,3.1501,3.1567,3.1593,3.1538,3.1214,3.1154,3.1056,3.0552,3.0206,3.0021,3.0171,3.0193,3.0135,2.9802,2.9695,2.9708,2.9662,2.9338,2.916,2.9483,2.9112,2.8751,2.8751,2.8726,2.8796,2.9052,2.9216,2.9443,2.9772,2.9792,2.9792,2.9792,2.9942,3.0218,3.0625,3.1163,3.1738,3.2332,3.3313,3.4018,3.4384,3.4397,3.4639,3.5106,3.5106,3.59,3.7485,3.7485,3.813,3.9305,3.9305,3.9526,3.99,3.9966,4.0227,4.0608,4.068,4.0702,4.0702,4.0702,4.0702,4.0702,4.0702,4.1,4.1454,3.141,3.141,3.1386,3.1293,3.0969,3.0663,3.0513,3.0157,2.9892,2.9892,2.9892,2.9892,2.9892,3.0216,3.0382,3.0382,3.0704,3.0889,3.0889,3.0459,2.9824,2.8937,2.8898,2.873,2.831,2.8301,2.8444,2.8721,2.8956,2.9264,2.9617,2.9863,2.9994,2.9994,2.9994,2.9994,2.9994,2.9994,2.9994,2.9994,2.9994,2.9994,2.9994,2.9994,2.9994,2.9994,2.9994,3.0167,3.0443,3.0698,3.0983,3.1255,3.1527,3.1593,3.1593,3.1593,3.128,3.0899,3.0916,3.0569,3.0206,3.0205,3.0193,3.0193,3.0193,2.9848,2.9637,3.0111,2.9785,2.9558,3.0023,2.9665,2.9304,2.9304,2.8871,2.8662,2.9064,2.9104,2.9292,2.9765,2.9804,2.9804,2.9804,3.0287,3.0767,3.1175,3.1765,3.2544,3.3541,3.411,3.4397,3.4397,3.4397,3.4639,3.5106,3.5106,3.59,3.7485,3.7485,3.813,3.9305,3.9305,3.9452,3.97,3.99,4.0154,4.0421,4.063,4.0702,4.0702,4.0702,4.0702,4.0702,4.0702,4.1,4.1404,3.141,3.141,3.1373,3.1359,3.0801,3.0343,3.0306,2.9696,2.9281,2.9281,2.9479,2.9627,2.9627,2.9892,3.0039,3.0039,3.0362,3.0635,3.0889,3.0762,3.042,2.9844,2.9531,2.9344,2.9217,2.9217,2.9245,2.9327,2.9305,2.9453,2.9729,2.9733,2.9827,2.9994,2.9994,2.9994,2.9994,2.9994,2.9994,2.9994,2.9994,2.9994,2.9994,2.9994,2.9994,2.9994,2.9994,3.0167,3.0443,3.0698,3.0983,3.1255,3.1527,3.1593,3.1593,3.1593,3.1495,3.1403,3.1452,3.1084,3.0597,3.0274,3.0193,3.0193,3.0193,3.0078,3.0088,3.0402,3.0204,3.0048,3.0317,3.01,2.9845,2.9845,2.9746,2.9782,3.0225,3.0286,3.0449,3.0869,3.0909,3.0909,3.0909,3.106,3.1261,3.1523,3.2382,3.3255,3.4123,3.4306,3.4397,3.4397,3.4397,3.4639,3.5106,3.5106,3.59,3.7485,3.7485,3.813,3.9305,3.9305,3.9452,3.97,3.99,4.0154,4.0421,4.063,4.0702,4.0702,4.0702,4.0702,4.0702,4.0702,4.0993,4.1389,3.141,3.141,3.1364,3.1208,3.0626,3.014,2.9975,2.9397,2.9014,2.9014,2.9183,2.9302,2.9302,2.9568,2.9745,2.9745,3.0157,3.048,3.0694,3.083,3.0762,3.0488,3.0225,2.995,2.9608,2.9598,2.9598,2.9598,2.963,2.9776,3.0085,3.0099,3.0282,3.0543,3.0543,3.0543,3.0532,3.0346,3.0274,3.0253,3.0067,2.9994,2.9994,2.9994,2.9994,2.9994,2.9994,3.0088,3.0297,3.0672,3.1049,3.1399,3.1553,3.1593,3.1593,3.1593,3.1593,3.1596,3.1551,3.1368,3.1125,3.0716,3.0423,3.0193,3.0193,3.0193,3.0284,3.0555,3.0558,3.0568,3.0776,3.0596,3.0419,3.0419,3.0239,3.0244,3.0591,3.0736,3.0923,3.1235,3.1358,3.1406,3.1406,3.1587,3.1937,3.2453,3.3137,3.3796,3.4384,3.4397,3.4397,3.4397,3.4397,3.4598,3.4983,3.5065,3.59,3.7485,3.7485,3.813,3.9305,3.9305,3.9394,3.9554,3.9878,4.0097,4.0277,4.0573,4.0702,4.0702,4.0702,4.0702,4.0702,4.0702,4.093,4.1254,3.1345,3.1345,3.1258,3.0855,3.0461,3.0057,2.9666,2.9262,2.9014,2.9014,2.9014,2.9014,2.9014,2.9272,2.945,2.945,3.0001,3.0362,3.0382,3.0704,3.0889,3.0889,3.0889,3.0546,2.9735,2.9715,2.9715,2.9715,2.991,3.0197,3.0502,3.0746,3.1038,3.1343,3.1381,3.1408,3.1377,3.0953,3.075,3.0735,3.0294,3.0118,3.0118,3.0118,3.0118,3.0118,3.0118,3.0118,3.0187,3.0704,3.1185,3.1593,3.1593,3.1593,3.1593,3.1593,3.1593,3.1582,3.1406,3.1525,3.1652,3.1445,3.0843,3.0319,3.0273,3.0227,3.0261,3.0498,3.0803,3.1062,3.1239,3.1123,3.0973,3.0973,3.0564,3.0314,3.0516,3.0779,3.1029,3.1212,3.1426,3.1537,3.1537,3.1989,3.2693,3.3632,3.3915,3.416,3.4397,3.4397,3.4397,3.4397,3.4397,3.4535,3.4797,3.5003,3.59,3.7464,3.7485,3.813,3.9305,3.9305,3.9305,3.9327,3.9791,3.9974,4.0017,4.0487,4.068,4.0702,4.0702,4.0702,4.0702,4.0702,4.0823,4.1028,3.0976,3.1,3.0969,3.0832,3.0461,3.0057,2.9666,2.9262,2.9014,2.9014,2.9014,2.9014,2.9014,2.9064,2.9094,2.9094,2.9656,3.0128,3.0382,3.0704,3.0889,3.0889,3.0889,3.0801,3.0605,3.0634,3.0634,3.0634,3.0301,3.0295,3.0578,3.0575,3.0746,3.1011,3.1289,3.1408,3.1398,3.1295,3.1253,3.1243,3.1149,3.1108,3.1108,3.1108,3.1108,3.1108,3.1108,3.1108,3.1127,3.1302,3.1469,3.1593,3.1593,3.1593,3.1593,3.1593,3.1593,3.1648,3.1792,3.177,3.1742,3.1888,3.1689,3.1353,3.0928,3.0491,3.0216,3.0284,3.0668,3.1006,3.1062,3.1311,3.1536,3.1536,3.144,3.1412,3.162,3.188,3.213,3.232,3.2577,3.2738,3.2738,3.2839,3.3122,3.367,3.3755,3.3979,3.4377,3.4397,3.4397,3.4397,3.4397,3.4535,3.4797,3.5003,3.5831,3.7265,3.7435,3.813,3.9305,3.9305,3.9305,3.9327,3.9642,3.9848,4.0017,4.0342,4.0565,4.0702,4.0702,4.0702,4.0702,4.0702,4.0815,4.1043,3.0629,3.0653,3.0538,3.0104,2.9989,2.9768,2.9177,2.9032,2.9014,2.9014,2.9014,2.9014,2.9014,2.9014,2.9014,2.9014,2.942,2.9833,3.0157,3.0489,3.0733,3.0889,3.0889,3.0889,3.0889,3.0889,3.0889,3.0889,3.0644,3.0671,3.0949,3.1062,3.1291,3.1562,3.1873,3.2023,3.2012,3.1785,3.1692,3.1671,3.1491,3.1408,3.1408,3.1408,3.1408,3.1408,3.1408,3.1562,3.1782,3.1816,3.1899,3.1979,3.1979,3.1815,3.1593,3.1593,3.1593,3.1618,3.1772,3.195,3.2112,3.2261,3.2209,3.1939,3.1157,3.0778,3.0503,3.0239,3.0623,3.1006,3.1006,3.1385,3.1705,3.1705,3.1705,3.1739,3.1849,3.2169,3.2431,3.254,3.2887,3.3102,3.3102,3.3102,3.324,3.3535,3.3662,3.3873,3.4243,3.4356,3.4397,3.4397,3.4397,3.446,3.4618,3.4839,3.5664,3.7051,3.7371,3.813,3.9305,3.9305,3.9305,3.9305,3.9576,3.9818,4.0017,4.0298,4.0515,4.0702,4.0702,4.0702,4.0702,4.0702,4.0836,4.105,3.0304,3.0251,3.0009,2.9323,2.9377,2.9276,2.8595,2.8755,2.8925,2.8984,2.9014,2.9014,2.9014,2.9014,2.9014,2.9014,2.9302,2.9588,2.9804,3.0186,3.0509,3.0791,3.0859,3.0889,3.0889,3.0889,3.0889,3.0889,3.0889,3.0995,3.1247,3.1556,3.1903,3.2219,3.2526,3.2669,3.2677,3.2295,3.2129,3.2098,3.1754,3.1609,3.1609,3.1609,3.1609,3.1609,3.1609,3.1931,3.2327,3.2327,3.2405,3.2518,3.2442,3.2088,3.1713,3.1626,3.1593,3.1593,3.1593,3.2037,3.2493,3.2493,3.2565,3.2386,3.1467,3.1111,3.087,3.0423,3.0681,3.1006,3.1006,3.1385,3.1705,3.1705,3.1705,3.1705,3.1705,3.2047,3.2356,3.2388,3.2822,3.3102,3.3102,3.3102,3.3176,3.3377,3.3598,3.3831,3.4097,3.4293,3.4397,3.4397,3.4397,3.4397,3.4397,3.4673,3.5497,3.6914,3.7265,3.8087,3.9305,3.9305,3.9305,3.9305,3.9554,3.9752,3.9966,4.0233,4.0471,4.0659,4.068,4.0702,4.0702,4.0702,4.0836,4.1028,2.9822,2.9666,2.9404,2.9247,2.8968,2.8678,2.8529,2.8555,2.8666,2.8955,2.9014,2.9014,2.9014,2.9014,2.9014,2.9014,2.9302,2.9529,2.9558,3.0098,3.0411,3.048,3.0762,3.0889,3.0889,3.0889,3.0889,3.0889,3.0889,3.0918,3.0947,3.1247,3.1556,3.1874,3.2201,3.2487,3.2698,3.2636,3.2605,3.2605,3.2543,3.2522,3.2522,3.2522,3.2522,3.2522,3.2522,3.2647,3.2827,3.2827,3.2889,3.2934,3.2529,3.2365,3.2197,3.1735,3.1593,3.1593,3.1593,3.2037,3.2493,3.2493,3.2862,3.3017,3.242,3.1628,3.0973,3.0904,3.0949,3.1006,3.1006,3.1385,3.1705,3.1705,3.1705,3.1705,3.1705,3.1893,3.2147,3.2366,3.2822,3.3102,3.3102,3.3102,3.3176,3.3377,3.3598,3.3831,3.4097,3.4293,3.4397,3.4397,3.4397,3.4397,3.4397,3.4673,3.5497,3.6914,3.7136,3.7957,3.9305,3.9305,3.9305,3.9305,3.9349,3.9496,3.9766,3.998,4.0198,4.045,4.0616,4.0702,4.0702,4.0702,4.0836,4.0992,2.9504,2.9243,2.8936,2.8705,2.846,2.8219,2.7983,2.8268,2.8546,2.8696,2.8865,2.9014,2.9014,2.9014,2.9014,2.9014,2.9133,2.9302,2.9479,2.9892,3.0216,3.0382,3.0733,3.0889,3.0889,3.0889,3.0889,3.0889,3.0889,3.0889,3.0928,3.116,3.1383,3.1527,3.2076,3.2373,3.2498,3.2641,3.2698,3.2698,3.2698,3.2698,3.2698,3.2698,3.2698,3.2698,3.2698,3.2961,3.3289,3.3289,3.3384,3.3458,3.3235,3.2809,3.2339,3.2121,3.1822,3.1593,3.1593,3.2037,3.2493,3.2493,3.2894,3.3249,3.3007,3.2363,3.1754,3.149,3.1333,3.1271,3.1373,3.1441,3.1528,3.1683,3.1705,3.1705,3.1705,3.1871,3.2135,3.2506,3.2887,3.3102,3.3102,3.3102,3.3133,3.324,3.342,3.362,3.3852,3.4084,3.4272,3.4397,3.4397,3.4397,3.4397,3.4515,3.5123,3.6189,3.6748,3.7841,3.9305,3.9305,3.9305,3.9305,3.9305,3.9452,3.9722,3.9922,4.0154,4.0421,4.0616,4.0702,4.0702,4.0702,4.0751,4.0836]},{"header":{"parameterUnit":"m.s-1","parameterCategory":1,"la1":30.6,"la2":28.766,"lo1":-90.7593,"lo2":-88.6598,"dy":0.0162,"dx":0.0183,"nx":116,"ny":114,"refTime":"2024-05-06T12:00:00:Z","depth":0,"parameterNumber":3,"parameterNumberName":"V-component_of_WINDS"},"data":[0.0,0.0,0.0,0.0,0.0,0.0,0.0,0.0,0.0,0.0,0.0,0.0,0.0,0.0,0.0,0.0,0.0,0.0,0.0,0.0,0.0,0.0,0.0,0.0,0.0,0.0,0.0,0.0,0.0,0.0,0.0,0.0,0.0,0.0,0.0,0.0,0.0,0.0,0.0,0.0,0.0,0.0,0.0,0.0,0.0,0.0,0.0,0.0,0.0,0.0,0.0,0.0,0.0,0.0,0.0,0.0,0.0,0.0,0.0,0.0,0.0,0.0,0.0,0.0,0.0,0.0,0.0,0.0,0.0,0.0,0.0,0.0,0.0,0.0,0.0,0.0,0.0,0.0,0.0,0.0,0.0,0.0,0.0,0.0,0.0,0.0,0.0,0.0,0.0,0.0,0.0,0.0,0.0,0.0,0.0,0.0,0.0,0.0,0.0,0.0,0.0,0.0,0.0,0.0,0.0,0.0,0.0,0.0,0.0,0.0,0.0,0.0,0.0,0.0,0.0,0.0,0.0,0.0,0.0,0.0,0.0,0.0,0.0,0.0,0.0,0.0,0.0,0.0,0.0,0.0,0.0,0.0,0.0,0.0,0.0,0.0,0.0,0.0,0.0,0.0,0.0,0.0,0.0,0.0,0.0,0.0,0.0,0.0,0.0,0.0,0.0,0.0,0.0,0.0,0.0,0.0,0.0,0.0,0.0,0.0,0.0,0.0,0.0,0.0,0.0,0.0,0.0,0.0,0.0,0.0,0.0,0.0,0.0,0.0,0.0,0.0,0.0,0.0,0.0,0.0,0.0,0.0,0.0,0.0,0.0,0.0,0.0,0.0,0.0,0.0,0.0,0.0,0.0,0.0,0.0,0.0,0.0,0.0,0.0,0.0,0.0,0.0,0.0,0.0,0.0,0.0,0.0,0.0,0.0,0.0,0.0,0.0,0.0,0.0,0.0,0.0,0.0,0.0,0.0,0.0,0.0,0.0,0.0,0.0,0.0,0.0,0.0,0.0,0.0,0.0,0.0,0.0,0.0,0.0,0.0,0.0,0.0,0.0,0.0,0.0,0.0,0.0,0.0,0.0,0.0,0.0,0.0,0.0,0.0,0.0,0.0,0.0,0.0,0.0,0.0,0.0,0.0,0.0,0.0,0.0,0.0,0.0,0.0,0.0,0.0,0.0,0.0,0.0,0.0,0.0,0.0,0.0,0.0,0.0,0.0,0.0,0.0,0.0,0.0,0.0,0.0,0.0,0.0,0.0,0.0,0.0,0.0,0.0,0.0,0.0,0.0,0.0,0.0,0.0,0.0,0.0,0.0,0.0,0.0,0.0,0.0,0.0,0.0,0.0,0.0,0.0,0.0,0.0,0.0,0.0,0.0,0.0,0.0,0.0,0.0,0.0,0.0,0.0,0.0,0.0,0.0,0.0,0.0,0.0,0.0,0.0,0.0,0.0,0.0,0.0,0.0,0.0,0.0,0.0,0.0,0.0,0.0,0.0,0.0,0.0,0.0,0.0,0.0,0.0,0.0,0.0,0.0,0.0,0.0,0.0,0.0,0.0,0.0,0.0,0.0,0.0,0.0,0.0,0.0,0.0,0.0,0.0,0.0,0.0,0.0,0.0,0.0,0.0,0.0,0.0,0.0,0.0,0.0,0.0,0.0,0.0,0.0,0.0,0.0,0.0,0.0,0.0,0.0,0.0,0.0,0.0,0.0,0.0,0.0,0.0,0.0,0.0,0.0,0.0,0.0,0.0,0.0,0.0,0.0,0.0,0.0,0.0,0.0,0.0,0.0,0.0,0.0,0.0,0.0,0.0,0.0,0.0,0.0,0.0,0.0,0.0,0.0,0.0,0.0,0.0,0.0,0.0,0.0,0.0,0.0,0.0,0.0,0.0,0.0,0.0,0.0,0.0,0.0,0.0,0.0,0.0,0.0,0.0,0.0,0.0,0.0,0.0,0.0,0.0,0.0,0.0,0.0,0.0,0.0,0.0,0.0,0.0,0.0,0.0,0.0,0.0,0.0,0.0,0.0,0.0,0.0,0.0,0.0,0.0,0.0,0.0,0.0,0.0,0.0,0.0,0.0,0.0,0.0,0.0,0.0,0.0,0.0,0.0,0.0,0.0,0.0,0.0,0.0,0.0,0.0,0.0,0.0,0.0,0.0,0.0,0.0,0.0,0.0,0.0,0.0,0.0,0.0,0.0,0.0,0.0,0.0,0.0,0.0,0.0,0.0,0.0,0.0,0.0,0.0,0.0,0.0,0.0,0.0,0.0,0.0,0.0,0.0,0.0,0.0,0.0,0.0,0.0,0.0,0.0,0.0,0.0,0.0,0.0,0.0,0.0,0.0,0.0,0.0,0.0,0.0,0.0,0.0,0.0,0.0,0.0,0.0,0.0,0.0,0.0,0.0,0.0,0.0,0.0,0.0,0.0,0.0,0.0,0.0,0.0,0.0,0.0,0.0,0.0,0.0,0.0,0.0,0.0,0.0,0.0,0.0,0.0,0.0,0.0,0.0,0.0,0.0,0.0,0.0,0.0,0.0,0.0,0.0,0.0,0.0,0.0,0.0,0.0,0.0,0.0,0.0,0.0,0.0,0.0,0.0,0.0,0.0,0.0,0.0,0.0,0.0,0.0,0.0,0.0,0.0,0.0,0.0,0.0,0.0,0.0,0.0,0.0,0.0,0.0,0.0,0.0,0.0,0.0,0.0,0.0,0.0,0.0,0.0,0.0,0.0,0.0,0.0,0.0,0.0,0.0,0.0,0.0,0.0,0.0,0.0,0.0,0.0,0.0,0.0,0.0,0.0,0.0,0.0,0.0,0.0,0.0,0.0,0.0,0.0,0.0,0.0,0.0,0.0,0.0,0.0,0.0,0.0,0.0,0.0,0.0,0.0,0.0,0.0,0.0,0.0,0.0,0.0,0.0,0.0,0.0,0.0,0.0,0.0,0.0,0.0,0.0,0.0,0.0,0.0,0.0,0.0,0.0,0.0,0.0,0.0,0.0,0.0,0.0,0.0,0.0,0.0,0.0,0.0,0.0,0.0,0.0,0.0,0.0,0.0,0.0,0.0,0.0,0.0,0.0,0.0,0.0,0.0,0.0,0.0,0.0,0.0,0.0,0.0,0.0,0.0,0.0,0.0,0.0,0.0,0.0,0.0,0.0,0.0,0.0,0.0,0.0,0.0,0.0,0.0,0.0,0.0,0.0,0.0,0.0,0.0,0.0,0.0,0.0,0.0,0.0,0.0,0.0,0.0,0.0,0.0,0.0,0.0,0.0,0.0,0.0,0.0,0.0,0.0,0.0,0.0,0.0,0.0,0.0,0.0,0.0,0.0,0.0,0.0,0.0,0.0,0.0,0.0,0.0,0.0,0.0,0.0,0.0,0.0,0.0,0.0,0.0,0.0,0.0,0.0,0.0,0.0,0.0,0.0,0.0,0.0,0.0,0.0,0.0,0.0,0.0,0.0,0.0,0.0,0.0,0.0,0.0,0.0,0.0,0.0,0.0,0.0,0.0,0.0,0.0,0.0,0.0,0.0,0.0,0.0,0.0,0.0,0.0,0.0,0.0,0.0,0.0,0.0,0.0,0.0,0.0,0.0,0.0,0.0,0.0,0.0,0.0,0.0,0.0,0.0,0.0,0.0,0.0,0.0,0.0,0.0,0.0,0.0,0.0,0.0,0.0,0.0,0.0,0.0,0.0,0.0,0.0,0.0,0.0,0.0,0.0,0.0,0.0,0.0,0.0,0.0,0.0,0.0,0.0,0.0,0.0,0.0,0.0,0.0,0.0,0.0,0.0,0.0,0.0,0.0,0.0,0.0,0.0,0.0,0.0,0.0,0.0,0.0,0.0,0.0,0.0,0.0,0.0,0.0,0.0,0.0,0.0,0.0,0.0,0.0,0.0,0.0,0.0,0.0,0.0,0.0,0.0,0.0,0.0,0.0,0.0,0.0,0.0,0.0,0.0,0.0,0.0,0.0,0.0,0.0,0.0,0.0,0.0,0.0,0.0,0.0,0.0,0.0,0.0,0.0,0.0,0.0,0.0,0.0,0.0,0.0,0.0,0.0,0.0,0.0,0.0,0.0,0.0,0.0,0.0,0.0,0.0,0.0,0.0,0.0,0.0,0.0,0.0,0.0,0.0,0.0,0.0,0.0,0.0,0.0,0.0,0.0,0.0,0.0,0.0,0.0,0.0,0.0,0.0,0.0,0.0,0.0,0.0,0.0,0.0,0.0,0.0,0.0,0.0,0.0,0.0,0.0,0.0,0.0,0.0,0.0,0.0,0.0,0.0,0.0,0.0,0.0,0.0,0.0,0.0,0.0,0.0,0.0,0.0,0.0,0.0,0.0,0.0,0.0,0.0,0.0,0.0,0.0,0.0,0.0,0.0,0.0,0.0,0.0,0.0,0.0,0.0,0.0,0.0,0.0,0.0,0.0,0.0,0.0,0.0,0.0,0.0,0.0,0.0,0.0,0.0,0.0,0.0,0.0,0.0,0.0,0.0,0.0,0.0,0.0,0.0,0.0,0.0,0.0,0.0,0.0,0.0,0.0,0.0,0.0,0.0,0.0,0.0,0.0,0.0,0.0,0.0,0.0,0.0,0.0,0.0,0.0,0.0,0.0,0.0,0.0,0.0,0.0,0.0,0.0,0.0,0.0,0.0,0.0,0.0,0.0,0.0,0.0,0.0,0.0,0.0,0.0,0.0,0.0,0.0,0.0,0.0,0.0,0.0,0.0,0.0,0.0,0.0,0.0,0.0,0.0,0.0,0.0,0.0,0.0,0.0,0.0,0.0,0.0,0.0,0.0,0.0,0.0,0.0,0.0,0.0,0.0,0.0,0.0,0.0,0.0,0.0,0.0,0.0,0.0,0.0,0.0,0.0,0.0,0.0,0.0,0.0,0.0,0.0,0.0,0.0,0.0,0.0,0.0,0.0,0.0,0.0,0.0,0.0,0.0,0.0,0.0,0.0,0.0,0.0,0.0,0.0,0.0,0.0,0.0,0.0,0.0,0.0,0.0,0.0,0.0,0.0,0.0,0.0,0.0,0.0,0.0,0.0,0.0,0.0,0.0,0.0,0.0,0.0,0.0,0.0,0.0,0.0,0.0,0.0,0.0,0.0,0.0,0.0,0.0,0.0,0.0,0.0,0.0,0.0,0.0,0.0,0.0,0.0,0.0,0.0,0.0,0.0,0.0,0.0,0.0,0.0,0.0,0.0,0.0,0.0,0.0,0.0,0.0,0.0,0.0,0.0,0.0,0.0,0.0,0.0,0.0,0.0,0.0,0.0,0.0,0.0,0.0,0.0,0.0,0.0,0.0,0.0,0.0,0.0,0.0,0.0,0.0,0.0,0.0,0.0,0.0,0.0,0.0,0.0,0.0,0.0,0.0,0.0,0.0,0.0,0.0,0.0,0.0,0.0,0.0,0.0,0.0,0.0,0.0,0.0,0.0,0.0,0.0,0.0,0.0,0.0,0.0,0.0,0.0,0.0,0.0,0.0,0.0,0.0,0.0,0.0,0.0,0.0,0.0,0.0,0.0,0.0,0.0,0.0,0.0,0.0,0.0,0.0,0.0,0.0,0.0,0.0,0.0,0.0,0.0,0.0,0.0,0.0,0.0,0.0,0.0,0.0,0.0,0.0,0.0,0.0,0.0,0.0,0.0,0.0,0.0,0.0,0.0,0.0,0.0,0.0,0.0,0.0,0.0,0.0,0.0,0.0,0.0,0.0,0.0,0.0,0.0,0.0,0.0,0.0,0.0,0.0,0.0,0.0,0.0,0.0,0.0,0.0,0.0,0.0,0.0,0.0,0.0,0.0,0.0,0.0,0.0,0.0,0.0,0.0,0.0,0.0,0.0,0.0,0.0,0.0,0.0,0.0,0.0,0.0,0.0,0.0,0.0,0.0,0.0,0.0,0.0,0.0,0.0,0.0,0.0,0.0,0.0,0.0,0.0,0.0,0.0,0.0,0.0,0.0,0.0,0.0,0.0,0.0,0.0,0.0,0.0,0.0,0.0,0.0,0.0,0.0,0.0,0.0,0.0,0.0,0.0,0.0,0.0,0.0,0.0,0.0,0.0,0.0,0.0,0.0,2.3368,0.0,0.0,0.0,0.0,0.0,0.0,0.0,0.0,0.0,0.0,0.0,0.0,0.0,0.0,0.0,0.0,0.0,0.0,0.0,0.0,0.0,0.0,0.0,0.0,1.3078,1.3435,1.3572,1.4072,1.4413,1.4478,0.0,0.0,0.0,0.0,0.0,1.6103,1.6698,1.7136,1.7402,1.7785,1.8124,1.8366,1.7219,1.6542,1.6286,0.0,0.0,0.0,0.0,0.0,0.0,0.0,0.0,0.0,0.0,0.0,0.0,0.0,0.0,0.0,0.0,0.0,0.0,0.0,0.0,0.0,0.0,0.0,0.0,0.0,0.0,0.0,0.0,0.0,0.0,0.0,0.0,0.0,0.0,0.0,0.0,0.0,0.0,0.0,0.0,0.0,0.0,0.0,0.0,0.0,0.0,0.0,0.0,0.0,0.0,0.0,0.0,0.0,0.0,0.0,0.0,0.0,0.0,0.0,0.0,0.0,0.0,0.0,0.0,0.0,0.0,0.0,0.0,0.0,0.0,0.0,2.4147,0.0,0.0,0.0,0.0,0.0,0.0,0.0,0.0,0.0,0.0,0.0,0.0,0.0,0.0,0.0,0.0,0.0,0.0,0.0,0.0,0.0,1.2597,1.3207,1.3668,1.4016,1.4223,1.473,1.5044,1.5044,1.564,0.0,0.0,0.0,1.7594,1.7617,1.8139,1.8528,1.8731,1.9042,1.9204,1.9227,1.9227,1.8994,1.8551,1.7621,0.0,0.0,0.0,0.0,0.0,0.0,0.0,0.0,0.0,0.0,0.0,0.0,0.0,0.0,0.0,0.0,0.0,0.0,0.0,0.0,0.0,0.0,0.0,0.0,0.0,0.0,0.0,0.0,0.0,0.0,0.0,0.0,0.0,0.0,0.0,0.0,0.0,0.0,0.0,0.0,0.0,0.0,0.0,0.0,0.0,0.0,0.0,0.0,0.0,0.0,0.0,0.0,0.0,0.0,0.0,0.0,0.0,0.0,0.0,0.0,0.0,0.0,0.0,2.9263,2.947,2.979,2.9901,2.9847,2.9577,2.7352,2.6174,2.5807,0.0,0.0,0.0,0.0,0.0,0.0,0.0,0.0,0.0,0.0,0.0,0.0,0.0,0.0,0.0,0.0,0.0,0.0,0.0,0.0,1.3232,1.3894,1.4038,1.4264,1.4755,1.5276,1.558,1.558,1.6583,1.7227,1.7338,1.7947,1.8324,1.8439,1.8527,1.9053,2.0053,2.1067,2.1609,2.173,2.173,2.1758,2.1694,1.9403,1.8344,1.8228,0.0,0.0,0.0,0.0,0.0,0.0,0.0,0.0,0.0,0.0,0.0,0.0,0.0,0.0,0.0,0.0,0.0,0.0,0.0,0.0,0.0,0.0,0.0,0.0,0.0,0.0,0.0,0.0,0.0,0.0,0.0,0.0,0.0,0.0,0.0,0.0,0.0,0.0,0.0,0.0,0.0,2.0281,2.0438,0.0,0.0,0.0,0.0,0.0,0.0,0.0,0.0,0.0,0.0,0.0,0.0,0.0,2.8912,2.9533,2.9533,2.9613,2.9787,3.0246,3.0503,3.0579,3.1103,3.1329,3.1279,3.0924,0.0,2.7807,2.7631,0.0,0.0,0.0,0.0,0.0,0.0,0.0,0.0,0.0,0.0,0.0,0.0,0.0,0.0,0.0,0.0,0.0,0.0,0.0,0.0,0.0,1.4639,1.5085,1.5326,1.6216,1.6775,1.6775,1.759,1.8104,1.8161,1.8993,1.9503,1.954,2.0256,2.0901,2.1484,2.1991,2.2408,2.2761,2.2449,2.2503,2.2791,2.1368,2.038,1.9731,1.9173,0.0,0.0,0.0,0.0,0.0,0.0,0.0,0.0,0.0,0.0,0.0,0.0,0.0,0.0,0.0,0.0,0.0,0.0,0.0,0.0,0.0,0.0,0.0,0.0,0.0,0.0,0.0,0.0,0.0,0.0,0.0,0.0,0.0,0.0,0.0,0.0,0.0,0.0,0.0,2.072,2.1917,2.2339,2.3175,2.396,0.0,0.0,0.0,0.0,0.0,0.0,0.0,0.0,0.0,2.9596,2.9948,3.0474,3.1186,3.1541,3.1847,3.2147,3.2384,3.245,3.2388,3.2662,3.2726,3.2612,3.2612,3.2053,3.1035,2.9812,2.8978,2.8469,0.0,0.0,0.0,0.0,2.761,2.7571,0.0,0.0,0.0,0.0,0.0,0.0,0.0,0.0,0.0,0.0,0.0,0.0,1.4296,1.5135,1.5827,1.6157,1.705,1.7673,1.7836,1.844,1.8895,1.9072,2.0026,2.0643,2.0836,2.2055,2.2813,2.3067,2.3198,2.35,2.3922,2.3531,2.3585,2.3979,2.3574,2.2561,2.1105,2.0661,2.0113,1.9525,0.0,0.0,0.0,0.0,0.0,0.0,0.0,0.0,0.0,0.0,0.0,0.0,0.0,0.0,0.0,0.0,0.0,0.0,0.0,0.0,0.0,0.0,0.0,0.0,0.0,0.0,0.0,0.0,0.0,0.0,0.0,0.0,0.0,0.0,0.0,0.0,0.0,2.2485,2.3361,2.4072,2.4862,2.5587,0.0,0.0,0.0,0.0,0.0,0.0,2.9774,3.0247,3.0676,3.106,3.151,3.2028,3.263,3.3083,3.3512,3.3908,3.407,3.4161,3.4212,3.4361,3.4444,3.4453,3.4292,3.4144,3.3843,3.1952,3.0925,3.055,3.0246,3.0137,3.0074,2.9725,2.96,2.9569,0.0,0.0,0.0,0.0,0.0,0.0,0.0,0.0,0.0,0.0,0.0,1.4296,1.4805,1.5351,1.6183,1.7398,1.7549,1.7873,1.8512,1.9065,1.9666,2.037,2.0953,2.1588,2.227,2.3418,2.4295,2.4874,2.538,2.5732,2.5959,2.5933,2.601,2.613,2.6119,2.4682,2.231,2.2284,2.1917,2.1316,2.0792,0.0,0.0,0.0,0.0,0.0,0.0,0.0,0.0,0.0,0.0,0.0,0.0,0.0,0.0,0.0,0.0,0.0,0.0,0.0,0.0,0.0,0.0,0.0,0.0,0.0,0.0,0.0,0.0,0.0,0.0,0.0,0.0,0.0,0.0,0.0,0.0,0.0,0.0,2.5342,2.6561,0.0,0.0,0.0,0.0,3.0194,3.0262,3.0808,3.1979,3.2074,3.2584,3.3672,3.3739,3.3766,3.3813,3.384,3.3861,3.3921,3.4477,3.5046,3.5622,3.6191,3.6754,3.7261,3.6686,3.6103,3.5473,3.3897,3.3233,3.3206,3.3187,3.3187,3.3068,3.2306,3.2019,3.1901,0.0,0.0,0.0,0.0,0.0,1.1158,1.1449,1.2286,1.3102,1.3693,1.4274,1.4818,1.5361,1.6315,1.7111,1.7549,1.8386,1.9147,1.9777,2.0408,2.103,2.1694,2.2241,2.304,2.4167,2.4985,2.553,2.5849,2.6418,2.694,2.7389,2.7394,2.7626,2.8005,2.7232,2.6357,2.5415,2.4288,2.3466,2.287,2.2273,2.1716,0.0,0.0,0.0,0.0,0.0,0.0,0.0,0.0,0.0,0.0,0.0,0.0,0.0,0.0,0.0,0.0,0.0,0.0,0.0,0.0,0.0,0.0,0.0,0.0,0.0,0.0,0.0,0.0,0.0,0.0,0.0,0.0,0.0,0.0,0.0,0.0,0.0,2.74,2.826,0.0,0.0,3.0279,3.0911,3.1522,3.2041,3.2686,3.3511,3.3664,3.3931,3.4333,3.5107,3.5519,3.5519,3.6282,3.668,3.668,3.69,3.7106,3.7325,3.7531,3.7667,3.7747,3.7528,3.7226,3.6808,3.6277,3.5063,3.3593,3.3457,3.3399,3.3372,3.3075,3.2976,3.293,0.0,0.0,0.0,0.9855,1.0743,1.1518,1.1774,1.2593,1.3416,1.4018,1.4563,1.512,1.5694,1.686,1.7709,1.7981,1.8979,1.9953,2.0783,2.1251,2.1878,2.2718,2.3521,2.4553,2.5864,2.6476,2.6921,2.7203,2.7821,2.8332,2.8766,2.8772,2.902,2.9446,2.8641,2.8292,2.8198,2.6831,2.5603,2.4512,2.3724,2.3191,2.2791,0.0,0.0,0.0,0.0,0.0,0.0,0.0,0.0,0.0,0.0,0.0,0.0,0.0,0.0,0.0,0.0,0.0,0.0,0.0,0.0,0.0,0.0,0.0,0.0,0.0,0.0,0.0,0.0,0.0,0.0,0.0,0.0,0.0,0.0,0.0,2.819,2.9102,2.9987,3.0675,3.1066,3.19,3.2582,3.2978,3.3504,3.4156,3.4967,3.5129,3.538,3.5809,3.6597,3.7011,3.7011,3.7786,3.82,3.82,3.82,3.8311,3.8504,3.8504,3.853,3.8603,3.8376,3.8209,3.8026,3.7821,3.6695,3.5094,3.4868,3.4788,3.4788,3.4707,3.4687,3.4667,0.0,0.9551,0.9782,1.0395,1.105,1.1699,1.2312,1.2856,1.3416,1.4035,1.4576,1.5172,1.5881,1.6964,1.7968,1.8764,1.9333,2.0186,2.1446,2.1551,2.2167,2.3502,2.4781,2.6028,2.7205,2.7832,2.8432,2.9053,2.9644,3.0007,3.0133,3.016,3.026,3.0455,3.0428,3.0428,3.0391,2.9784,2.833,2.6323,2.5166,2.4687,2.454,0.0,0.0,0.0,0.0,0.0,0.0,0.0,0.0,0.0,0.0,0.0,0.0,0.0,0.0,0.0,0.0,0.0,0.0,0.0,0.0,0.0,0.0,0.0,0.0,0.0,0.0,0.0,0.0,0.0,0.0,0.0,0.0,0.0,2.8644,2.8684,2.9159,3.0341,3.1699,3.2581,3.2581,3.3817,3.4652,3.4652,3.468,3.5206,3.6395,3.6464,3.7018,3.818,3.8235,3.8249,3.8249,3.8263,3.8276,3.8276,3.8276,3.858,3.9147,3.9147,3.9465,3.9968,3.9374,3.9126,3.9084,3.8504,3.813,3.7941,3.7626,3.7507,3.7464,3.7286,3.7201,3.7179,0.9504,0.9551,0.9782,1.0395,1.105,1.1699,1.2312,1.2856,1.3554,1.4554,1.4895,1.5587,1.6979,1.7936,1.8731,1.9333,2.0354,2.1316,2.21,2.2653,2.3528,2.4808,2.6052,2.7119,2.8056,2.8614,2.9252,3.0024,3.0618,3.0924,3.0986,3.1423,3.1644,3.1698,3.1246,3.1042,3.1015,3.0405,2.9811,2.9133,2.7498,2.6593,2.6065,0.0,0.0,0.0,0.0,0.0,0.0,0.0,0.0,0.0,0.0,0.0,0.0,0.0,0.0,0.0,0.0,0.0,0.0,0.0,0.0,0.0,0.0,0.0,0.0,0.0,0.0,0.0,0.0,0.0,0.0,0.0,0.0,2.9971,2.9523,3.0603,3.1596,3.2079,3.3252,3.402,3.402,3.4767,3.5441,3.5883,3.6444,3.7107,3.7886,3.8118,3.8368,3.8683,3.9131,3.9369,3.9369,3.9802,4.0005,4.0005,4.0005,4.011,4.0256,4.0256,4.0268,4.0284,4.0096,3.9926,3.9733,3.9568,3.9455,3.9308,3.8229,3.7676,3.7485,3.7456,3.7435,3.7414,0.9504,0.9578,0.9908,1.0723,1.1248,1.1805,1.2605,1.3211,1.3912,1.4818,1.5227,1.6028,1.7555,1.8372,1.9045,1.9626,2.0858,2.1839,2.2443,2.3705,2.4978,2.6228,2.7243,2.8118,2.8855,2.9673,3.0315,3.0785,3.163,3.2051,3.2065,3.2754,3.3082,3.3068,3.2787,3.2673,3.2632,3.2043,3.1633,3.1291,2.9947,2.8661,2.7418,2.6211,2.575,2.5601,2.4312,2.3636,2.323,2.2289,0.0,0.0,0.0,0.0,0.0,0.0,0.0,0.0,0.0,0.0,0.0,0.0,0.0,0.0,0.0,0.0,0.0,0.0,0.0,0.0,0.0,0.0,0.0,0.0,3.1069,3.1664,3.1906,3.2333,3.2866,3.3486,3.4478,3.5195,3.5459,3.6106,3.6777,3.7404,3.7881,3.8403,3.9019,3.9199,3.9388,3.9655,3.9992,4.0189,4.0189,4.0519,4.0702,4.0702,4.0702,4.0702,4.0702,4.0702,4.0651,0.0,4.0536,4.0436,4.0278,4.0278,4.0249,0.0,0.0,0.0,0.0,0.0,3.8352,3.8252,0.9504,0.9611,1.0054,1.1203,1.1517,1.1964,1.3044,1.3715,1.4323,1.4914,1.5536,1.6439,1.7849,1.8489,1.9106,1.984,2.1063,2.2141,2.2896,2.4745,2.6316,2.7476,2.8278,2.8983,2.958,3.0738,3.139,3.1544,3.264,3.3203,3.3285,3.4005,3.4327,3.4346,3.4517,3.4611,3.4569,3.403,3.3449,3.2854,3.2183,3.0681,2.8701,2.7505,2.7026,2.6833,2.5642,2.5194,2.5018,2.3811,0.0,0.0,0.0,0.0,0.0,0.0,0.0,0.0,0.0,0.0,0.0,0.0,0.0,0.0,0.0,0.0,0.0,0.0,0.0,0.0,0.0,0.0,0.0,0.0,3.2833,3.3498,3.4855,3.4015,3.367,3.4736,3.5555,3.6283,3.6898,3.7582,3.8291,3.8938,3.9015,3.9261,3.988,0.0,0.0,0.0,0.0,4.0702,4.0702,4.0772,4.08,4.08,4.087,4.0912,4.0912,4.0912,4.0912,4.0912,4.0912,4.0912,4.0912,4.0912,4.0818,4.0602,4.0174,3.9996,3.9988,3.9796,3.9584,3.9372,0.9504,0.9611,1.0054,1.1203,1.1517,1.1964,1.3044,1.3715,1.4323,1.4914,1.557,1.6661,1.8429,1.878,1.933,2.0425,2.1694,2.3189,2.4976,2.5934,2.6804,2.7631,2.8736,2.9607,3.0215,3.1091,3.203,3.2987,3.3386,3.3831,3.4318,3.448,3.4535,3.4535,3.4592,3.4611,3.4597,3.4486,3.4085,3.3476,3.285,3.1692,3.0152,2.8951,2.8391,2.8085,2.6889,2.6455,2.6279,2.5059,2.4624,2.4434,2.3351,2.2986,0.0,0.0,0.0,0.0,0.0,0.0,0.0,0.0,0.0,0.0,0.0,0.0,0.0,0.0,0.0,0.0,0.0,0.0,0.0,3.2903,3.3815,3.4813,3.5728,3.605,3.6264,3.6503,3.7097,3.7754,3.8419,3.8608,3.8952,3.9584,3.9627,3.9894,4.0491,4.0519,4.0575,4.0702,4.0702,4.0702,4.0702,4.1193,4.1446,4.1446,0.0,0.0,4.2241,4.2241,4.2241,4.2241,4.2241,4.2241,4.2241,4.2241,4.2219,4.2032,4.0572,3.9996,4.0009,3.9966,3.9922,3.9834,0.9504,0.9817,1.0386,1.1247,1.1734,1.227,1.3073,1.3944,1.4636,1.5057,1.5895,1.7063,1.8664,1.8876,1.9405,2.0695,2.2021,2.3781,2.6107,2.6526,2.7124,2.8112,2.9391,3.0245,3.0528,3.1593,3.2624,3.3565,3.3956,3.4467,3.5067,3.5462,3.5653,3.5673,3.5774,3.5798,3.5784,3.5478,3.5171,3.4827,3.387,3.3024,3.2127,3.051,2.9654,2.9173,2.8204,2.7639,2.72,2.6227,2.5899,2.5804,2.5194,2.5004,2.495,0.0,0.0,0.0,0.0,0.0,0.0,0.0,0.0,0.0,0.0,0.0,0.0,0.0,0.0,3.0642,0.0,0.0,3.3598,3.4334,3.5041,3.5849,3.6852,3.7265,3.7442,3.7442,3.801,3.8657,3.9289,3.9345,3.9598,4.0196,4.0238,4.0378,4.0674,4.0702,4.0702,4.0702,4.0997,4.1151,4.1151,4.1783,4.2093,4.2093,4.2452,4.2607,4.2607,4.2607,4.2607,4.2607,4.2607,4.2607,4.2607,4.2607,4.2607,4.2514,4.1638,4.1232,4.1107,4.1107,4.1055,4.0935,0.9504,1.0128,1.0836,1.1314,1.1958,1.2588,1.3123,1.4192,1.4999,1.5178,1.6198,1.7428,1.8757,1.8909,1.9579,2.1174,2.2349,2.4081,2.663,2.6793,2.7352,2.8594,2.9955,3.0712,3.0733,3.2061,3.3135,3.3933,3.4445,3.5088,3.582,3.6451,3.6766,3.6766,3.6915,3.6998,3.697,3.6478,3.6216,3.5986,3.4857,3.4214,3.3762,3.2034,3.0948,3.0256,2.9536,2.8869,2.8189,2.746,2.7111,2.7003,2.6849,2.6793,2.6699,2.6212,2.6415,0.0,0.0,0.0,0.0,0.0,0.0,0.0,0.0,0.0,3.0251,3.1098,3.1689,3.229,3.3074,3.3829,3.4664,3.5688,3.6185,3.6787,3.7751,3.8102,3.8271,3.8271,3.8755,3.9303,3.9922,3.9978,4.0189,4.0659,4.0702,4.0702,4.0702,4.0702,4.0744,4.087,4.1362,4.1649,4.1797,4.2466,4.2775,4.2789,4.2902,4.2958,4.2958,4.2958,4.2958,4.2958,4.2958,4.2958,4.2958,4.2958,4.2958,4.2958,4.2958,4.2831,4.2593,4.2356,4.2173,4.2028,0.9504,1.0473,1.1314,1.1395,1.1958,1.2588,1.3123,1.4269,1.5111,1.5187,1.6239,1.7482,1.8757,1.9012,2.0071,2.2561,2.2909,2.4081,2.663,2.6793,2.7383,2.8709,3.0005,3.075,3.0874,3.2239,3.3559,3.4776,3.5013,3.5718,3.6822,3.6911,3.6973,3.6973,3.6978,3.6998,3.6998,3.6928,3.659,3.6047,3.5358,3.4716,3.4068,3.3325,3.2448,3.1516,3.0891,3.0267,2.9658,2.8908,2.8283,2.766,2.7016,2.6793,2.6779,2.6726,0.0,2.6794,2.6726,2.7653,0.0,2.9326,3.0,3.0568,0.0,0.0,3.1112,3.2338,3.277,3.3298,3.4455,3.5316,3.5911,3.6037,3.6978,3.7751,3.7878,3.8861,3.9598,3.9598,3.9655,3.995,4.0533,4.0603,4.0631,4.0688,4.0702,4.0702,4.0702,4.0702,4.0955,4.1467,4.1551,4.1896,4.248,4.309,4.3399,4.3399,4.3947,4.4214,4.4214,4.4214,4.4214,4.4214,4.4214,4.4214,4.4214,4.4214,4.4214,4.4214,4.4214,4.4177,4.4013,4.2955,4.2525,4.248,0.9906,1.0677,1.1405,1.1799,1.2415,1.2943,1.3173,1.4288,1.5121,1.5187,1.6249,1.7493,1.8757,1.9689,2.0966,2.2842,2.3069,2.4163,2.663,2.6914,2.7522,2.8755,3.0207,3.1009,3.1062,3.2444,3.3608,3.449,3.4965,3.5639,3.6478,3.6843,3.6998,3.6998,3.6998,3.6998,3.6998,3.6998,3.6857,3.6534,3.5583,3.5034,3.466,3.3673,3.3052,3.2591,3.1861,3.1201,0.0,3.0199,2.9871,2.9593,2.9278,2.918,2.918,2.918,2.918,0.0,2.918,0.0,0.0,0.0,3.0943,3.1564,3.2062,3.2427,3.2945,3.398,3.4252,3.4573,3.5442,3.5878,3.6216,0.0,3.733,3.8032,3.8432,3.9247,3.9936,4.0266,4.0308,4.0407,4.0674,4.0702,4.0702,4.0702,4.0702,4.0702,4.0702,4.1039,4.1348,4.1579,4.2331,4.2837,4.3104,4.3722,4.4031,4.4031,4.4284,4.4387,4.4387,4.4387,4.4387,4.4387,4.4387,4.4387,4.4387,4.4387,4.4387,4.4387,4.4387,4.4387,4.4355,4.3835,4.3652,4.3615,1.0226,1.0914,1.1594,1.2103,1.2746,1.3181,1.3198,1.4293,1.5159,1.5187,1.6279,1.7557,1.8873,2.0196,2.1549,2.2922,2.3149,2.415,2.6401,2.6894,2.7547,2.8588,3.0125,3.1059,3.1277,3.2442,3.3434,3.4203,3.4688,3.5344,3.6117,3.6548,3.6843,3.6998,3.6998,3.6998,3.6998,3.6998,3.6998,3.6885,3.5695,3.5189,3.5062,3.3789,3.3308,3.322,3.2636,3.2042,3.1495,3.1309,3.1117,3.0962,3.0911,3.0894,3.0894,3.0894,3.0894,3.0936,3.1102,0.0,0.0,3.1643,3.2107,3.2681,3.3499,3.3992,3.4486,3.5283,3.5442,3.5625,3.6225,3.6337,0.0,3.7153,3.7771,3.8404,3.905,3.9669,4.0196,4.0645,4.0702,4.0702,4.0702,4.0702,4.0702,4.0702,4.0702,4.0772,4.094,4.1376,4.1747,4.2098,4.302,4.3582,4.375,4.4186,4.4387,4.4387,4.4387,4.4387,4.4387,4.4387,4.4387,4.4387,4.4387,4.4387,4.4387,4.4387,4.4387,4.4387,4.4387,4.4387,4.4387,4.4387,4.4387,4.4387,1.0298,1.1197,1.2021,1.2164,1.2704,1.3124,1.3189,1.4332,1.5197,1.5197,1.637,1.7728,1.9134,2.0304,2.1601,2.3067,2.3202,2.3974,2.582,2.6663,2.7429,2.8186,2.9567,3.0692,3.1471,3.2117,3.3013,3.4203,3.4217,3.4867,3.6103,3.6131,3.6436,3.6998,3.6998,3.6998,3.6998,3.6998,3.6998,3.6885,3.5695,3.5189,3.5062,3.3789,3.3308,3.3308,3.328,3.2887,3.2336,3.2137,3.1667,3.1146,3.0962,3.0894,3.0894,3.0894,3.0894,3.1033,0.0,0.0,3.235,3.3517,3.3978,3.4301,3.4974,3.5147,3.533,3.5949,3.6075,3.6253,3.6857,3.697,3.7181,3.7765,3.8432,3.9064,3.9697,4.028,4.0674,4.0702,4.0702,4.0702,0.0,4.0702,4.0702,4.0702,4.0702,4.0969,4.1537,4.1579,4.2177,4.3399,4.3469,4.3778,4.4383,4.4397,4.4387,4.4387,4.4387,4.4387,4.4387,4.4387,4.4387,4.4387,4.4387,4.4387,4.4387,4.4387,4.4387,4.4387,4.4387,4.4387,4.4387,4.4387,4.4387,4.4387,1.0755,1.1431,1.2089,1.2577,1.2829,1.3154,1.3701,1.4601,1.5325,1.5681,1.7253,0.0,0.0,0.0,0.0,0.0,2.3202,2.4001,2.591,2.6783,2.7568,2.8299,2.9682,3.0563,3.0823,3.1862,3.2592,3.3013,3.381,3.4413,3.4839,3.5283,3.5822,3.6393,3.6393,3.6632,3.697,3.6562,3.6393,3.6281,3.504,3.4548,3.445,3.3617,3.3308,3.3308,0.0,3.3168,3.2999,3.2915,3.2758,3.2576,3.2507,3.2489,3.2489,3.2489,3.2783,3.3128,3.3338,0.0,3.4255,3.4657,3.4811,3.503,3.5653,3.5808,3.5977,3.6562,3.6703,3.6759,3.697,3.6998,3.7082,3.7279,3.8207,3.8986,3.9163,4.0076,4.0702,4.0702,4.0702,0.0,0.0,0.0,0.0,4.0702,4.0702,4.0969,4.1565,4.2022,4.264,4.3469,4.3891,4.42,4.4387,4.4387,4.4387,4.4387,4.4387,4.4387,4.4387,4.4387,4.4387,4.4387,4.4387,4.4387,4.4387,4.4387,4.4387,4.4387,4.4387,4.4387,4.4387,4.4387,4.4387,4.4387,0.0,1.1825,1.2333,1.2821,1.2896,0.0,0.0,0.0,0.0,0.0,0.0,0.0,0.0,0.0,0.0,0.0,0.0,2.3933,2.5667,2.6527,2.7311,2.8042,2.9215,3.0064,3.05,3.13,3.1932,3.2412,3.3182,3.3768,3.4217,3.4632,3.5171,3.578,3.578,3.5991,3.6323,3.5949,3.578,3.5695,3.4628,3.4203,3.4133,3.3533,3.3308,0.0,3.3308,3.3308,3.3308,3.3308,3.3308,3.3308,3.3308,3.3308,3.335,3.3575,3.3894,3.4245,3.4488,3.4875,3.5245,3.547,3.5513,3.5681,3.6267,3.6408,3.652,3.6928,3.6998,3.6998,3.6998,3.6998,3.7082,3.7293,3.801,3.8699,3.9149,3.9894,4.0449,4.0674,4.0702,0.0,0.0,0.0,0.0,4.0702,4.0702,4.1067,4.191,4.2382,4.2986,4.3807,4.4214,4.4387,4.4387,4.4387,4.4387,4.4387,4.4387,4.4387,4.4387,4.4387,4.4387,4.4387,4.4387,4.4387,4.4387,4.4387,4.4387,4.4387,4.4387,4.4387,4.4387,4.4387,4.4387,4.4387,0.0,0.0,1.2745,0.0,0.0,0.0,0.0,0.0,0.0,0.0,0.0,0.0,0.0,0.0,0.0,0.0,0.0,0.0,2.5079,2.5948,2.6728,2.743,2.8249,2.9237,3.0387,3.0472,3.1089,3.2297,3.237,3.2985,3.4104,3.4147,3.452,3.5147,3.5147,3.5179,3.5189,3.5161,3.5147,3.5091,3.4417,3.4147,3.409,3.3533,3.3308,3.3308,3.3308,3.3308,3.3308,3.3308,3.3308,3.3308,3.3308,0.0,0.0,0.0,0.0,3.4445,3.5077,3.5259,3.5428,3.6005,3.6159,3.6295,3.6871,3.6998,3.6998,3.6998,3.6998,3.6998,0.0,0.0,3.7195,3.7751,3.7878,3.8327,3.9584,3.9781,4.0034,0.0,0.0,0.0,0.0,0.0,0.0,4.0702,0.0,4.125,4.2536,4.2607,4.3146,4.4369,4.4387,4.4387,4.4387,4.4387,4.4387,4.4387,4.4387,4.4387,4.4387,4.4387,4.4387,4.4387,4.4387,4.4387,4.4387,4.4387,4.4387,4.4387,4.4387,4.4387,4.4387,4.4387,4.4387,4.4387,0.0,0.0,0.0,0.0,0.0,0.0,0.0,0.0,0.0,0.0,0.0,0.0,0.0,0.0,0.0,0.0,0.0,0.0,2.4681,2.5784,2.6563,2.696,2.8084,2.883,2.9153,3.0036,3.0668,3.0991,3.1949,3.255,3.2873,3.3322,3.387,3.4445,3.4445,3.4731,3.5179,3.466,3.4445,3.4403,3.3785,3.3533,3.3519,3.3364,3.3308,3.3308,3.3308,3.3308,3.3308,3.3308,0.0,0.0,0.0,3.3599,3.3992,0.0,0.0,3.5648,3.5822,3.6216,3.6576,3.6731,3.6773,3.6815,3.697,3.6998,3.6998,3.6998,3.6998,3.6998,0.0,0.0,0.0,3.7209,3.7611,0.0,3.9008,3.9514,0.0,0.0,0.0,4.0702,4.0702,4.0702,0.0,0.0,4.0702,4.125,4.2536,4.2607,4.3146,4.4369,4.4387,4.4387,4.4387,4.4387,4.4387,4.4387,4.4387,4.4387,4.4387,4.4387,4.4387,4.4387,4.4387,4.4387,4.4387,4.4387,4.4387,4.4387,4.4387,4.4387,4.4387,4.4387,4.4387,4.4387,0.0,0.0,0.0,0.0,0.0,0.0,0.0,0.0,0.0,0.0,0.0,0.0,0.0,0.0,0.0,0.0,0.0,0.0,0.0,2.5439,2.623,2.6679,2.7452,2.8127,2.869,2.9364,2.9966,3.0514,3.1216,3.1707,3.2019,3.2606,3.3083,3.342,3.3683,3.401,3.4341,3.3954,3.381,0.0,0.0,3.3308,3.3308,3.3308,3.3308,3.3308,3.3308,3.3308,3.3308,0.0,0.0,3.3308,3.3308,3.3697,3.4259,3.4562,0.0,3.6174,3.6408,3.6745,3.6998,3.6998,3.6998,3.6928,3.6675,3.6604,3.652,3.6253,3.6254,0.0,0.0,0.0,0.0,0.0,0.0,0.0,3.8496,3.907,3.9627,0.0,4.0533,0.0,4.0702,4.0702,4.0702,0.0,4.0702,4.125,4.2536,4.2607,4.3146,4.4369,4.4387,4.4387,4.4387,4.4387,4.4387,4.4387,4.4387,4.4387,4.4387,4.4387,4.4387,4.4387,0.0,4.4387,4.4387,4.4387,4.4387,4.4387,4.4387,4.4387,4.4387,4.4387,4.4387,4.4387,0.0,0.0,0.0,0.0,0.0,0.0,0.0,0.0,0.0,0.0,1.8145,1.9002,0.0,0.0,0.0,0.0,0.0,0.0,0.0,0.0,2.5716,2.6455,2.668,2.7326,2.8422,2.8605,2.9209,3.0261,3.0429,3.0794,3.1373,3.1991,3.2286,3.23,3.2831,3.3055,3.3055,3.3055,3.3055,3.3055,3.3055,3.3055,3.3055,0.0,3.3055,3.3069,3.3154,3.3238,3.3308,3.3308,3.3308,3.3308,3.3308,3.3697,3.4329,3.5006,3.5625,3.6225,3.6843,3.6942,3.6885,3.6885,3.6815,3.6618,3.6103,3.5991,3.5855,3.5339,0.0,3.5617,3.6193,3.6513,3.6868,3.7391,0.0,3.7535,3.8119,3.8629,3.9148,3.9739,4.0322,4.0702,4.0702,4.0702,4.0702,4.0702,4.0702,4.125,4.2536,4.2607,4.3146,4.4369,4.4387,4.4387,4.4387,4.4387,4.4387,4.4387,4.4387,4.4387,4.4387,4.4387,4.4387,4.4387,4.4387,0.0,4.4387,4.4387,4.4387,4.4387,4.4387,4.4387,4.4387,4.4387,4.4387,4.4387,0.0,0.0,0.0,0.0,0.0,0.0,0.0,0.0,0.0,0.0,1.8346,1.9002,0.0,0.0,0.0,0.0,0.0,0.0,0.0,0.0,0.0,2.5813,2.6456,2.6891,2.7115,2.8155,2.8788,2.9012,3.0008,3.057,3.0696,3.1345,3.1654,3.1654,3.1766,3.1808,3.1808,3.1808,3.1808,3.1808,3.1808,3.1808,3.1808,3.1808,0.0,0.0,3.2384,3.2873,3.3308,3.3308,3.3308,3.3308,3.3308,3.3697,3.4329,3.5006,3.5625,3.6225,3.6843,3.6632,3.6253,3.6253,3.5878,3.547,3.5372,3.5436,0.0,0.0,3.5516,3.5673,3.5805,3.6302,3.6743,3.6839,0.0,0.0,0.0,0.0,3.9305,0.0,0.0,0.0,0.0,0.0,0.0,0.0,0.0,4.125,4.2536,4.2607,4.3146,4.4369,4.4387,4.4387,4.4387,4.4387,4.4387,4.4387,4.4387,4.4387,4.4387,4.4387,4.4387,4.4387,4.4387,0.0,4.4387,4.4387,4.4387,4.4387,4.4387,4.4387,4.4387,4.4387,4.4387,4.4387,0.0,0.0,0.0,0.0,0.0,0.0,0.0,1.6737,1.6989,1.7247,1.823,1.9097,1.9598,2.0466,2.107,0.0,0.0,0.0,0.0,0.0,0.0,2.5564,2.6008,2.6414,2.6778,2.7411,0.0,0.0,0.0,2.9713,3.005,0.0,0.0,3.0991,3.1345,3.1502,3.1502,3.1502,3.1502,3.1502,3.1502,3.1502,3.1502,0.0,0.0,0.0,0.0,3.2328,3.2831,3.2831,3.3041,3.3308,3.3308,3.3697,3.4259,3.459,3.5128,3.5695,3.5991,3.585,3.5625,3.5625,3.547,3.5215,3.4923,0.0,0.0,0.0,3.475,3.496,3.5307,0.0,0.0,0.0,0.0,0.0,0.0,0.0,0.0,0.0,0.0,0.0,0.0,0.0,0.0,0.0,0.0,4.1587,4.255,4.3188,4.3807,4.4397,4.4387,4.4387,4.4387,4.4387,4.4387,4.4387,4.4387,4.4387,4.4387,4.4387,4.4387,4.4387,4.4387,0.0,4.4387,4.4387,4.4387,4.4387,4.4387,4.4387,4.4387,4.4387,4.4387,4.4387,0.0,0.0,0.0,0.0,0.0,0.0,1.6348,1.6737,1.6948,1.7053,1.8137,1.9168,1.9877,2.0578,2.1045,0.0,0.0,0.0,0.0,0.0,0.0,0.0,0.0,0.0,0.0,0.0,0.0,0.0,0.0,0.0,0.0,0.0,0.0,0.0,0.0,0.0,3.1078,3.1078,3.1078,0.0,0.0,3.1078,0.0,0.0,0.0,0.0,0.0,3.1682,3.2216,3.2216,3.2606,3.3111,3.3111,3.3533,3.4034,3.4161,3.4576,3.502,3.5161,3.5127,3.5047,3.5047,3.5058,3.4955,3.4477,3.4519,0.0,0.0,3.4057,3.4338,3.4845,0.0,3.577,0.0,3.7073,0.0,0.0,0.0,0.0,0.0,0.0,0.0,0.0,0.0,0.0,0.0,0.0,0.0,4.2761,4.3807,4.4387,4.4387,4.4387,4.4387,4.4387,4.4387,4.4387,4.4387,4.4387,4.4387,4.4387,4.4387,4.4387,4.4387,4.4387,0.0,0.0,4.4387,4.4387,4.4387,4.4387,4.4387,4.4387,4.4387,4.4387,4.4387,0.0,0.0,0.0,0.0,0.0,0.0,1.6348,1.6737,1.7078,1.7569,1.8361,1.9133,1.9746,2.053,2.1045,0.0,0.0,0.0,0.0,0.0,0.0,0.0,0.0,0.0,0.0,0.0,0.0,0.0,0.0,0.0,0.0,0.0,0.0,0.0,0.0,0.0,0.0,2.9769,0.0,0.0,0.0,0.0,0.0,0.0,0.0,0.0,0.0,3.1021,3.1569,0.0,0.0,3.2483,3.2483,3.2901,3.3491,3.4034,0.0,0.0,3.5034,3.4891,3.4557,3.4557,3.4306,3.4019,3.3979,0.0,0.0,3.4091,3.4244,3.4395,3.4453,3.4965,3.5607,0.0,3.6892,3.7409,0.0,0.0,0.0,0.0,0.0,0.0,0.0,0.0,0.0,0.0,0.0,0.0,4.3385,4.4045,4.4387,4.4387,4.4387,4.4387,4.4387,4.4387,4.4387,4.4387,4.4387,4.4387,4.4387,4.4387,4.4387,4.4387,4.4387,0.0,0.0,4.4387,4.4387,4.4387,4.4387,4.4387,4.4387,4.4387,4.4387,4.4387,0.0,0.0,0.0,0.0,0.0,0.0,1.6348,1.6737,1.6987,1.7194,1.8204,1.8989,1.9226,2.0258,2.0973,2.107,2.1277,0.0,0.0,0.0,0.0,0.0,0.0,0.0,0.0,0.0,0.0,0.0,0.0,0.0,0.0,0.0,0.0,0.0,0.0,0.0,0.0,0.0,0.0,0.0,0.0,0.0,0.0,0.0,0.0,0.0,0.0,0.0,0.0,0.0,0.0,0.0,3.2073,3.2259,0.0,0.0,3.373,3.3907,3.4164,3.4193,3.4146,3.4146,3.4085,3.4023,3.4023,0.0,3.4281,3.4281,3.4346,3.4397,3.4397,3.4617,3.5125,3.6141,3.6533,3.7019,3.794,0.0,0.0,0.0,0.0,0.0,0.0,0.0,0.0,0.0,0.0,0.0,4.3989,4.4284,4.4387,4.4387,4.4387,4.4387,4.4387,4.4387,4.4387,4.4387,4.4387,4.4387,4.4387,4.4387,4.4387,4.4387,4.4387,0.0,0.0,4.4387,4.4387,4.4387,4.4387,4.4387,4.4387,4.4387,4.4387,4.4387,0.0,0.0,0.0,0.0,0.0,1.5261,1.6348,1.6737,1.6897,1.6897,1.793,1.8728,1.8873,1.9932,2.0727,2.096,2.1192,0.0,0.0,0.0,0.0,0.0,0.0,0.0,0.0,0.0,2.5911,2.647,2.6652,0.0,0.0,0.0,0.0,0.0,0.0,0.0,0.0,0.0,0.0,0.0,0.0,0.0,0.0,0.0,0.0,0.0,0.0,0.0,0.0,0.0,0.0,0.0,3.16,3.176,3.2068,0.0,3.3287,3.3433,3.3618,3.3813,3.3968,3.3968,3.4074,3.4179,0.0,3.4312,3.4397,3.4397,3.4397,3.4397,3.4397,3.4397,3.4818,3.6098,3.6301,3.6733,3.8028,3.8946,0.0,0.0,0.0,0.0,0.0,0.0,0.0,0.0,0.0,0.0,0.0,4.4387,4.4387,4.4387,4.4387,4.4387,4.4387,4.4387,4.4387,4.4387,4.4387,4.4387,4.4387,4.4387,4.4387,4.4387,4.4387,0.0,0.0,4.4387,4.4387,4.4387,4.4387,4.4387,4.4387,4.4387,4.4387,4.4387,0.0,0.0,0.0,0.0,0.0,1.5261,1.6348,1.6737,1.6897,1.6897,1.7605,1.831,1.8845,1.9551,2.0253,2.0861,2.1096,0.0,0.0,0.0,0.0,0.0,0.0,0.0,2.5188,2.5397,2.5564,2.5716,2.6315,2.6665,2.6835,0.0,0.0,0.0,0.0,0.0,0.0,0.0,0.0,0.0,0.0,0.0,0.0,0.0,0.0,0.0,0.0,0.0,0.0,0.0,0.0,0.0,0.0,3.1418,3.2031,3.2706,3.2908,3.3037,3.3711,3.4003,3.4094,3.4094,3.4247,3.4397,3.4397,3.4397,3.4397,3.4397,3.4397,3.4397,3.4397,3.4397,3.4818,3.6098,3.6301,3.6733,3.8028,3.8946,0.0,0.0,0.0,0.0,0.0,0.0,0.0,0.0,0.0,0.0,0.0,4.4387,4.4387,4.4387,4.4387,4.4387,4.4387,4.4387,4.4387,4.4387,4.4387,4.4387,4.4387,4.4387,4.4387,0.0,0.0,0.0,0.0,4.4387,4.4387,4.4387,4.4387,4.4387,4.4387,4.4387,4.4387,4.4387,0.0,0.0,0.0,0.0,0.0,0.0,1.6348,1.6737,1.6897,1.6897,1.7605,1.8296,1.8845,1.9482,2.0145,2.0848,2.1071,0.0,0.0,0.0,0.0,0.0,0.0,0.0,2.4587,2.5038,2.5383,2.555,2.5855,2.6022,2.605,2.6778,2.7116,2.713,2.7594,2.7805,0.0,2.7805,0.0,0.0,0.0,0.0,0.0,0.0,0.0,0.0,0.0,0.0,0.0,0.0,0.0,0.0,0.0,0.0,0.0,3.1757,3.2168,3.2473,3.2688,3.2877,3.301,3.301,3.3057,3.3106,3.3106,3.3456,3.3777,3.3777,3.4109,3.4397,3.4397,3.4397,3.4818,3.6098,3.6301,3.6733,0.0,0.0,0.0,0.0,0.0,0.0,0.0,0.0,0.0,0.0,0.0,0.0,0.0,4.4387,4.4387,4.4387,4.4387,4.4387,4.4387,4.4387,4.4387,4.4387,4.4387,4.4387,4.4387,4.4387,4.4387,0.0,0.0,0.0,0.0,4.4387,4.4387,4.4387,4.4387,4.4387,4.4387,4.4387,4.4387,4.4387,0.0,0.0,0.0,0.0,0.0,0.0,1.6134,1.6629,1.6907,1.6928,1.7419,1.797,1.8545,1.9108,1.9744,2.0432,2.0854,0.0,0.0,0.0,0.0,0.0,0.0,0.0,2.4218,2.4818,2.5216,2.5383,2.5481,2.555,2.5647,2.6148,2.6386,2.6414,2.6877,2.7074,0.0,2.7074,0.0,0.0,0.0,0.0,2.7116,0.0,0.0,0.0,0.0,0.0,0.0,0.0,0.0,0.0,0.0,0.0,0.0,0.0,3.1172,3.17,3.2176,3.2401,3.2497,3.2497,3.2497,3.2569,3.2817,3.3196,3.3561,3.3792,3.4138,3.4397,3.4397,3.4617,3.5111,3.6123,3.6519,3.7092,3.8263,0.0,0.0,0.0,0.0,0.0,0.0,0.0,0.0,0.0,0.0,0.0,4.4397,4.4387,4.4387,4.4387,4.4387,4.4387,4.4387,4.4387,4.4387,4.4387,4.4387,4.4387,4.4387,4.4387,4.4387,0.0,0.0,0.0,0.0,4.4387,4.4387,4.4387,4.4387,4.4387,4.4387,4.4387,4.4387,4.4387,0.0,0.0,0.0,0.0,0.0,0.0,0.0,1.6465,1.6928,1.6992,1.7115,1.7434,1.8035,1.8545,1.9107,1.9735,2.0432,0.0,0.0,0.0,0.0,0.0,0.0,2.3418,2.4014,2.4625,2.5021,2.5188,2.5202,2.53,2.5481,2.5619,2.5688,2.5715,2.5825,2.5893,2.5893,2.5893,0.0,0.0,2.5893,2.5893,0.0,0.0,0.0,0.0,0.0,0.0,0.0,0.0,0.0,0.0,0.0,0.0,0.0,0.0,0.0,0.0,0.0,3.2366,3.2366,3.2366,3.2366,3.2542,3.3211,3.3402,0.0,3.4211,3.4368,3.4412,3.4455,3.4983,3.5625,3.6272,3.6896,3.7645,3.8649,0.0,0.0,0.0,0.0,0.0,0.0,0.0,0.0,0.0,0.0,0.0,4.4387,4.4387,4.4387,4.4387,4.4387,4.4387,4.4387,4.4387,4.4387,4.4387,4.4387,4.4387,4.4387,4.4387,4.4387,0.0,0.0,0.0,0.0,4.4387,4.4387,4.4387,4.4387,4.4387,4.4387,4.4387,4.4387,4.4387,0.0,0.0,0.0,0.0,0.0,0.0,0.0,0.0,0.0,0.0,1.7115,1.7434,1.8035,1.8218,1.8702,0.0,0.0,0.0,0.0,0.0,0.0,0.0,2.2184,2.2781,2.3391,2.4001,2.4544,2.5047,2.5146,2.5216,2.5272,2.5467,2.5605,2.5702,2.5729,2.5798,2.5893,2.5893,0.0,0.0,2.5893,2.5893,0.0,0.0,0.0,0.0,2.6301,2.6509,0.0,0.0,0.0,0.0,0.0,0.0,0.0,0.0,2.9711,3.0001,3.0829,0.0,3.1047,3.1047,3.1047,3.1222,0.0,3.2382,3.2919,0.0,0.0,3.4559,3.507,3.529,3.577,3.6881,3.7201,3.7645,3.8649,0.0,0.0,0.0,0.0,0.0,0.0,0.0,0.0,0.0,0.0,4.4387,4.4387,4.4387,4.4387,4.4387,4.4387,4.4387,4.4387,4.4387,4.4387,4.4387,4.4387,4.4387,4.4387,4.4387,4.4387,0.0,0.0,0.0,4.4387,4.4387,4.4387,4.4387,4.4387,4.4387,4.4387,4.4387,4.4387,4.4387,0.0,0.0,0.0,0.0,0.0,0.0,0.0,0.0,0.0,0.0,1.7147,1.7316,1.7643,1.7931,1.8349,0.0,0.0,0.0,0.0,0.0,0.0,2.1399,2.1981,2.2577,2.3188,2.3784,2.4408,2.5005,2.5075,2.5118,2.5118,2.5286,2.5397,2.5481,2.5633,2.577,2.5893,2.5893,0.0,0.0,2.5893,0.0,0.0,0.0,0.0,0.0,2.5387,2.5659,0.0,2.664,2.7045,2.7346,0.0,0.0,0.0,0.0,2.9131,2.9682,3.0045,3.0365,3.0598,3.0598,3.0815,3.1177,3.1815,3.2483,0.0,0.0,0.0,3.4603,3.5276,3.5622,3.6144,3.7143,3.7688,3.8328,0.0,0.0,0.0,0.0,0.0,0.0,0.0,0.0,0.0,0.0,0.0,4.4387,4.4387,4.4387,4.4387,4.4387,4.4387,4.4387,4.4387,4.4387,4.4387,4.4387,4.4387,4.4387,4.4387,4.4387,4.4387,0.0,0.0,0.0,4.4387,4.4387,4.4387,4.4387,4.4387,4.4387,4.4387,4.4387,4.4387,4.4387,0.0,0.0,0.0,0.0,0.0,0.0,0.0,0.0,0.0,0.0,0.0,0.0,0.0,0.0,0.0,0.0,0.0,0.0,0.0,0.0,2.1063,2.1399,2.1886,2.2455,2.3052,2.3649,2.4259,2.4855,2.4951,2.5005,2.5005,2.5118,2.5188,2.5216,2.555,2.5757,2.5852,2.5795,2.5766,0.0,2.5668,0.0,0.0,0.0,0.0,0.0,0.0,0.0,0.0,2.5857,2.6298,2.6621,2.6647,0.0,0.0,0.0,0.0,0.0,2.9566,3.0089,3.0598,3.0598,3.1047,3.1684,3.2351,3.3022,0.0,0.0,0.0,0.0,0.0,0.0,0.0,3.7476,3.8414,3.9281,0.0,0.0,0.0,0.0,0.0,0.0,0.0,0.0,0.0,0.0,0.0,4.4387,4.4387,4.4387,4.4387,4.4387,4.4387,4.4387,4.4387,4.4387,4.4387,4.4387,4.4387,4.4387,4.4387,4.4387,4.4387,4.4387,0.0,0.0,4.4387,4.4387,4.4387,4.4387,4.4387,4.4387,4.4387,4.4387,4.4387,4.4387,0.0,0.0,0.0,0.0,0.0,0.0,0.0,0.0,0.0,0.0,0.0,0.0,0.0,0.0,0.0,0.0,0.0,0.0,0.0,2.038,2.0755,2.1372,2.1492,2.1831,2.2414,2.3025,2.3635,2.4245,2.4747,2.5005,2.5005,2.5019,2.509,2.5216,2.555,2.5715,2.5701,2.5319,2.5134,2.5078,2.4585,0.0,0.0,0.0,0.0,0.0,0.0,0.0,0.0,2.4713,2.5225,2.5795,2.5925,0.0,0.0,0.0,0.0,0.0,2.9464,3.0089,3.0598,3.0598,3.1047,3.1684,3.2351,3.3022,3.3661,0.0,0.0,0.0,0.0,0.0,0.0,0.0,0.0,4.0134,0.0,0.0,0.0,0.0,0.0,0.0,0.0,0.0,0.0,0.0,0.0,4.4387,4.4387,4.4387,4.4387,4.4387,4.4387,4.4387,4.4387,4.4387,4.4387,4.4387,4.4387,4.4387,4.4387,4.4387,4.4387,4.4387,0.0,4.4387,4.4387,4.4387,4.4387,4.4387,4.4387,4.4387,4.4387,4.4387,4.4387,4.4387,0.0,0.0,0.0,0.0,0.0,0.0,0.0,0.0,0.0,0.0,0.0,0.0,0.0,0.0,0.0,0.0,0.0,0.0,1.9762,2.0184,2.0698,2.1372,2.1399,2.1682,2.2291,2.289,2.3499,2.4096,2.4692,2.5005,2.5005,2.5005,2.5075,2.5202,2.5094,2.5119,2.5185,2.4702,2.45,2.4486,0.0,0.0,0.0,0.0,0.0,0.0,0.0,0.0,0.0,0.0,2.4767,2.5192,2.5651,0.0,0.0,0.0,0.0,0.0,2.8942,2.9581,3.0219,3.0916,3.1584,3.2206,3.289,3.3529,0.0,0.0,0.0,0.0,0.0,0.0,0.0,0.0,0.0,0.0,0.0,0.0,0.0,0.0,0.0,0.0,0.0,0.0,0.0,0.0,0.0,0.0,4.4387,4.4387,4.4387,4.4387,4.4387,4.4387,4.4387,4.4387,4.4387,4.4387,4.4387,4.4387,4.4387,4.4387,4.4387,4.4387,0.0,4.4387,4.4387,4.4387,4.4387,4.4387,4.4387,4.4387,4.4387,4.4387,4.4387,4.4387,0.0,0.0,0.0,0.0,0.0,0.0,0.0,0.0,0.0,0.0,0.0,0.0,0.0,0.0,0.0,0.0,0.0,0.0,1.925,1.9878,2.0531,2.1169,2.1318,2.1628,2.2075,2.2673,2.3215,2.3689,2.4421,2.4855,2.5005,2.5005,2.4979,2.4928,2.4627,2.4512,2.4491,2.4044,2.3867,2.3853,0.0,0.0,0.0,0.0,0.0,0.0,0.0,0.0,0.0,0.0,0.0,0.0,0.0,0.0,0.0,2.6415,2.71,2.784,2.852,2.9145,2.9943,3.1379,3.2119,3.2687,3.3342,0.0,0.0,0.0,0.0,0.0,0.0,0.0,0.0,0.0,0.0,0.0,0.0,0.0,0.0,0.0,0.0,0.0,0.0,0.0,0.0,0.0,0.0,0.0,4.4387,4.4387,4.4387,4.4387,4.4387,4.4387,4.4387,4.4387,4.4387,4.4387,4.4387,4.4387,4.4387,4.4387,4.4387,4.4387,4.4387,4.4387,4.4387,4.4387,4.4387,4.4387,4.4387,4.4387,4.4387,4.4387,4.4387,4.4387,0.0,0.0,0.0,0.0,0.0,0.0,0.0,0.0,0.0,0.0,0.0,0.0,0.0,0.0,0.0,0.0,0.0,0.0,1.862,1.9349,1.9989,2.0533,2.1101,2.1412,2.1453,2.2062,2.2386,2.2428,2.3594,2.4448,2.5005,2.5005,2.472,2.4191,2.4408,2.4197,2.3669,2.3309,2.318,2.3112,2.2559,0.0,0.0,0.0,0.0,0.0,0.0,0.0,0.0,0.0,0.0,0.0,0.0,0.0,2.5805,2.5849,2.675,2.784,2.852,2.9145,3.0074,3.196,3.2468,0.0,3.3342,3.4448,0.0,3.5392,0.0,0.0,0.0,0.0,0.0,0.0,0.0,0.0,0.0,0.0,0.0,0.0,0.0,0.0,0.0,0.0,0.0,0.0,0.0,0.0,4.4387,4.4387,4.4387,4.4387,4.4387,4.4387,4.4387,4.4387,4.4387,4.4387,4.4387,4.4387,4.4387,4.4387,4.4387,4.4387,4.4387,4.4387,4.4387,4.4387,4.4387,4.4387,4.4387,4.4387,4.4387,4.4387,4.4387,4.4387,0.0,0.0,0.0,0.0,0.0,0.0,0.0,0.0,0.0,0.0,0.0,0.0,0.0,0.0,0.0,0.0,0.0,1.7996,1.867,1.8995,1.9548,2.0466,2.0723,2.1019,2.1385,2.1981,2.2305,2.2305,2.3134,2.3662,2.3879,2.3879,2.3757,2.354,2.3433,2.3258,2.302,2.268,2.2533,2.2519,2.228,2.2208,0.0,0.0,0.0,0.0,0.0,0.0,0.0,0.0,2.2747,2.3053,2.369,2.4486,2.5257,2.5674,2.6444,2.7374,2.8419,2.8869,2.9595,3.1916,3.2497,0.0,0.0,3.475,3.5508,3.5883,0.0,0.0,0.0,0.0,0.0,0.0,0.0,0.0,0.0,0.0,0.0,0.0,0.0,0.0,0.0,0.0,0.0,0.0,0.0,0.0,4.4387,4.4387,4.4387,4.4387,4.4387,4.4387,4.4387,4.4387,4.4387,4.4387,4.4387,4.4387,4.4387,4.4387,4.4387,4.4387,4.4387,4.4387,4.4387,4.4387,4.4387,4.4387,4.4387,4.4387,4.4387,4.4387,4.4387,4.4387,0.0,0.0,0.0,0.0,0.0,0.0,0.0,0.0,0.0,0.0,0.0,0.0,0.0,0.0,0.0,0.0,1.776,1.7987,1.8473,1.8687,1.9152,1.9933,2.0303,2.0682,2.1114,2.1709,2.2021,2.2021,2.2619,2.3012,2.3202,2.3202,2.3093,2.2916,2.2759,2.2594,2.2411,2.2258,2.2208,2.2208,2.2208,2.2208,0.0,0.0,0.0,0.0,0.0,0.0,0.0,0.0,2.242,2.2721,2.3386,2.401,2.4648,2.5326,2.5979,2.6807,2.8288,2.8695,2.9305,3.1858,0.0,0.0,3.437,3.5215,3.5868,3.6489,0.0,0.0,0.0,0.0,0.0,0.0,0.0,0.0,0.0,0.0,0.0,0.0,0.0,0.0,0.0,0.0,0.0,0.0,0.0,0.0,0.0,4.4387,4.4387,4.4387,4.4387,4.4387,4.4387,4.4387,4.4387,4.4387,4.4387,4.4387,4.4387,4.4387,4.4387,4.4387,4.4387,4.4387,4.4387,4.4387,4.4387,4.4387,4.4387,4.4387,4.4387,4.4387,4.4387,4.4387,0.0,0.0,0.0,0.0,0.0,0.0,0.0,0.0,1.4897,1.4897,1.6011,0.0,0.0,0.0,0.0,0.0,1.7902,1.7902,1.7902,1.8469,1.8782,1.8796,1.9879,2.0493,2.0506,2.1087,2.1399,2.1399,2.1994,2.2604,2.3175,2.3175,2.2863,2.2291,2.2567,2.2359,2.1817,2.2091,2.2208,2.2208,2.2208,2.2208,2.2137,0.0,0.0,0.0,0.0,0.0,0.0,0.0,2.2041,2.2623,2.2831,2.3357,2.4033,2.4701,2.5326,2.6212,2.8172,2.8695,2.9305,0.0,0.0,0.0,3.4971,3.5868,3.6504,3.7186,0.0,0.0,0.0,0.0,0.0,0.0,0.0,0.0,0.0,0.0,0.0,0.0,0.0,0.0,0.0,0.0,0.0,0.0,0.0,0.0,0.0,4.4387,4.4387,4.4387,4.4387,4.4387,4.4387,4.4387,4.4387,4.4387,4.4387,4.4387,4.4387,4.4387,4.4387,4.4387,4.4387,4.4387,4.4387,4.4387,4.4387,4.4387,4.4387,4.4387,4.4387,4.4387,4.4387,4.4387,0.0,0.0,0.0,0.0,0.0,0.0,0.0,0.0,1.4624,1.5059,1.5811,0.0,0.0,0.0,0.0,0.0,0.0,0.0,1.7902,1.8065,1.8361,1.8782,1.9125,1.9686,2.0479,2.1087,2.1399,2.1399,2.1587,2.1764,2.1927,2.1927,2.1882,2.1815,2.1997,2.2021,2.1961,2.2137,2.2208,2.2208,2.2208,2.1954,2.1558,0.0,0.0,0.0,0.0,0.0,0.0,0.0,0.0,0.0,2.2192,2.302,2.4033,2.4701,2.5326,2.6212,2.8172,2.8695,0.0,0.0,0.0,0.0,0.0,3.5868,0.0,0.0,0.0,0.0,0.0,0.0,0.0,0.0,0.0,0.0,0.0,0.0,0.0,0.0,0.0,0.0,0.0,0.0,0.0,0.0,0.0,0.0,0.0,4.4387,4.4387,4.4387,4.4387,4.4387,4.4387,4.4387,4.4387,4.4387,4.4387,4.4387,4.4387,4.4387,4.4387,4.4387,4.4387,4.4387,4.4387,4.4387,4.4387,4.4387,4.4387,4.4387,4.4387,4.4387,4.4387,4.4387,0.0,0.0,0.0,0.0,0.0,0.0,0.0,0.0,1.443,1.4792,1.5367,1.5969,0.0,0.0,0.0,0.0,0.0,0.0,1.7902,1.7902,1.8065,1.8429,1.8694,1.9298,2.0286,2.0887,2.1201,2.1201,2.1325,2.1435,2.1484,2.1484,2.1556,2.17,2.1817,2.1926,2.202,2.2149,2.2208,2.218,2.194,2.1628,2.1248,0.0,0.0,0.0,0.0,0.0,0.0,0.0,0.0,0.0,2.1914,2.2701,2.3633,2.4309,2.4921,2.5778,2.7475,0.0,0.0,0.0,0.0,0.0,0.0,0.0,0.0,0.0,0.0,0.0,0.0,0.0,0.0,0.0,0.0,0.0,0.0,0.0,0.0,0.0,0.0,0.0,0.0,0.0,0.0,0.0,0.0,0.0,0.0,4.4387,4.4387,4.4387,4.4387,4.4387,4.4387,4.4387,4.4387,4.4387,4.4387,4.4387,4.4387,4.4387,4.4387,4.4387,4.4387,4.4387,4.4387,4.4387,4.4387,4.4387,4.4387,4.4387,4.4387,4.4387,4.4387,4.4387,0.0,0.0,1.4383,1.4327,0.0,0.0,0.0,0.0,1.4319,1.4319,1.4836,1.5447,0.0,0.0,0.0,0.0,0.0,0.0,1.7932,1.7932,1.7932,1.7932,1.8566,1.9222,1.9901,2.0509,2.084,2.0896,2.1255,2.1508,2.1628,2.1628,2.17,2.1817,2.1961,2.202,2.2032,2.2149,2.2208,2.2151,2.16,2.1319,2.1094,1.9929,0.0,0.0,0.0,0.0,0.0,0.0,0.0,0.0,2.1827,2.2359,2.303,2.3702,2.4329,2.51,2.6444,0.0,0.0,0.0,0.0,0.0,0.0,0.0,0.0,0.0,0.0,0.0,0.0,0.0,0.0,0.0,0.0,0.0,0.0,0.0,0.0,0.0,0.0,0.0,0.0,0.0,0.0,0.0,0.0,0.0,0.0,4.4387,4.4387,4.4387,4.4387,4.4387,4.4387,4.4387,4.4387,4.4387,4.4387,4.4387,4.4387,4.4387,4.4387,4.4387,4.4387,4.4387,4.4387,4.4387,4.4387,4.4387,4.4387,4.4387,4.4387,4.4387,4.4387,4.4387,0.0,0.0,1.4475,1.4467,0.0,0.0,0.0,0.0,0.0,1.4467,0.0,0.0,0.0,0.0,0.0,0.0,0.0,0.0,0.0,1.8143,1.8143,1.8143,1.8731,1.9124,1.9293,1.9874,2.0426,2.0896,2.1444,2.1722,2.1758,2.1758,2.1829,2.1961,2.1996,2.2067,2.2161,2.2196,2.2208,2.2194,2.2067,2.1448,2.0555,2.0288,1.955,0.0,0.0,0.0,0.0,0.0,0.0,0.0,2.1147,2.1993,2.303,2.3702,2.4329,2.51,2.6444,2.7722,0.0,0.0,0.0,0.0,0.0,0.0,0.0,0.0,0.0,0.0,0.0,0.0,0.0,0.0,0.0,0.0,0.0,0.0,0.0,0.0,0.0,0.0,0.0,0.0,0.0,0.0,0.0,0.0,4.4387,4.4387,4.4387,4.4387,4.4387,4.4387,4.4387,4.4387,4.4387,0.0,4.4387,4.4387,4.4387,4.4387,4.4387,4.4387,4.4387,4.4387,4.4387,4.4387,4.4387,4.4387,4.4387,4.4387,4.4387,4.4387,4.4387,4.4387,0.0,0.0,0.0,0.0,0.0,0.0,0.0,0.0,0.0,0.0,0.0,0.0,0.0,0.0,0.0,0.0,0.0,0.0,0.0,1.8202,1.8208,1.8244,1.8549,1.875,1.8814,1.9402,1.9861,2.0181,2.1108,2.1681,2.1902,2.1902,2.1973,2.2102,2.2102,2.2137,2.2208,2.2208,2.2208,2.218,2.1884,2.1392,2.0801,2.0512,1.9785,1.8933,1.8933,0.0,0.0,0.0,0.0,0.0,0.0,0.0,2.2972,2.3328,2.4097,2.4996,2.5703,0.0,0.0,0.0,0.0,0.0,0.0,0.0,0.0,0.0,0.0,0.0,0.0,0.0,0.0,0.0,0.0,0.0,0.0,0.0,0.0,0.0,0.0,0.0,0.0,0.0,0.0,0.0,0.0,4.4387,4.4387,4.4387,4.4387,4.4387,4.4387,4.4387,4.4387,4.4116,4.3975,4.3975,4.368,4.3694,4.3989,4.4284,4.4387,4.4387,4.4387,4.4387,4.4387,4.4387,4.4387,4.4387,4.4387,4.4387,4.4387,4.4387,4.4387,4.4387,0.0,0.0,0.0,0.0,0.0,0.0,0.0,0.0,0.0,0.0,0.0,0.0,0.0,0.0,0.0,0.0,0.0,0.0,0.0,0.0,0.0,1.8329,1.8338,1.8392,1.8498,1.8979,1.9302,1.94,2.0467,2.1237,2.1725,2.1946,2.2091,2.2208,2.2208,2.2208,2.2208,2.2208,2.2208,2.2165,2.1659,2.1389,2.1248,2.0748,2.0151,1.9578,1.9589,1.9333,1.9028,1.9127,0.0,0.0,0.0,0.0,2.2888,2.2888,2.3778,2.4759,2.4849,0.0,2.8304,0.0,0.0,0.0,0.0,0.0,0.0,0.0,0.0,0.0,0.0,0.0,0.0,0.0,0.0,0.0,0.0,0.0,0.0,0.0,0.0,0.0,0.0,0.0,0.0,0.0,0.0,4.4134,4.4134,4.4111,4.4102,4.4102,4.4102,4.4102,4.4102,4.3582,4.3329,4.3329,4.2944,4.3028,4.3512,4.413,4.4387,4.4387,4.4387,4.4387,4.4387,4.4387,4.4387,4.4387,4.4387,4.4387,4.4387,4.4387,4.4387,4.4387,0.0,0.0,0.0,0.0,0.0,0.0,0.0,0.0,0.0,0.0,1.4755,1.5212,0.0,1.6608,1.7104,1.8244,1.8403,1.8459,1.8459,0.0,0.0,1.8464,1.8464,1.8488,1.8498,1.8582,1.8891,1.94,1.9578,1.9986,2.0645,2.1681,2.2184,2.2208,2.2208,2.2208,2.2208,2.2208,2.2208,2.2194,2.2109,2.1772,2.1291,2.1206,2.0801,2.027,2.0341,2.0313,2.0295,2.0548,2.1096,0.0,0.0,0.0,2.2888,2.2888,2.3444,2.4149,0.0,0.0,2.8884,0.0,0.0,0.0,0.0,0.0,0.0,0.0,0.0,0.0,0.0,0.0,0.0,0.0,0.0,0.0,0.0,0.0,0.0,0.0,0.0,0.0,0.0,0.0,0.0,0.0,4.3142,4.3095,4.3095,4.2944,4.2846,4.2846,4.2846,4.2846,4.2846,4.2761,4.2719,4.2733,4.316,4.3413,4.3512,4.413,4.4387,4.4387,4.4387,4.4387,4.4387,4.4387,4.4387,4.4387,4.4387,4.4387,4.4387,4.4387,4.4387,4.4387,0.0,0.0,0.0,0.0,0.0,0.0,0.0,0.0,0.0,0.0,0.0,1.6081,1.6638,1.6995,1.7421,1.7946,1.8311,1.8498,1.8498,1.8498,1.8527,1.8605,1.8605,1.862,1.8664,1.8664,1.8805,1.9065,1.9395,1.9721,2.0033,2.1291,2.179,2.1701,2.2053,2.2208,2.2208,2.2208,2.2208,2.2208,2.2208,2.2099,2.1914,2.1914,2.1569,2.1089,2.1118,2.0955,0.0,0.0,0.0,2.1914,2.1979,0.0,0.0,0.0,2.336,0.0,2.5096,2.6721,2.8361,0.0,0.0,0.0,0.0,0.0,0.0,0.0,0.0,0.0,0.0,0.0,0.0,0.0,0.0,0.0,0.0,0.0,0.0,0.0,0.0,0.0,0.0,0.0,0.0,0.0,4.2921,4.3076,4.3076,4.298,4.295,4.295,4.2824,4.2757,4.2757,4.2272,4.1868,4.1531,4.2149,4.2626,4.3028,4.3624,4.4088,4.4387,4.4387,4.4387,4.4387,4.4387,4.4387,4.4387,4.4387,4.4387,4.4387,4.4387,4.4387,4.4387,0.0,0.0,0.0,0.0,0.0,0.0,0.0,0.0,0.0,0.0,0.0,1.6835,1.6985,0.0,0.0,0.0,1.8327,1.8571,1.8571,1.8571,1.862,1.8716,1.8731,1.8755,1.8803,1.8803,1.8803,1.8803,1.9255,1.9474,1.9498,2.0605,2.1129,2.1185,2.1962,2.2301,2.2301,2.2301,2.2301,2.2301,2.2301,2.2359,2.2451,2.2451,2.2201,2.1858,2.188,0.0,0.0,0.0,0.0,0.0,0.0,0.0,0.0,0.0,0.0,0.0,0.0,0.0,2.7855,2.8535,2.9668,0.0,0.0,0.0,0.0,0.0,0.0,0.0,0.0,0.0,0.0,0.0,0.0,0.0,0.0,0.0,0.0,0.0,0.0,0.0,0.0,0.0,0.0,0.0,4.2611,4.2825,4.2825,4.2759,4.2738,4.2738,4.2607,4.2519,4.2519,4.1812,4.1224,4.0787,4.1342,4.1952,4.2621,4.3216,4.3835,4.4387,4.4387,4.4387,4.4387,4.4387,4.4387,4.4387,4.4387,4.4387,4.4387,4.4387,4.4387,4.4387,0.0,0.0,0.0,0.0,0.0,0.0,0.0,0.0,0.0,0.0,0.0,1.7201,1.7782,1.7877,1.8117,1.8684,1.8769,1.8784,1.8784,1.8784,1.8784,1.8793,1.8793,0.0,1.8803,1.8803,1.8803,1.8803,1.8831,1.885,1.885,1.9502,2.0131,2.0787,2.2023,2.2578,2.2578,2.2578,2.2578,2.2578,2.2578,2.2578,2.2592,2.2592,2.2563,2.2558,0.0,0.0,0.0,0.0,0.0,0.0,0.0,0.0,0.0,0.0,0.0,0.0,0.0,2.6287,0.0,2.8535,0.0,0.0,0.0,0.0,0.0,0.0,0.0,0.0,0.0,0.0,0.0,0.0,0.0,0.0,0.0,0.0,0.0,0.0,0.0,0.0,0.0,0.0,0.0,0.0,4.1907,4.1768,4.1768,4.1587,4.1496,4.1496,4.1496,4.1475,4.1475,4.1192,4.1008,4.0979,4.1393,4.1952,4.2621,4.3216,4.3835,4.4387,4.4387,4.4387,4.4387,4.4387,4.4387,4.4387,4.4387,4.4387,4.4387,4.4387,4.4387,4.4387,0.0,0.0,0.0,0.0,0.0,0.0,0.0,0.0,0.0,0.0,0.0,0.0,0.0,1.8483,1.8569,1.8789,1.8803,1.8803,1.8803,1.8803,1.8846,1.8917,1.8932,1.8946,1.8998,1.8998,1.8998,1.8998,1.8998,1.8998,1.9012,1.9652,2.0287,2.0922,2.1635,2.2195,2.2603,2.2603,2.2603,2.2632,2.3021,2.324,2.3353,2.377,0.0,0.0,0.0,0.0,0.0,0.0,0.0,0.0,0.0,0.0,0.0,0.0,0.0,0.0,0.0,0.0,0.0,2.7796,2.871,0.0,0.0,0.0,0.0,0.0,0.0,0.0,0.0,0.0,0.0,0.0,0.0,0.0,0.0,0.0,0.0,0.0,0.0,0.0,0.0,0.0,0.0,0.0,0.0,4.1953,4.1953,4.1891,4.185,4.185,4.1675,4.1528,4.1396,4.1297,4.1163,4.1001,4.1156,4.1697,4.2607,4.2832,4.3455,4.4387,4.4387,4.4387,4.4387,4.4387,4.4387,4.4387,4.4387,4.4387,4.4387,4.4387,4.4387,4.4387,0.0,0.0,0.0,0.0,0.0,1.7522,1.7473,1.7982,1.8353,1.8308,0.0,0.0,0.0,0.0,1.8898,1.8898,1.8898,1.8898,1.8898,1.8898,1.8941,1.9036,1.9074,1.9116,1.9167,1.9185,1.9195,1.9195,1.9195,1.9195,1.9209,1.9661,2.0318,2.1159,2.1404,2.1971,2.2706,2.2706,0.0,2.3063,0.0,0.0,2.4149,0.0,0.0,0.0,0.0,0.0,0.0,0.0,0.0,0.0,0.0,0.0,0.0,0.0,0.0,0.0,2.4694,0.0,0.0,0.0,0.0,2.8835,0.0,0.0,0.0,0.0,0.0,0.0,0.0,0.0,0.0,0.0,0.0,0.0,0.0,0.0,0.0,0.0,0.0,0.0,0.0,0.0,0.0,0.0,0.0,0.0,4.2092,4.2092,4.2092,4.2092,4.1918,4.1758,4.1641,4.1543,4.1409,4.1233,4.1085,4.1503,4.2394,4.2531,4.3146,4.4116,4.4326,4.4387,4.4387,4.4387,4.4387,4.4387,4.4387,4.4387,4.4387,4.4387,4.4387,4.4387,0.0,0.0,1.7237,1.7237,1.778,1.8239,1.8239,1.8724,1.911,1.911,0.0,0.0,0.0,0.0,0.0,1.911,1.911,1.911,1.911,1.911,1.911,1.911,1.9237,1.9302,1.9302,1.9367,1.9395,1.9395,1.9395,1.9395,1.9395,1.9395,2.0126,2.1403,2.1403,2.1963,2.2914,0.0,2.3313,2.3903,0.0,2.4353,2.4921,0.0,0.0,0.0,2.4856,2.4909,0.0,0.0,0.0,0.0,0.0,0.0,0.0,0.0,0.0,0.0,0.0,0.0,0.0,0.0,0.0,0.0,2.9733,0.0,0.0,0.0,0.0,0.0,0.0,0.0,0.0,0.0,0.0,0.0,0.0,0.0,0.0,0.0,0.0,0.0,0.0,0.0,0.0,0.0,4.2049,4.2063,4.2063,4.2092,4.2092,4.2092,4.2092,4.2092,4.2092,4.1841,4.1709,4.1688,4.1233,4.1362,4.2014,4.2423,4.293,4.3526,4.4144,4.4387,4.4387,4.4387,4.4387,4.4387,4.4387,4.4387,4.4387,4.4387,4.4387,4.4387,0.0,1.7674,1.8146,1.8146,1.8649,1.9071,1.9071,1.9218,1.9321,0.0,0.0,0.0,1.9995,2.0039,1.9853,1.9365,1.9321,1.9321,1.9321,1.9321,1.9321,1.9321,1.9349,1.9367,1.9367,1.9385,1.9395,1.9395,1.9395,1.9395,1.9395,1.9395,2.0126,2.1403,2.1403,2.2064,2.3205,2.3598,0.0,0.0,2.4905,2.5384,0.0,0.0,0.0,0.0,0.0,2.627,0.0,0.0,2.5517,2.5456,0.0,0.0,0.0,0.0,0.0,0.0,2.5688,0.0,0.0,0.0,0.0,0.0,2.8569,2.9526,3.0542,0.0,0.0,0.0,0.0,0.0,0.0,0.0,0.0,0.0,0.0,0.0,0.0,0.0,0.0,0.0,0.0,0.0,0.0,0.0,4.1091,4.1381,4.1381,4.1831,4.2092,4.2092,4.2092,4.2092,4.2092,4.203,4.1897,4.1688,4.1563,4.1674,4.2014,4.2572,4.3074,4.3526,4.4144,4.4387,4.4387,4.4387,4.4387,4.4387,4.4387,4.4387,4.4387,4.4387,4.4387,4.4387,1.792,1.8428,1.8886,1.8886,1.9177,1.9483,1.9772,1.9826,1.9914,0.0,0.0,0.0,2.0769,2.0813,2.0666,2.0272,1.9973,1.9826,1.9826,1.9566,1.9395,1.9395,1.9455,1.9483,1.9483,1.9514,1.9532,1.9532,1.9532,1.9532,1.9532,1.9532,2.0244,2.153,2.153,2.2221,2.3448,0.0,0.0,0.0,2.556,0.0,0.0,2.7237,2.7531,0.0,0.0,0.0,2.7693,2.7312,2.7005,0.0,0.0,0.0,0.0,0.0,0.0,0.0,0.0,0.0,0.0,0.0,0.0,0.0,2.824,2.8922,2.9722,0.0,0.0,0.0,0.0,0.0,0.0,0.0,0.0,0.0,0.0,0.0,0.0,0.0,0.0,0.0,0.0,3.9567,3.9828,4.0075,4.0466,4.08,4.1091,4.1468,4.1802,4.2092,4.2092,4.2092,4.2092,4.2092,4.2016,4.1877,4.1744,4.1715,4.1774,4.2546,4.2977,4.316,4.4031,4.4387,4.4387,4.4387,4.4387,4.4387,4.4387,4.4387,4.4387,4.4387,4.4387,4.4387,0.0,1.9075,1.9461,1.9535,1.954,1.9771,2.0434,2.0538,2.0754,0.0,2.1499,2.1524,2.144,2.1499,2.1514,2.144,2.0887,2.0538,2.0538,1.9913,1.955,1.9568,1.9595,1.9629,1.9638,1.9705,1.9735,1.9735,1.9735,1.9735,1.9735,1.9735,2.0454,2.1734,2.1734,2.2392,2.362,0.0,0.0,2.5301,2.6103,2.7148,0.0,0.0,2.8623,0.0,2.9098,2.9098,2.9098,2.9098,2.8741,0.0,0.0,0.0,0.0,0.0,2.599,0.0,0.0,0.0,0.0,0.0,0.0,0.0,2.8353,2.8547,2.8921,3.0058,0.0,0.0,0.0,0.0,0.0,0.0,0.0,0.0,0.0,0.0,0.0,0.0,0.0,0.0,3.7978,3.8613,3.9218,3.9755,3.9915,4.0292,4.0945,4.0989,4.1294,4.1961,4.199,4.202,4.2092,4.2092,4.2092,4.2092,4.1862,4.1633,4.1439,4.2392,4.2754,4.2663,4.3807,4.4355,4.4387,4.4387,4.4387,4.4387,4.4387,4.4387,4.4387,4.4387,4.4387,4.4387,1.9468,1.9555,1.9815,2.0348,2.0447,2.067,2.1336,2.1451,2.1496,2.1615,2.2103,2.2237,2.1705,2.2118,2.2222,2.169,2.1525,2.1451,2.1451,2.082,2.0475,2.052,2.0029,1.9812,1.9926,1.9928,1.9937,1.9937,1.9937,1.9937,1.9937,1.9937,2.0664,2.1935,2.1935,2.2601,2.3833,0.0,0.0,2.5655,2.7193,0.0,2.8252,2.8741,2.8994,2.9098,2.9098,2.9098,2.9098,0.0,2.9024,2.8919,0.0,0.0,0.0,0.0,0.0,0.0,0.0,0.0,0.0,0.0,0.0,0.0,2.7764,2.8216,2.8667,0.0,0.0,0.0,0.0,0.0,0.0,0.0,0.0,0.0,0.0,0.0,0.0,0.0,0.0,0.0,3.6894,3.7379,3.7723,3.7839,3.8797,3.9639,4.0263,4.0292,4.0597,4.1265,4.1294,4.1555,4.2092,4.2092,4.2092,4.2092,4.2051,4.1808,4.1424,4.2103,4.249,4.2649,4.3357,4.3947,4.4387,4.4387,4.4387,4.4387,4.4387,4.4387,4.4387,4.4387,4.4387,4.4387,1.9857,2.0129,2.0445,2.0788,2.1129,2.1566,2.2254,2.2631,2.2973,2.3305,2.3934,2.4221,2.3889,2.4146,2.4206,2.3874,2.323,2.2853,2.2853,2.1908,2.1359,2.1392,2.0748,2.0428,2.0506,2.0172,2.0005,2.0005,2.0005,2.0005,2.0005,2.0005,2.0719,2.2003,2.2003,2.2884,2.4463,0.0,2.6248,2.6886,2.7961,0.0,2.8957,2.9569,3.0015,3.0328,3.0683,3.0802,3.0802,3.0802,3.0342,0.0,0.0,2.9513,2.9019,0.0,2.8859,2.8528,0.0,0.0,0.0,2.769,0.0,0.0,0.0,2.7869,2.8201,2.8532,2.9116,0.0,0.0,0.0,0.0,0.0,0.0,0.0,0.0,0.0,0.0,0.0,0.0,0.0,3.5617,3.642,3.6899,3.6809,3.7709,3.8522,3.9117,3.9465,3.9944,4.0583,4.0916,4.1265,4.1599,4.1932,4.2092,4.2092,4.2092,4.185,4.1424,4.2017,4.242,4.2635,4.3231,4.3849,4.4387,4.4387,4.4387,4.4387,4.4387,4.4387,4.4387,4.4387,4.4387,4.4387,2.0227,2.0734,2.1235,2.1356,2.1827,2.2459,2.3264,2.3841,2.4418,2.5097,2.5659,2.5994,2.5994,2.5994,2.5994,2.5994,2.5006,2.4398,2.4398,2.3127,2.2393,2.2413,2.1652,2.1175,2.1057,2.0539,2.0189,2.0067,2.0067,2.0067,2.0058,2.0189,2.0904,2.2062,2.2183,2.3285,2.5085,0.0,0.0,2.8047,0.0,2.9255,2.9917,3.0639,3.124,3.178,3.2452,3.2691,3.2691,3.2691,0.0,3.0896,3.0896,3.0372,0.0,0.0,0.0,0.0,0.0,0.0,0.0,0.0,0.0,2.7764,0.0,0.0,0.0,2.8306,0.0,0.0,0.0,0.0,0.0,0.0,0.0,0.0,0.0,0.0,0.0,0.0,0.0,0.0,3.4356,3.5475,3.6248,3.6286,3.6809,3.7389,3.7999,3.8551,3.9175,3.99,4.0452,4.0844,4.1091,4.1628,4.1976,4.2092,4.2092,4.185,4.1424,4.1889,4.2306,4.2635,4.3104,4.3736,4.4387,4.4387,4.4387,4.4387,4.4387,4.4387,4.4387,4.4387,4.4387,4.4387,2.1044,2.1426,2.2079,2.2672,2.2839,2.3309,2.4581,2.4839,2.5128,2.5796,2.5948,2.5994,2.5994,2.5994,0.0,0.0,0.0,0.0,2.5766,0.0,2.3833,2.3937,2.2739,2.1813,2.1283,2.119,2.0861,2.0261,2.0261,2.0261,2.0276,2.0876,2.1544,2.2288,2.2888,0.0,0.0,0.0,2.6889,0.0,2.9345,3.0174,0.0,3.1997,3.2421,3.2467,3.3155,3.338,3.338,0.0,3.2901,3.2273,0.0,3.142,0.0,0.0,0.0,0.0,0.0,0.0,0.0,0.0,2.8487,0.0,0.0,0.0,2.7615,2.7705,0.0,0.0,0.0,0.0,0.0,0.0,0.0,0.0,0.0,0.0,0.0,0.0,0.0,0.0,0.0,3.426,3.5253,3.6228,3.6373,3.6707,3.7375,3.7458,3.8072,3.9262,3.9378,3.9958,4.1091,4.1178,4.1512,4.2092,4.2092,4.185,4.1396,4.1467,4.1895,4.2607,4.2677,4.3343,4.4387,4.4387,4.4387,4.4387,4.4387,4.4387,4.4387,4.4387,4.4387,4.4387,2.1905,2.2294,2.2958,2.3646,2.4075,2.4672,2.5663,2.6474,2.7209,2.7898,2.8311,2.8556,0.0,0.0,0.0,0.0,0.0,0.0,0.0,0.0,2.5225,2.4843,2.4004,2.3222,2.2591,2.2229,2.1732,2.1057,2.1057,2.1057,2.1057,2.1344,2.2049,2.307,2.334,0.0,2.5971,0.0,0.0,0.0,0.0,0.0,0.0,3.2697,3.332,3.4,3.4272,3.4378,3.4378,0.0,3.391,0.0,0.0,0.0,0.0,0.0,0.0,0.0,0.0,0.0,0.0,0.0,0.0,0.0,0.0,0.0,2.8066,0.0,0.0,0.0,0.0,0.0,0.0,0.0,2.9011,0.0,0.0,0.0,0.0,0.0,0.0,0.0,3.3133,3.338,3.3857,3.4726,3.5046,3.5488,3.6159,3.6896,3.7549,3.8086,3.8812,3.9625,4.051,4.0902,4.1439,4.2092,4.2092,4.185,4.1396,4.1396,4.1824,4.2607,4.2607,4.3273,4.4387,4.4387,4.4387,4.4387,4.4387,4.4387,4.4387,4.4387,4.4387,4.4387,2.3333,2.3567,2.401,2.4492,2.5138,2.5918,2.6807,2.8088,2.9122,2.9615,0.0,0.0,3.0402,3.0402,0.0,0.0,0.0,2.895,0.0,0.0,2.6782,0.0,0.0,0.0,0.0,2.3403,2.2755,2.1865,2.1865,2.1865,2.1889,2.2068,2.2667,2.3622,2.4006,2.5062,2.6581,0.0,0.0,3.0518,3.068,3.1864,3.3563,3.3542,3.4258,3.526,3.526,3.526,3.526,3.526,3.482,0.0,3.4273,0.0,0.0,0.0,0.0,0.0,3.1678,0.0,0.0,0.0,0.0,0.0,0.0,0.0,0.0,0.0,0.0,0.0,0.0,0.0,0.0,2.8246,0.0,2.85,0.0,0.0,0.0,0.0,0.0,0.0,0.0,3.2473,3.2625,3.3366,3.3908,3.4479,3.5084,3.6188,3.6939,3.7302,3.8202,3.9059,3.9842,4.0495,4.1163,4.1831,4.2005,4.185,4.1396,4.1396,4.1738,4.2354,4.2522,4.316,4.4083,4.4303,4.4387,4.4387,4.4387,4.4387,4.4387,4.4387,4.434,4.427,2.5602,2.5401,0.0,0.0,2.5887,2.6807,2.8122,2.9476,3.034,0.0,0.0,0.0,0.0,0.0,0.0,0.0,0.0,3.0389,3.0515,0.0,2.8579,0.0,0.0,0.0,0.0,0.0,2.3951,2.2574,2.2574,2.2574,2.258,2.3226,2.3559,2.3653,2.5025,2.6024,2.6782,2.8158,2.9521,3.0828,3.1342,3.2724,3.4491,0.0,3.5382,3.5975,3.5975,0.0,0.0,3.5975,3.5518,0.0,0.0,0.0,0.0,0.0,0.0,0.0,0.0,0.0,0.0,3.1131,0.0,0.0,0.0,0.0,2.8981,0.0,0.0,0.0,0.0,0.0,2.76,2.763,2.763,0.0,0.0,0.0,0.0,0.0,0.0,0.0,0.0,3.1352,3.1737,3.2663,3.335,3.3928,3.4414,3.5084,3.6028,3.7259,3.7327,3.797,3.9218,3.9828,4.0466,4.1134,4.1787,4.185,4.1396,4.1396,4.1483,4.1685,4.2317,4.2834,4.329,4.4083,4.4387,4.4387,4.4387,4.4387,4.4387,4.4387,4.4247,4.4011,2.6356,0.0,0.0,0.0,0.0,2.8435,2.9779,3.1159,0.0,0.0,0.0,0.0,0.0,0.0,3.3383,0.0,0.0,3.2555,3.2155,3.128,0.0,0.0,0.0,2.753,0.0,0.0,0.0,0.0,2.3702,2.3456,2.3472,2.3683,2.4296,2.5203,2.5685,2.6497,0.0,0.0,0.0,0.0,0.0,3.4466,3.5528,0.0,0.0,3.632,3.632,3.632,0.0,3.632,3.6182,3.5983,3.5983,3.5523,3.5002,3.5002,3.4527,0.0,0.0,0.0,3.2858,3.2643,0.0,0.0,0.0,0.0,0.0,0.0,0.0,0.0,0.0,0.0,2.7688,2.7612,2.76,2.76,0.0,2.76,2.7764,0.0,0.0,0.0,0.0,0.0,0.0,3.1528,3.2096,3.2835,3.3765,3.4399,3.5314,3.6606,3.707,3.7912,3.9189,3.9799,4.0437,4.1105,4.1773,4.185,4.1396,4.1396,4.1469,4.1621,4.1979,4.2834,4.4023,4.4298,4.4387,4.4387,4.4387,4.4387,4.4387,4.4387,4.4223,4.3964,2.7897,0.0,0.0,0.0,0.0,0.0,0.0,0.0,0.0,0.0,3.4362,0.0,3.4893,0.0,3.4893,0.0,3.4502,3.4093,3.374,3.2846,0.0,3.0462,2.9725,0.0,0.0,0.0,0.0,0.0,0.0,2.4757,2.4757,2.4757,2.5233,2.6121,2.6603,2.741,2.8453,0.0,3.0342,0.0,0.0,3.5374,0.0,0.0,3.7002,3.6924,0.0,3.7015,3.7215,3.7215,3.7046,3.6861,3.6861,3.6399,3.586,3.586,3.5368,3.4859,3.4859,3.4336,0.0,3.3475,3.302,0.0,3.1769,0.0,0.0,0.0,0.0,0.0,0.0,0.0,2.7778,2.7688,2.7625,2.751,0.0,2.7228,2.7228,0.0,0.0,0.0,0.0,0.0,2.9985,3.0703,3.122,3.1919,3.2859,3.3651,3.4545,3.5587,3.6472,3.7444,3.8522,3.9363,4.0104,4.0742,4.1424,4.1619,4.1396,4.1396,4.1355,4.1298,4.173,4.2607,4.3786,4.4213,4.4387,4.4387,4.4387,4.434,4.427,4.427,4.4035,4.3703,0.0,0.0,0.0,0.0,3.1242,0.0,0.0,0.0,3.5031,0.0,3.5094,3.5141,3.5141,3.5141,3.5141,3.5141,3.5109,0.0,3.5307,3.4021,0.0,0.0,3.1422,3.0014,2.9236,0.0,0.0,0.0,0.0,0.0,2.6344,2.6344,2.6376,2.6462,2.7737,0.0,2.9448,3.0671,3.1694,3.2611,3.4423,3.5552,3.6249,3.7529,3.7935,3.7823,3.7633,3.8001,3.8524,3.8508,3.8093,3.757,3.7554,3.7092,3.6538,3.6538,3.6076,3.5552,3.5552,3.506,3.4382,3.3675,0.0,0.0,0.0,0.0,3.1441,0.0,0.0,0.0,0.0,0.0,0.0,2.7803,2.7688,2.736,2.6689,2.6599,0.0,0.0,0.0,0.0,0.0,2.8577,2.9049,3.0119,3.0659,3.119,0.0,3.2828,3.3748,3.4368,3.563,3.6635,3.7302,3.8565,3.9509,4.0104,4.0766,4.1194,4.1396,4.1396,4.1128,4.0736,4.1521,4.2116,4.2691,4.3914,4.4397,4.4387,4.4387,4.4223,4.3988,4.3964,4.3679,4.3273,3.121,3.2219,3.3259,0.0,3.3565,3.3547,0.0,0.0,0.0,0.0,3.7707,3.8321,3.8321,3.8321,3.8321,3.8321,3.7865,0.0,0.0,0.0,0.0,3.3517,3.2942,3.2119,3.0975,2.9809,0.0,2.8904,0.0,0.0,2.7117,2.7117,2.7406,2.7956,2.8307,2.9133,3.0304,3.1038,3.2609,3.4697,3.567,3.6777,0.0,0.0,3.8811,3.9561,3.8916,3.879,3.8929,3.8769,3.8613,3.8441,3.8295,3.7784,3.723,3.723,3.6784,3.6245,3.6245,3.5753,3.5198,3.5014,3.4168,3.3352,0.0,0.0,0.0,0.0,0.0,0.0,0.0,0.0,0.0,2.7903,2.7688,2.736,0.0,0.0,0.0,2.5914,0.0,0.0,2.7782,2.8321,2.8661,2.8797,2.9772,3.0543,3.1026,0.0,3.3267,3.4368,3.563,3.6635,3.7302,3.8565,3.9509,4.0104,4.0625,4.1064,4.1396,4.1184,4.0965,4.0708,4.0924,4.1602,4.2677,4.3895,4.44,4.4387,4.4387,4.4115,4.3685,4.3522,4.3393,4.3273,3.3383,0.0,0.0,3.6474,0.0,0.0,3.6367,0.0,0.0,3.8639,3.9291,0.0,3.9752,3.9752,3.9752,3.9752,3.9418,0.0,0.0,0.0,0.0,3.5473,3.4231,3.3249,3.2526,3.1201,0.0,3.0009,0.0,0.0,2.8018,2.8018,2.8404,2.9129,2.9352,3.0234,3.1622,3.2508,3.3882,3.554,3.6207,0.0,0.0,3.8746,3.9503,4.0416,4.0257,4.0095,3.9963,3.9849,3.9598,3.9348,3.9234,3.8672,3.8067,3.8067,3.7525,3.6938,3.6938,3.6461,3.5876,3.5568,3.4906,3.4152,3.3537,3.3106,3.2644,0.0,0.0,0.0,0.0,0.0,0.0,0.0,0.0,0.0,0.0,0.0,0.0,0.0,0.0,0.0,2.7063,2.7767,2.8237,2.8429,2.9193,2.991,3.047,0.0,3.283,3.3556,3.5082,3.6214,3.6867,3.7868,3.8957,4.0104,4.029,4.073,4.1396,4.1121,4.0887,4.0694,4.0699,4.1113,4.1912,4.3661,4.4399,4.4387,4.4139,4.3818,4.3437,4.3211,4.3128,4.3104,0.0,0.0,0.0,0.0,0.0,0.0,0.0,3.9483,0.0,4.0364,0.0,4.054,4.0652,4.0652,4.0604,4.0508,0.0,4.0332,4.0236,3.8955,3.8107,3.7945,3.5607,3.4165,3.389,3.2715,0.0,0.0,0.0,0.0,2.9221,2.9221,2.9561,3.0204,3.0663,0.0,0.0,3.4393,3.5269,3.5836,3.66,3.7611,3.8728,3.9423,4.0103,4.0814,4.1399,4.1406,4.1152,4.1151,4.0745,4.0245,4.0245,3.9663,3.8973,3.8973,3.8348,3.7647,3.7555,3.7077,3.6461,3.5799,3.5552,3.5183,3.3952,3.3537,3.3229,3.2644,3.1996,3.1503,0.0,0.0,0.0,0.0,0.0,0.0,0.0,0.0,0.0,0.0,0.0,0.0,2.6363,2.7091,2.775,2.8412,2.8862,2.9349,0.0,0.0,3.2497,3.2497,3.4387,3.568,3.6301,3.695,3.8202,3.9987,3.9832,4.0287,4.1267,4.1036,4.0866,4.0694,4.0687,4.0786,4.1128,4.3437,4.4379,4.4294,4.3804,4.3471,4.3273,4.3008,4.2911,4.2911,0.0,0.0,0.0,0.0,0.0,4.1148,4.1699,4.1289,4.1133,4.1757,4.2318,0.0,4.3503,4.3551,4.3327,4.2718,4.2158,0.0,0.0,0.0,0.0,3.8184,3.7667,3.6644,3.4972,3.4128,3.3364,0.0,0.0,0.0,3.1445,3.1445,3.151,3.1639,3.1729,3.2498,3.3802,3.5195,0.0,3.6786,3.8065,3.8983,3.9658,4.0309,4.0927,4.1447,4.1557,4.1555,4.1489,4.1322,4.1194,4.1067,4.0964,4.0445,3.9868,3.9868,3.9255,3.8443,3.7901,3.7542,3.7153,3.6492,3.5907,3.5429,3.5183,3.4229,3.3367,3.3244,3.269,3.2057,3.1503,0.0,0.0,0.0,0.0,0.0,0.0,0.0,0.0,0.0,0.0,0.0,0.0,0.0,2.7048,0.0,0.0,0.0,0.0,0.0,3.2497,0.0,3.4387,0.0,0.0,0.0,3.7999,3.9363,3.9486,3.9916,4.0589,4.0704,4.073,4.0702,4.0715,4.1295,4.2382,4.3802,4.4264,4.4044,4.3733,4.3471,4.3273,4.3008,4.2911,4.2911,0.0,0.0,0.0,0.0,0.0,0.0,0.0,4.3331,0.0,4.3508,4.3831,4.4169,4.4507,4.4555,4.441,4.4072,4.3379,4.2832,4.2477,4.1463,4.0606,3.9987,3.8904,0.0,3.6883,0.0,3.4716,3.3627,0.0,0.0,3.2,3.2,3.2206,3.2595,3.3323,3.3995,0.0,0.0,0.0,3.766,3.869,3.9659,4.0497,4.0832,4.1342,4.1851,4.1785,4.1768,4.1719,4.1522,4.1456,4.144,4.1372,4.1069,4.072,4.072,4.012,3.9397,3.9071,3.8336,3.7574,3.7249,3.66,3.5937,3.5583,3.4983,3.4275,3.3552,3.3136,3.2613,3.1595,3.0529,0.0,0.0,0.0,0.0,0.0,0.0,0.0,0.0,0.0,0.0,0.0,0.0,0.0,0.0,0.0,0.0,0.0,0.0,3.2148,0.0,0.0,0.0,3.6301,0.0,3.7607,3.9204,3.9404,3.9818,4.0418,4.0619,4.0702,4.0702,4.0702,4.105,4.1711,4.2986,4.3617,4.377,4.3533,4.3307,4.308,4.296,4.2911,4.2911,0.0,4.1306,0.0,0.0,4.3071,0.0,4.4804,4.5047,4.5064,4.5031,4.4998,4.5063,4.5241,4.5257,4.5176,4.503,4.448,4.401,4.3719,4.265,4.1904,4.1612,3.9977,3.8875,3.845,3.7364,3.608,0.0,0.0,0.0,3.3003,3.3003,3.3283,3.3871,0.0,0.0,0.0,0.0,3.7755,3.8526,3.9219,4.0146,4.1164,4.1308,4.1677,4.2077,4.198,4.1915,4.1882,4.1719,4.1638,4.1605,4.1605,4.1489,4.1357,4.1357,4.0879,4.0325,4.0185,3.9119,3.8011,3.784,3.7157,3.6399,3.583,3.5599,3.5152,3.3891,3.3398,3.2813,3.1626,3.0845,0.0,0.0,0.0,0.0,0.0,0.0,0.0,0.0,0.0,0.0,0.0,0.0,0.0,0.0,0.0,0.0,2.9098,0.0,0.0,0.0,0.0,3.4402,3.6286,0.0,3.7179,3.8938,3.9326,3.9741,4.0171,4.052,4.0702,4.0702,4.0702,4.0853,4.1185,4.231,4.311,4.3576,4.3379,4.3153,4.2911,4.2911,4.2911,4.2911,0.0,0.0,0.0,0.0,0.0,0.0,0.0,4.5861,4.5911,4.5727,4.571,4.5953,4.6634,4.6699,4.6423,4.5759,4.5646,4.5063,4.3784,4.3589,4.2925,4.1661,4.1417,4.0441,3.8623,3.8444,3.7761,0.0,0.0,0.0,0.0,3.6257,3.6238,0.0,0.0,0.0,0.0,3.7244,3.8102,3.9444,4.0124,4.0732,4.1336,4.2011,4.2206,4.2093,4.2077,4.1996,4.1898,4.1882,4.1752,4.1605,4.1605,4.1588,4.1572,4.1572,4.1392,4.107,4.0459,3.9593,3.8714,3.798,3.7235,3.6631,3.6461,3.5937,3.5291,3.4536,3.3381,3.2259,3.1534,3.0845,3.0132,0.0,0.0,0.0,0.0,0.0,0.0,0.0,0.0,0.0,0.0,2.7151,0.0,0.0,0.0,0.0,0.0,0.0,0.0,3.2482,3.3153,3.4402,3.6286,3.6301,3.6874,3.803,3.9032,3.9432,3.9335,4.0273,4.0702,4.0702,4.0702,4.1362,4.2455,4.2892,4.3286,4.3576,4.3379,4.3153,4.2911,4.2911,4.2911,4.2911,0.0,0.0,0.0,0.0,0.0,0.0,0.0,4.722,4.7498,4.743,4.7071,4.6925,4.7218,4.7251,4.7137,4.6843,4.6419,4.593,4.5359,4.4478,4.3745,4.319,4.2357,4.1523,4.0716,3.9819,3.8899,0.0,0.0,0.0,0.0,0.0,0.0,0.0,0.0,3.7579,3.8114,3.8551,3.9515,4.0771,4.1046,4.1535,4.2104,4.2411,4.2476,4.2397,4.2318,4.2238,4.219,4.2061,4.1834,4.1605,4.1605,4.1605,4.1605,4.1605,4.1539,4.1426,4.1143,4.0429,3.9609,3.8889,3.8028,3.7235,3.6724,3.6353,3.5907,3.5229,3.3982,3.2798,3.2119,3.1443,3.0742,0.0,0.0,0.0,0.0,0.0,0.0,0.0,0.0,0.0,0.0,0.0,2.7701,0.0,0.0,0.0,0.0,0.0,0.0,3.2482,0.0,3.4402,3.6286,3.6301,3.6827,3.7906,3.8984,3.9383,3.9223,4.0245,4.0702,4.0702,4.0702,4.0836,4.1102,4.1974,4.2527,4.2895,4.3002,4.2984,4.2911,4.2911,4.2911,4.2911,4.6553,0.0,4.6716,0.0,4.7339,4.752,4.8044,4.857,4.8916,4.8916,4.8557,4.8163,4.7831,4.7618,4.7503,4.7503,4.7028,4.6635,4.6405,4.5439,4.4653,4.421,4.3259,0.0,4.2172,4.1138,4.025,3.9552,3.8876,0.0,0.0,0.0,0.0,0.0,3.8233,3.8791,3.934,3.9819,4.0658,4.1658,4.1627,4.2002,4.2602,4.2602,4.2602,4.2587,4.2492,4.2429,4.2381,4.2254,4.1997,4.1736,4.1703,4.1654,4.1605,4.1605,4.1605,4.1605,4.1605,4.1001,4.0211,3.9487,3.8607,3.7732,3.6894,3.6631,3.6292,3.5398,3.4229,3.3198,3.2521,3.1857,3.1215,3.0648,0.0,0.0,0.0,0.0,0.0,0.0,0.0,0.0,0.0,0.0,0.0,0.0,0.0,0.0,0.0,0.0,0.0,0.0,0.0,0.0,3.6286,3.6301,3.6808,3.783,3.8964,3.9363,3.9162,4.0224,4.0702,4.0702,4.0702,4.0433,4.0095,4.1305,4.2044,4.2438,4.2777,4.2911,4.2911,4.2911,4.2911,4.2911,4.955,4.955,4.955,4.955,4.955,4.955,4.9567,4.9757,4.9878,4.9878,5.005,4.9735,4.8602,4.7913,4.7503,4.7503,4.7487,4.7175,4.6454,4.6389,4.5733,0.0,0.0,4.3584,4.2321,4.2272,4.1966,4.1378,0.0,0.0,4.0329,0.0,3.9538,4.0066,4.0066,4.0407,4.0967,4.0839,4.1189,4.1794,4.1641,4.2002,4.2602,4.2602,4.2602,4.2602,4.2602,4.2508,4.2397,4.2397,4.2254,4.2061,4.1947,4.1768,4.1605,4.1605,4.1605,4.1605,4.1605,4.1099,4.0387,3.9519,3.8795,3.8012,3.694,3.6708,3.6275,3.4797,3.392,3.3198,3.2521,3.1857,3.1395,3.138,0.0,0.0,0.0,0.0,0.0,0.0,0.0,0.0,2.76,0.0,0.0,0.0,0.0,0.0,0.0,0.0,0.0,3.2482,3.3153,0.0,3.6286,3.6301,3.6735,3.762,3.889,3.9282,3.8944,4.0161,4.0702,4.0702,4.0702,4.0433,4.0095,4.1305,4.2044,4.2438,4.2777,4.2911,4.2911,4.2911,4.2911,4.2911,4.9998,4.9998,4.9998,4.9998,4.9998,4.9998,4.9998,5.048,5.0863,5.0863,5.0915,5.0815,5.0446,4.9306,4.8596,0.0,4.8134,4.7737,0.0,4.7011,4.6532,4.6054,4.508,4.4351,4.3934,4.2943,4.233,4.2156,0.0,0.0,0.0,4.0845,4.0817,4.0993,4.0993,4.1321,4.1884,4.184,4.2161,4.2662,4.2541,4.261,4.2791,4.2649,4.2602,4.2602,4.2602,4.2571,4.2539,4.2539,4.2445,4.2302,4.2238,4.2045,4.1784,4.1638,4.1605,4.1605,4.1605,4.1447,4.1114,4.0355,3.9582,3.8733,3.7795,3.7064,3.6292,3.5367,3.4629,3.3936,3.3213,3.2521,3.1934,3.1472,3.0817,0.0,0.0,0.0,0.0,0.0,0.0,0.0,0.0,2.8889,0.0,0.0,0.0,0.0,0.0,0.0,0.0,0.0,3.3995,0.0,3.6301,3.6624,3.7039,3.762,3.8752,3.9599,4.0147,4.0519,4.0702,4.0702,4.0714,4.0425,4.0024,4.0326,4.0863,4.1579,4.2069,4.2534,4.2911,4.2911,4.2911,4.2863,5.1032,5.1032,5.1032,5.1032,5.1032,5.1032,5.1032,5.143,5.1712,5.1712,5.1712,5.1712,5.1712,5.0652,0.0,4.916,4.868,4.8299,4.8017,4.757,4.7189,4.6908,4.6013,4.5399,4.5118,4.3943,0.0,4.333,4.2305,4.1676,4.1394,4.1394,4.1543,4.1808,4.1808,4.2181,4.2772,4.2728,4.2917,4.3222,4.3347,4.3369,4.3324,4.3473,4.3491,4.3427,4.3427,4.3427,4.3379,4.312,4.2959,4.2831,4.2494,4.227,4.2028,4.1801,4.167,4.1605,4.1605,4.1605,4.1447,4.0767,3.9992,3.9078,3.7888,3.708,3.6369,3.566,3.4982,3.4275,3.3537,3.2844,3.2273,3.1842,3.1352,3.0843,3.0433,0.0,0.0,0.0,0.0,0.0,0.0,2.9563,2.9979,0.0,0.0,0.0,0.0,0.0,0.0,3.2861,3.4535,3.568,3.6301,3.6768,3.7198,3.762,3.8612,3.9653,4.0702,4.0702,4.0702,4.0702,4.0713,4.0326,3.9724,3.9792,4.0327,4.1154,4.1774,4.2371,4.2911,4.2911,4.2911,4.2863,5.2444,5.2427,5.2427,0.0,5.2427,0.0,5.2427,5.2427,5.2427,5.2427,5.2427,5.2427,5.2427,5.1813,5.0835,4.9409,0.0,0.0,0.0,4.8034,4.7703,4.7007,4.6924,4.6576,4.5881,4.5151,4.4753,4.4703,4.3265,4.2239,4.156,4.156,4.1924,4.2587,4.2587,4.3,4.3664,4.3545,4.3533,4.3616,4.4107,4.4229,4.4185,4.4854,4.4984,4.482,4.4804,4.4804,4.4707,4.401,4.3767,4.3638,4.2767,4.2494,4.2398,4.2012,4.1768,4.1621,4.1605,4.1605,4.1446,4.083,4.0056,3.9062,3.7435,3.6877,3.6476,3.5737,3.5044,3.4351,3.3598,3.2921,3.2444,3.2398,3.1644,3.1071,3.1071,0.0,0.0,0.0,0.0,0.0,0.0,3.0208,3.0471,0.0,0.0,0.0,0.0,0.0,3.2861,3.3474,3.4782,3.5723,3.6301,3.6779,3.7265,3.771,3.8514,3.9528,4.0702,4.0702,4.0702,4.0702,4.0691,4.0184,3.9371,3.9643,4.0236,4.1036,4.1683,4.2304,4.2833,4.2873,4.2887,4.2838,0.0,0.0,5.2764,5.2764,5.2764,5.2764,5.2764,5.2764,5.2764,5.2764,5.2764,5.2764,5.2764,5.2631,5.2163,5.1245,4.9909,4.9028,4.8862,4.8315,4.7918,4.7752,4.7206,4.6825,4.6643,4.5929,4.5267,4.4703,4.3795,4.3251,4.3069,4.3069,4.3168,4.3348,4.3348,4.3746,4.444,4.4409,4.4725,4.5222,4.5265,4.5253,4.5206,4.513,4.5082,4.5,4.4869,4.4804,4.4755,4.4593,4.4528,4.4415,4.3638,4.3315,4.3057,4.2155,4.1866,4.1801,4.1638,4.1605,4.1557,4.1415,4.0355,3.9062,3.8013,3.7219,3.6616,3.6307,3.5722,3.5044,3.4367,3.3659,3.2998,3.2475,3.2041,3.1754,3.1754,3.0912,0.0,0.0,3.0283,3.0283,3.0283,3.0782,3.1234,0.0,0.0,0.0,3.298,3.3167,3.3344,3.3489,3.5186,3.6156,3.6301,3.7063,3.7851,3.8587,3.8802,3.9528,4.0702,4.0702,4.0702,4.0702,4.071,4.0358,3.9818,3.9528,3.9528,3.9841,4.0908,4.1693,4.2263,4.2724,4.2766,4.256,5.3539,5.3389,5.3305,5.297,5.2903,5.2903,5.2903,5.2903,5.2903,5.2903,5.2903,5.2903,5.2903,5.2903,5.2753,5.2334,5.0777,4.9693,4.9343,4.8546,4.8082,4.8082,4.7652,4.7404,4.7404,4.6676,4.593,4.52,4.4804,4.4622,4.4622,4.4622,4.4622,4.4622,4.4622,4.4837,4.52,4.52,4.5432,4.5814,4.61,4.6137,4.6074,4.6225,4.6175,4.6059,4.5943,4.5843,4.5711,4.537,4.5257,4.5127,4.4431,4.3929,4.346,4.2831,4.2267,4.1866,4.1654,4.1605,4.1542,4.1226,4.026,3.9172,3.8325,3.7467,3.6785,3.6631,3.6014,3.5383,3.5014,3.4091,3.3275,3.2921,3.2361,3.1996,3.1996,3.1395,0.0,3.0957,3.0957,3.0957,3.0957,3.141,3.1782,3.1986,3.2406,0.0,3.346,3.3763,3.4053,3.4361,3.5619,3.646,3.6747,3.7327,3.8038,3.8902,3.8902,3.9528,4.0702,4.0702,4.0702,4.068,4.0546,4.0301,3.9952,3.9504,3.9303,3.9391,4.033,4.1232,4.2046,4.2371,4.2487,4.2449,5.4399,5.4164,5.3896,5.3275,5.3074,5.299,5.299,5.299,5.299,5.299,5.299,5.299,5.299,5.299,5.299,5.299,5.1732,5.0609,4.9823,4.8924,4.836,4.8243,4.8131,4.8066,4.8033,4.7288,4.6576,4.5963,4.5863,4.5813,4.5813,4.5813,4.5813,4.5813,4.5813,4.5847,4.5963,4.5963,4.603,4.6179,4.6808,4.696,4.688,4.7457,4.7521,4.7268,4.7217,4.7081,4.6847,4.6197,4.5969,4.584,4.516,4.4528,4.3945,4.3605,4.2862,4.2074,4.1735,4.1621,4.1463,4.0893,4.0198,3.944,3.8638,3.7778,3.7078,3.6754,3.6137,3.5614,3.5522,3.4522,3.369,3.3583,3.285,3.2299,3.2299,0.0,3.1795,3.1795,3.1795,3.1795,3.1795,3.2109,3.2314,3.231,3.3152,3.3665,3.3634,3.4211,3.4849,3.5523,3.6025,3.6642,3.7341,3.7505,3.8038,3.8902,3.8902,3.9528,4.0702,4.0702,4.068,4.0637,4.0326,4.0108,3.9958,3.9482,3.9298,3.9352,3.9861,4.0761,4.1747,4.1937,4.2125,4.2279,5.5595,5.4936,5.448,5.4362,5.3822,5.3416,5.3416,5.3416,5.3416,5.3416,5.3416,5.3416,5.3416,5.3416,5.3416,5.3416,5.2589,5.1613,5.0593,4.9807,4.9104,4.8468,4.8436,4.834,4.8163,4.7352,4.6841,4.6725,4.6112,4.5813,4.5813,4.5813,4.5813,4.5813,4.5813,4.6161,4.6725,4.6725,4.709,4.7669,4.7785,4.7819,4.777,4.7721,4.7671,4.7588,4.7302,4.7183,4.7115,4.6831,4.6731,4.6602,4.5872,4.5565,4.5224,4.3879,4.3395,4.3056,4.2106,4.1719,4.1589,4.1478,4.0925,4.0213,3.933,3.8466,3.7623,3.6847,3.6508,3.6168,3.5599,3.5322,3.4983,3.4413,3.3964,3.3696,3.3696,0.0,3.3185,3.3185,3.3185,3.3185,3.3185,3.2999,3.3093,3.3654,3.3584,3.3738,3.424,3.4895,3.552,3.6141,3.6257,3.67,3.7544,3.7587,3.8038,3.8902,3.8902,3.9528,4.0702,4.0702,4.0608,4.0442,4.0275,4.012,3.9964,3.9501,3.931,3.9311,3.9406,3.9865,4.0594,4.1625,4.1749,4.1474,5.6444,5.6021,5.553,5.4753,5.4313,5.3957,5.3568,5.3501,5.3501,5.3501,5.3501,5.3501,5.3501,5.3501,5.3501,5.3501,5.3162,5.2555,5.1613,5.0438,4.9432,4.8692,4.8547,4.8468,4.8356,4.7846,4.76,4.76,4.7188,4.6974,4.6974,4.6974,4.6974,4.6974,4.6974,4.7173,4.7487,4.7487,4.7686,4.8001,4.8001,4.8001,4.7984,4.7902,4.7787,4.7671,4.7437,4.7285,4.7166,4.6978,4.6893,4.6845,4.6488,4.6115,4.5661,4.4947,4.3748,4.2541,4.2026,4.1752,4.1605,4.1605,4.1099,4.0387,3.9598,3.867,3.7779,3.7017,3.6677,3.6415,3.6107,3.5737,3.5399,3.5091,3.4453,0.0,3.4,3.3713,3.3499,3.3499,3.3499,3.3499,3.3499,3.3596,3.3749,3.3979,3.4089,3.4226,3.4399,3.5041,3.568,3.6286,3.6983,3.7403,3.7591,3.7605,3.8038,3.8902,3.8902,3.9528,4.0702,4.0702,4.0587,4.0399,4.0182,4.0013,3.9862,3.9457,3.9305,3.9296,3.9298,3.946,3.9811,4.0711,4.0891,4.0803,5.7315,5.706,5.6517,5.516,5.477,5.4415,5.3619,5.3501,5.3501,5.3501,5.3501,5.3501,5.3501,5.3501,5.3501,5.3501,5.3501,5.3162,5.235,5.1138,5.0045,4.9134,4.8758,4.8579,4.8579,4.8372,4.8243,4.8195,4.8098,4.8033,4.8001,4.8001,4.8001,4.8001,4.8001,4.8001,4.8001,4.8001,4.8001,4.8001,4.8001,4.8001,4.8001,4.8001,4.7902,4.7754,4.7604,4.7436,4.7234,4.703,4.6944,4.6893,4.6893,4.6521,4.6018,4.5856,4.4118,4.2219,4.1962,4.1752,4.1605,4.1605,4.1209,4.064,3.9914,3.9,3.8091,3.7389,3.6863,3.6538,3.6507,3.6076,3.5737,3.5737,0.0,3.4501,3.4471,3.4196,3.3995,3.3963,3.3963,3.3963,3.3963,3.4239,3.4377,3.423,3.4505,3.4672,3.4632,3.5259,3.5956,3.6722,3.7694,3.801,3.7605,3.7605,3.8038,3.8902,3.8902,3.9528,4.0702,4.0702,4.0565,4.0298,4.0097,3.9884,3.9661,3.9407,3.9305,3.9305,3.9305,3.9307,3.9347,3.9825,4.0028,4.0167,5.8386,5.7823,5.7037,5.6064,5.5332,5.4584,5.3653,5.3501,5.3501,5.3501,5.3501,5.3501,5.3501,5.3501,5.3501,5.3501,5.3501,5.3162,5.235,5.2182,5.1488,5.0067,4.9234,4.8786,4.8786,4.8579,4.8388,4.8195,4.8195,4.8115,4.8001,4.8001,4.8001,4.8001,4.8001,4.8001,4.8001,4.8001,4.8001,4.8001,4.8001,4.8001,4.8001,4.8001,4.7984,4.7952,4.777,4.7588,4.7436,4.7251,4.7047,4.6893,4.6893,4.6861,4.6683,4.6002,4.4655,4.3169,4.2171,4.1752,4.1605,4.1605,4.1557,4.1352,4.0672,3.9834,3.8952,3.8091,3.7266,3.6647,3.6523,3.6445,3.643,3.643,0.0,0.0,3.5869,3.5664,3.5503,3.5371,3.5355,3.5355,3.5355,3.5222,3.5041,3.4844,3.4737,3.4879,3.529,3.5894,3.6794,3.8028,3.8159,3.801,3.7605,3.7605,3.8038,3.8902,3.8902,3.9528,4.0702,4.0702,4.0451,4.0031,3.9996,3.9747,3.9327,3.9305,3.9305,3.9305,3.9305,3.9296,3.9306,3.9357,3.9402,3.9551,5.8508,5.8268,5.7823,5.702,5.6218,5.5434,5.4617,5.409,5.38,5.38,5.3701,5.3618,5.3618,5.3551,5.3501,5.3501,5.3501,5.3365,5.3061,5.2587,5.164,5.0167,4.9344,4.8909,4.8909,4.8769,4.8643,4.8564,4.8308,4.8163,4.8115,4.805,4.8001,4.8001,4.8001,4.8001,4.8001,4.8001,4.8001,4.8001,4.8001,4.8001,4.8001,4.8001,4.8001,4.7968,4.777,4.7604,4.747,4.7268,4.7064,4.6893,4.6893,4.6893,4.6764,4.6018,4.5334,4.4505,4.3085,4.2265,4.1768,4.1621,4.1605,4.1415,4.0751,4.0243,3.9674,3.881,3.795,3.7328,3.7139,3.6769,3.6507,3.6507,0.0,3.6148,3.6021,3.5831,3.5654,3.5521,3.5504,3.5504,3.5504,3.5439,3.5261,3.4918,3.5251,3.5422,3.5395,3.6359,3.7317,3.8173,3.8202,3.801,3.7605,3.7605,3.8038,3.8902,3.8902,3.9528,4.0702,4.0702,4.043,3.9996,3.9996,3.9733,3.9305,3.9305,3.9305,3.9305,3.9305,3.9305,3.9296,3.9293,3.9181,3.9101,5.8649,5.8649,5.8409,5.762,5.6833,5.6013,5.521,5.4475,5.3997,5.3997,5.3882,5.3783,5.3783,5.3651,5.3568,5.3568,5.3534,5.3501,5.3501,5.2756,5.164,5.0167,4.961,4.9238,4.9018,4.891,4.8832,4.8802,4.8468,4.826,4.8195,4.8049,4.8001,4.8001,4.8001,4.8001,4.8001,4.8001,4.8001,4.8001,4.8001,4.8001,4.8001,4.8001,4.8001,4.7984,4.7836,4.7688,4.7537,4.7352,4.7166,4.6978,4.6911,4.6893,4.6812,4.6277,4.5917,4.5346,4.3938,4.294,4.2185,4.1718,4.1605,4.1478,4.102,4.0639,4.0193,3.9497,3.8713,3.8088,3.7863,3.7261,3.6799,3.6799,3.6521,3.6242,3.6037,3.5879,3.5718,3.5521,3.5504,3.5504,3.5504,3.5684,3.5656,3.523,3.5849,3.615,3.5988,3.6997,3.7781,3.8188,3.8202,3.801,3.7605,3.7605,3.8038,3.8902,3.8902,3.9528,4.0702,4.0702,4.0487,4.0118,4.0053,3.9791,3.943,3.9327,3.9305,3.9305,3.9305,3.9305,3.9305,3.9305,3.9078,3.8826,5.8995,5.8995,5.872,5.7861,5.7037,5.6181,5.526,5.4475,5.3997,5.3997,5.3997,5.3997,5.3997,5.3816,5.37,5.37,5.3584,5.3501,5.3501,5.2756,5.1657,5.0184,5.0117,4.9763,4.9035,4.9018,4.8958,4.8819,4.8611,4.8404,4.8212,4.8082,4.8001,4.8001,4.8001,4.8001,4.8001,4.8001,4.8001,4.8001,4.8001,4.8001,4.8001,4.8001,4.8001,4.8001,4.8001,4.7869,4.7671,4.7554,4.7369,4.7166,4.6961,4.6893,4.6893,4.6893,4.6374,4.5594,4.4565,4.3759,4.294,4.1861,4.1605,4.1605,4.1605,4.1083,4.0512,4.0186,3.9526,3.8914,3.8557,3.7969,3.7507,3.7507,3.6953,3.6398,3.6052,3.602,3.5892,3.5552,3.5519,3.5519,3.5519,3.6134,3.6343,3.5942,3.6541,3.7028,3.7292,3.7883,3.8202,3.8202,3.8202,3.801,3.7605,3.7605,3.8038,3.8902,3.8902,3.9528,4.0702,4.0702,4.0587,4.0399,4.0118,3.9892,3.9678,3.9407,3.9305,3.9305,3.9305,3.9305,3.9305,3.9305,3.9078,3.8736,5.8995,5.8995,5.8926,5.8668,5.7549,5.662,5.6329,5.5194,5.4353,5.4353,5.4223,5.4143,5.4143,5.3997,5.3915,5.3915,5.3734,5.3601,5.3501,5.3281,5.2689,5.1691,5.115,5.0761,5.0542,5.0542,5.0526,5.0478,4.9812,4.9384,4.9173,4.8461,4.8082,4.8001,4.8001,4.8001,4.8001,4.8001,4.8001,4.8001,4.8001,4.8001,4.8001,4.8001,4.8001,4.8001,4.8001,4.7869,4.7671,4.7554,4.7369,4.7166,4.6961,4.6893,4.6893,4.6893,4.6748,4.6338,4.5286,4.4495,4.3596,4.2005,4.1605,4.1605,4.1605,4.1447,4.1223,4.0992,4.0311,3.9695,3.9465,3.8744,3.82,3.82,3.803,3.7778,3.745,3.74,3.7268,3.687,3.6836,3.6836,3.6836,3.7015,3.705,3.6827,3.7169,3.7547,3.7897,3.8101,3.8202,3.8202,3.8202,3.801,3.7605,3.7605,3.8038,3.8902,3.8902,3.9528,4.0702,4.0702,4.0587,4.0399,4.0118,3.9892,3.9678,3.9407,3.9305,3.9305,3.9305,3.9305,3.9305,3.9305,3.9029,3.8638,5.8995,5.8995,5.8909,5.8616,5.7598,5.6684,5.6374,5.5288,5.4496,5.4496,5.4383,5.4319,5.4319,5.4175,5.4078,5.4078,5.3849,5.3667,5.3568,5.3534,5.3281,5.2807,5.235,5.181,5.1218,5.1201,5.1201,5.1201,5.0617,5.0237,5.0007,4.9359,4.8995,4.8879,4.8879,4.8879,4.8862,4.8564,4.8448,4.8415,4.8117,4.8001,4.8001,4.8001,4.8001,4.8001,4.8001,4.7919,4.7787,4.7571,4.7302,4.7047,4.6944,4.6893,4.6893,4.6893,4.6893,4.6679,4.5693,4.5059,4.4347,4.2913,4.2066,4.1605,4.1605,4.1605,4.1539,4.134,4.0875,4.0428,4.0245,3.9471,3.8891,3.8891,3.8661,3.8408,3.8158,3.8041,3.7889,3.7556,3.7454,3.7387,3.7387,3.7644,3.7809,3.7831,3.791,3.8032,3.8188,3.8202,3.8202,3.8202,3.8202,3.8047,3.772,3.7644,3.8038,3.8902,3.8902,3.9528,4.0702,4.0702,4.0616,4.0515,4.014,3.9922,3.9796,3.9438,3.9305,3.9305,3.9305,3.9305,3.9305,3.9305,3.9011,3.8554,5.903,5.903,5.8788,5.803,5.7288,5.6529,5.572,5.4961,5.4496,5.4496,5.4496,5.4496,5.4496,5.4335,5.4239,5.4239,5.3914,5.3734,5.37,5.3584,5.3501,5.3501,5.3501,5.2841,5.1438,5.1404,5.1404,5.1404,5.1223,5.1009,5.0827,5.0543,5.0341,5.0221,5.022,5.0203,5.0153,4.9475,4.921,4.9127,4.8481,4.8199,4.8199,4.8199,4.8199,4.8199,4.8199,4.8199,4.8134,4.7735,4.7283,4.6893,4.6893,4.6893,4.6893,4.6893,4.6893,4.6712,4.5911,4.5497,4.5099,4.4288,4.2942,4.1779,4.1716,4.1652,4.1555,4.1357,4.1204,4.1034,4.085,4.0151,3.9599,3.9599,3.9076,3.8626,3.8492,3.8307,3.8105,3.7905,3.7702,3.7584,3.7584,3.8123,3.8576,3.8774,3.8631,3.8441,3.8202,3.8202,3.8202,3.8202,3.8202,3.8104,3.7891,3.7701,3.8038,3.8922,3.8902,3.9528,4.0702,4.0702,4.0702,4.068,4.0227,4.0017,3.9974,3.9526,3.9327,3.9305,3.9305,3.9305,3.9305,3.9305,3.9037,3.8595,5.9268,5.9234,5.8941,5.8064,5.7288,5.6529,5.572,5.4961,5.4496,5.4496,5.4496,5.4496,5.4496,5.4447,5.4431,5.4431,5.4127,5.3866,5.37,5.3584,5.3501,5.3501,5.3501,5.3348,5.301,5.2993,5.2993,5.2993,5.2351,5.1948,5.1782,5.1011,5.0543,5.0358,5.0255,5.0203,5.0187,5.0021,4.9955,4.9938,4.9789,4.9723,4.9723,4.9723,4.9723,4.9723,4.9723,4.9723,4.9573,4.8605,4.7657,4.6893,4.6893,4.6893,4.6893,4.6893,4.6893,4.6809,4.6475,4.585,4.5227,4.486,4.4018,4.3104,4.2568,4.2016,4.1588,4.1539,4.1304,4.11,4.1034,4.0622,4.0274,4.0274,4.0151,4.0025,3.9885,3.9677,3.9501,3.9295,3.9082,3.8973,3.8973,3.9092,3.9083,3.8819,3.8745,3.8575,3.8221,3.8202,3.8202,3.8202,3.8202,3.8104,3.7891,3.7701,3.8131,3.914,3.8977,3.9528,4.0702,4.0702,4.0702,4.068,4.0428,4.0198,3.9974,3.973,3.9474,3.9305,3.9305,3.9305,3.9305,3.9305,3.9243,3.9034,5.947,5.9436,5.9056,5.7829,5.7228,5.6505,5.5382,5.4818,5.4496,5.4496,5.4496,5.4496,5.4496,5.4496,5.4496,5.4496,5.4255,5.4029,5.3849,5.3684,5.3568,5.3501,5.3501,5.3501,5.3501,5.3501,5.3501,5.3501,5.3078,5.2791,5.2606,5.2017,5.1629,5.1441,5.1318,5.1247,5.1231,5.0866,5.0717,5.0684,5.0336,5.0203,5.0203,5.0203,5.0203,5.0203,5.0203,5.0084,4.9828,4.9227,4.8309,4.741,4.741,4.7168,4.6893,4.6893,4.6893,4.6876,4.6772,4.6271,4.5754,4.5649,4.4895,4.391,4.2933,4.2411,4.2032,4.1668,4.1338,4.11,4.11,4.0763,4.0489,4.0489,4.0489,4.0487,4.0401,4.0172,3.996,3.9872,3.9586,3.9406,3.9406,3.9406,3.9265,3.8962,3.8852,3.8668,3.8366,3.824,3.8202,3.8202,3.8202,3.8146,3.8028,3.7853,3.8287,3.9343,3.9039,3.9528,4.0702,4.0702,4.0702,4.0702,4.0493,4.0255,3.9974,3.9774,3.9554,3.9305,3.9305,3.9305,3.9305,3.9305,3.9306,3.9168,5.9636,5.9532,5.8976,5.755,5.7039,5.6388,5.5003,5.4655,5.4543,5.4512,5.4496,5.4496,5.4496,5.4496,5.4496,5.4496,5.4319,5.4142,5.4045,5.3833,5.3651,5.3534,5.3517,5.3501,5.3501,5.3501,5.3501,5.3501,5.3501,5.3416,5.3247,5.3041,5.2834,5.2641,5.2498,5.2409,5.2358,5.1745,5.148,5.143,5.0817,5.0585,5.0585,5.0585,5.0585,5.0585,5.0585,5.0243,4.978,4.978,4.9075,4.8154,4.804,4.7572,4.7072,4.6942,4.6893,4.6893,4.6893,4.6615,4.6298,4.6298,4.5601,4.4575,4.3311,4.2869,4.2538,4.1921,4.1416,4.11,4.11,4.0763,4.0489,4.0489,4.0489,4.0489,4.0489,4.0244,4.0046,3.9996,3.964,3.9406,3.9406,3.9406,3.9319,3.9123,3.8907,3.8705,3.8497,3.8296,3.8202,3.8202,3.8202,3.8202,3.8202,3.8005,3.8442,3.9498,3.914,3.957,4.0702,4.0702,4.0702,4.0702,4.0515,4.032,4.0053,3.984,3.9598,3.9349,3.9327,3.9305,3.9305,3.9305,3.9306,3.919,5.9814,5.9258,5.8494,5.7479,5.67,5.5906,5.4949,5.4781,5.4702,5.4527,5.4496,5.4496,5.4496,5.4496,5.4496,5.4496,5.4319,5.4174,5.4158,5.3882,5.3684,5.3667,5.3551,5.3501,5.3501,5.3501,5.3501,5.3501,5.3501,5.3484,5.3467,5.3247,5.3041,5.2851,5.2676,5.2499,5.2391,5.2292,5.2242,5.2242,5.2143,5.211,5.211,5.211,5.211,5.211,5.211,5.1431,5.0549,5.0549,4.9808,4.8769,4.817,4.7927,4.7734,4.7104,4.6893,4.6893,4.6893,4.6615,4.6298,4.6298,4.5965,4.5444,4.4622,4.3532,4.268,4.2585,4.1777,4.11,4.11,4.0763,4.0489,4.0489,4.0489,4.0489,4.0489,4.0366,4.0189,4.0013,3.964,3.9406,3.9406,3.9406,3.9319,3.9123,3.8907,3.8705,3.8497,3.8296,3.8202,3.8202,3.8202,3.8202,3.8202,3.8005,3.8442,3.9498,3.9262,3.9694,4.0702,4.0702,4.0702,4.0702,4.0659,4.0544,4.0334,4.0067,3.9848,3.962,3.9394,3.9305,3.9305,3.9305,3.9306,3.9285,5.9993,5.9381,5.8596,5.773,5.6848,5.5985,5.5142,5.4886,5.4764,5.4686,5.4575,5.4496,5.4496,5.4496,5.4496,5.4496,5.4432,5.4319,5.4223,5.3997,5.3816,5.37,5.3568,5.3501,5.3501,5.3501,5.3501,5.3501,5.3501,5.3501,5.3501,5.3298,5.3144,5.3059,5.2729,5.257,5.2516,5.2427,5.2391,5.2391,5.2391,5.2391,5.2391,5.2391,5.2391,5.2391,5.2391,5.1926,5.1321,5.1321,5.0558,4.9546,4.9273,4.8641,4.7945,4.7621,4.7234,4.6893,4.6893,4.6615,4.6298,4.6298,4.6062,4.571,4.5378,4.4543,4.3706,4.3342,4.2489,4.1781,4.168,4.1114,4.0627,4.0507,4.0489,4.0489,4.0489,4.0383,4.0174,3.9874,3.9586,3.9406,3.9406,3.9406,3.9355,3.9265,3.9086,3.8889,3.8686,3.8482,3.8315,3.8202,3.8202,3.8202,3.8202,3.8123,3.8414,3.9106,3.9279,3.9832,4.0702,4.0702,4.0702,4.0702,4.0702,4.0587,4.0377,4.0097,3.9892,3.9678,3.9394,3.9305,3.9305,3.9305,3.931,3.9306]}]]